<?xml version="1.0" encoding="UTF-8" standalone="no" ?>
<gpx xmlns="http://www.topografix.com/GPX/1/1" xmlns:xsi="http://www.w3.org/2001/XMLSchema-instance" xsi:schemaLocation="http://www.topografix.com/GPX/1/1 http://www.topografix.com/GPX/1/1/gpx.xsd" version="1.1" creator="VisuGPX - https://www.visugpx.com">
  <metadata>
    <name>Trial 2012 Mirmande</name>
    <desc><![CDATA[Trial 2012 de Mirmande]]></desc>
  </metadata>
  <trk>
    <name><![CDATA[Trail de Mirmande]]></name>
    <trkseg>
      <trkpt lat="44.69751" lon="4.83687">
        <ele>259</ele>
        <time>2012-04-01T07:05:04Z</time>
      </trkpt>
      <trkpt lat="44.6976" lon="4.8365">
        <ele>250</ele>
        <time>2012-04-01T07:05:37Z</time>
      </trkpt>
      <trkpt lat="44.69787" lon="4.83636">
        <ele>248</ele>
        <time>2012-04-01T07:05:48Z</time>
      </trkpt>
      <trkpt lat="44.69813" lon="4.83661">
        <ele>244</ele>
        <time>2012-04-01T07:05:58Z</time>
      </trkpt>
      <trkpt lat="44.69815" lon="4.83704">
        <ele>239</ele>
        <time>2012-04-01T07:06:08Z</time>
      </trkpt>
      <trkpt lat="44.69822" lon="4.83707">
        <ele>231</ele>
        <time>2012-04-01T07:06:18Z</time>
      </trkpt>
      <trkpt lat="44.69845" lon="4.83684">
        <ele>229</ele>
        <time>2012-04-01T07:06:28Z</time>
      </trkpt>
      <trkpt lat="44.69867" lon="4.83661">
        <ele>225</ele>
        <time>2012-04-01T07:06:38Z</time>
      </trkpt>
      <trkpt lat="44.69881" lon="4.83649">
        <ele>220</ele>
        <time>2012-04-01T07:06:48Z</time>
      </trkpt>
      <trkpt lat="44.69876" lon="4.8369">
        <ele>220</ele>
        <time>2012-04-01T07:06:58Z</time>
      </trkpt>
      <trkpt lat="44.69859" lon="4.83725">
        <ele>218</ele>
        <time>2012-04-01T07:07:08Z</time>
      </trkpt>
      <trkpt lat="44.69868" lon="4.8374">
        <ele>211</ele>
        <time>2012-04-01T07:07:18Z</time>
      </trkpt>
      <trkpt lat="44.6989" lon="4.8371">
        <ele>205</ele>
        <time>2012-04-01T07:07:28Z</time>
      </trkpt>
      <trkpt lat="44.69912" lon="4.83687">
        <ele>205</ele>
        <time>2012-04-01T07:07:38Z</time>
      </trkpt>
      <trkpt lat="44.69939" lon="4.83658">
        <ele>202</ele>
        <time>2012-04-01T07:07:48Z</time>
      </trkpt>
      <trkpt lat="44.69947" lon="4.83621">
        <ele>200</ele>
        <time>2012-04-01T07:07:58Z</time>
      </trkpt>
      <trkpt lat="44.69937" lon="4.83578">
        <ele>196</ele>
        <time>2012-04-01T07:08:08Z</time>
      </trkpt>
      <trkpt lat="44.6992" lon="4.83543">
        <ele>190</ele>
        <time>2012-04-01T07:08:18Z</time>
      </trkpt>
      <trkpt lat="44.69905" lon="4.83506">
        <ele>187</ele>
        <time>2012-04-01T07:08:28Z</time>
      </trkpt>
      <trkpt lat="44.69883" lon="4.83468">
        <ele>187</ele>
        <time>2012-04-01T07:08:38Z</time>
      </trkpt>
      <trkpt lat="44.69873" lon="4.83442">
        <ele>187</ele>
        <time>2012-04-01T07:08:48Z</time>
      </trkpt>
      <trkpt lat="44.69856" lon="4.83458">
        <ele>184</ele>
        <time>2012-04-01T07:08:58Z</time>
      </trkpt>
      <trkpt lat="44.69841" lon="4.83473">
        <ele>184</ele>
        <time>2012-04-01T07:09:08Z</time>
      </trkpt>
      <trkpt lat="44.6982" lon="4.83484">
        <ele>188</ele>
        <time>2012-04-01T07:09:19Z</time>
      </trkpt>
      <trkpt lat="44.69812" lon="4.83505">
        <ele>194</ele>
        <time>2012-04-01T07:09:29Z</time>
      </trkpt>
      <trkpt lat="44.69799" lon="4.83515">
        <ele>198</ele>
        <time>2012-04-01T07:09:39Z</time>
      </trkpt>
      <trkpt lat="44.69788" lon="4.83522">
        <ele>201</ele>
        <time>2012-04-01T07:09:49Z</time>
      </trkpt>
      <trkpt lat="44.69777" lon="4.83533">
        <ele>202</ele>
        <time>2012-04-01T07:09:59Z</time>
      </trkpt>
      <trkpt lat="44.69767" lon="4.8354">
        <ele>206</ele>
        <time>2012-04-01T07:10:09Z</time>
      </trkpt>
      <trkpt lat="44.69744" lon="4.83555">
        <ele>207</ele>
        <time>2012-04-01T07:10:19Z</time>
      </trkpt>
      <trkpt lat="44.69724" lon="4.83575">
        <ele>209</ele>
        <time>2012-04-01T07:10:29Z</time>
      </trkpt>
      <trkpt lat="44.69704" lon="4.83597">
        <ele>209</ele>
        <time>2012-04-01T07:10:39Z</time>
      </trkpt>
      <trkpt lat="44.69683" lon="4.83624">
        <ele>209</ele>
        <time>2012-04-01T07:10:50Z</time>
      </trkpt>
      <trkpt lat="44.69664" lon="4.83599">
        <ele>209</ele>
        <time>2012-04-01T07:11:00Z</time>
      </trkpt>
      <trkpt lat="44.69673" lon="4.83562">
        <ele>211</ele>
        <time>2012-04-01T07:11:10Z</time>
      </trkpt>
      <trkpt lat="44.69674" lon="4.83531">
        <ele>211</ele>
        <time>2012-04-01T07:11:20Z</time>
      </trkpt>
      <trkpt lat="44.69666" lon="4.83502">
        <ele>211</ele>
        <time>2012-04-01T07:11:30Z</time>
      </trkpt>
      <trkpt lat="44.69653" lon="4.8347">
        <ele>216</ele>
        <time>2012-04-01T07:11:40Z</time>
      </trkpt>
      <trkpt lat="44.6963" lon="4.83467">
        <ele>217</ele>
        <time>2012-04-01T07:11:50Z</time>
      </trkpt>
      <trkpt lat="44.69611" lon="4.83462">
        <ele>217</ele>
        <time>2012-04-01T07:12:00Z</time>
      </trkpt>
      <trkpt lat="44.6959" lon="4.83448">
        <ele>218</ele>
        <time>2012-04-01T07:12:10Z</time>
      </trkpt>
      <trkpt lat="44.6957" lon="4.83435">
        <ele>219</ele>
        <time>2012-04-01T07:12:20Z</time>
      </trkpt>
      <trkpt lat="44.69551" lon="4.83434">
        <ele>223</ele>
        <time>2012-04-01T07:12:30Z</time>
      </trkpt>
      <trkpt lat="44.6955" lon="4.8346">
        <ele>229</ele>
        <time>2012-04-01T07:12:41Z</time>
      </trkpt>
      <trkpt lat="44.69539" lon="4.83473">
        <ele>233</ele>
        <time>2012-04-01T07:12:51Z</time>
      </trkpt>
      <trkpt lat="44.69524" lon="4.83467">
        <ele>237</ele>
        <time>2012-04-01T07:13:01Z</time>
      </trkpt>
      <trkpt lat="44.69506" lon="4.83465">
        <ele>239</ele>
        <time>2012-04-01T07:13:12Z</time>
      </trkpt>
      <trkpt lat="44.69495" lon="4.8347">
        <ele>240</ele>
        <time>2012-04-01T07:13:22Z</time>
      </trkpt>
      <trkpt lat="44.69486" lon="4.83473">
        <ele>246</ele>
        <time>2012-04-01T07:13:32Z</time>
      </trkpt>
      <trkpt lat="44.69477" lon="4.83481">
        <ele>246</ele>
        <time>2012-04-01T07:13:42Z</time>
      </trkpt>
      <trkpt lat="44.69466" lon="4.83486">
        <ele>251</ele>
        <time>2012-04-01T07:13:52Z</time>
      </trkpt>
      <trkpt lat="44.69453" lon="4.83496">
        <ele>256</ele>
        <time>2012-04-01T07:14:02Z</time>
      </trkpt>
      <trkpt lat="44.69443" lon="4.83506">
        <ele>261</ele>
        <time>2012-04-01T07:14:13Z</time>
      </trkpt>
      <trkpt lat="44.69431" lon="4.83526">
        <ele>263</ele>
        <time>2012-04-01T07:14:24Z</time>
      </trkpt>
      <trkpt lat="44.69418" lon="4.83546">
        <ele>263</ele>
        <time>2012-04-01T07:14:34Z</time>
      </trkpt>
      <trkpt lat="44.69407" lon="4.83566">
        <ele>264</ele>
        <time>2012-04-01T07:14:44Z</time>
      </trkpt>
      <trkpt lat="44.69397" lon="4.83583">
        <ele>264</ele>
        <time>2012-04-01T07:14:54Z</time>
      </trkpt>
      <trkpt lat="44.6938" lon="4.83597">
        <ele>268</ele>
        <time>2012-04-01T07:15:04Z</time>
      </trkpt>
      <trkpt lat="44.69353" lon="4.83593">
        <ele>278</ele>
        <time>2012-04-01T07:15:14Z</time>
      </trkpt>
      <trkpt lat="44.69332" lon="4.83591">
        <ele>285</ele>
        <time>2012-04-01T07:15:24Z</time>
      </trkpt>
      <trkpt lat="44.69318" lon="4.83596">
        <ele>287</ele>
        <time>2012-04-01T07:15:35Z</time>
      </trkpt>
      <trkpt lat="44.69301" lon="4.83599">
        <ele>287</ele>
        <time>2012-04-01T07:15:45Z</time>
      </trkpt>
      <trkpt lat="44.693" lon="4.83614">
        <ele>286</ele>
        <time>2012-04-01T07:15:55Z</time>
      </trkpt>
      <trkpt lat="44.69312" lon="4.83634">
        <ele>286</ele>
        <time>2012-04-01T07:16:05Z</time>
      </trkpt>
      <trkpt lat="44.69323" lon="4.83657">
        <ele>289</ele>
        <time>2012-04-01T07:16:16Z</time>
      </trkpt>
      <trkpt lat="44.69329" lon="4.83684">
        <ele>290</ele>
        <time>2012-04-01T07:16:26Z</time>
      </trkpt>
      <trkpt lat="44.69331" lon="4.83721">
        <ele>290</ele>
        <time>2012-04-01T07:16:36Z</time>
      </trkpt>
      <trkpt lat="44.69336" lon="4.83752">
        <ele>292</ele>
        <time>2012-04-01T07:16:46Z</time>
      </trkpt>
      <trkpt lat="44.69343" lon="4.83777">
        <ele>296</ele>
        <time>2012-04-01T07:16:56Z</time>
      </trkpt>
      <trkpt lat="44.69352" lon="4.83802">
        <ele>297</ele>
        <time>2012-04-01T07:17:06Z</time>
      </trkpt>
      <trkpt lat="44.69364" lon="4.8383">
        <ele>297</ele>
        <time>2012-04-01T07:17:16Z</time>
      </trkpt>
      <trkpt lat="44.69364" lon="4.83864">
        <ele>297</ele>
        <time>2012-04-01T07:17:26Z</time>
      </trkpt>
      <trkpt lat="44.69344" lon="4.83881">
        <ele>297</ele>
        <time>2012-04-01T07:17:36Z</time>
      </trkpt>
      <trkpt lat="44.69318" lon="4.83887">
        <ele>297</ele>
        <time>2012-04-01T07:17:47Z</time>
      </trkpt>
      <trkpt lat="44.69294" lon="4.83889">
        <ele>297</ele>
        <time>2012-04-01T07:17:58Z</time>
      </trkpt>
      <trkpt lat="44.69276" lon="4.83887">
        <ele>297</ele>
        <time>2012-04-01T07:18:08Z</time>
      </trkpt>
      <trkpt lat="44.69259" lon="4.83899">
        <ele>302</ele>
        <time>2012-04-01T07:18:18Z</time>
      </trkpt>
      <trkpt lat="44.69245" lon="4.83908">
        <ele>305</ele>
        <time>2012-04-01T07:18:28Z</time>
      </trkpt>
      <trkpt lat="44.69232" lon="4.8392">
        <ele>307</ele>
        <time>2012-04-01T07:18:39Z</time>
      </trkpt>
      <trkpt lat="44.6922" lon="4.83938">
        <ele>308</ele>
        <time>2012-04-01T07:18:49Z</time>
      </trkpt>
      <trkpt lat="44.69208" lon="4.83957">
        <ele>310</ele>
        <time>2012-04-01T07:18:59Z</time>
      </trkpt>
      <trkpt lat="44.69188" lon="4.83973">
        <ele>317</ele>
        <time>2012-04-01T07:19:10Z</time>
      </trkpt>
      <trkpt lat="44.69167" lon="4.83978">
        <ele>318</ele>
        <time>2012-04-01T07:19:20Z</time>
      </trkpt>
      <trkpt lat="44.69148" lon="4.83986">
        <ele>318</ele>
        <time>2012-04-01T07:19:30Z</time>
      </trkpt>
      <trkpt lat="44.69129" lon="4.84003">
        <ele>318</ele>
        <time>2012-04-01T07:19:40Z</time>
      </trkpt>
      <trkpt lat="44.69124" lon="4.84037">
        <ele>318</ele>
        <time>2012-04-01T07:19:50Z</time>
      </trkpt>
      <trkpt lat="44.69133" lon="4.84068">
        <ele>324</ele>
        <time>2012-04-01T07:20:00Z</time>
      </trkpt>
      <trkpt lat="44.69146" lon="4.84097">
        <ele>329</ele>
        <time>2012-04-01T07:20:10Z</time>
      </trkpt>
      <trkpt lat="44.69165" lon="4.84126">
        <ele>332</ele>
        <time>2012-04-01T07:20:20Z</time>
      </trkpt>
      <trkpt lat="44.69185" lon="4.84163">
        <ele>332</ele>
        <time>2012-04-01T07:20:30Z</time>
      </trkpt>
      <trkpt lat="44.69208" lon="4.84195">
        <ele>333</ele>
        <time>2012-04-01T07:20:40Z</time>
      </trkpt>
      <trkpt lat="44.69226" lon="4.8423">
        <ele>333</ele>
        <time>2012-04-01T07:20:51Z</time>
      </trkpt>
      <trkpt lat="44.69247" lon="4.84258">
        <ele>333</ele>
        <time>2012-04-01T07:21:01Z</time>
      </trkpt>
      <trkpt lat="44.69275" lon="4.84275">
        <ele>329</ele>
        <time>2012-04-01T07:21:11Z</time>
      </trkpt>
      <trkpt lat="44.69306" lon="4.84278">
        <ele>323</ele>
        <time>2012-04-01T07:21:21Z</time>
      </trkpt>
      <trkpt lat="44.69332" lon="4.84286">
        <ele>323</ele>
        <time>2012-04-01T07:21:31Z</time>
      </trkpt>
      <trkpt lat="44.69359" lon="4.84312">
        <ele>323</ele>
        <time>2012-04-01T07:21:41Z</time>
      </trkpt>
      <trkpt lat="44.69378" lon="4.84345">
        <ele>323</ele>
        <time>2012-04-01T07:21:51Z</time>
      </trkpt>
      <trkpt lat="44.69409" lon="4.84351">
        <ele>323</ele>
        <time>2012-04-01T07:22:01Z</time>
      </trkpt>
      <trkpt lat="44.6944" lon="4.84335">
        <ele>322</ele>
        <time>2012-04-01T07:22:11Z</time>
      </trkpt>
      <trkpt lat="44.69464" lon="4.84315">
        <ele>319</ele>
        <time>2012-04-01T07:22:21Z</time>
      </trkpt>
      <trkpt lat="44.69486" lon="4.84299">
        <ele>315</ele>
        <time>2012-04-01T07:22:31Z</time>
      </trkpt>
      <trkpt lat="44.69498" lon="4.84322">
        <ele>310</ele>
        <time>2012-04-01T07:22:41Z</time>
      </trkpt>
      <trkpt lat="44.69524" lon="4.84324">
        <ele>306</ele>
        <time>2012-04-01T07:22:51Z</time>
      </trkpt>
      <trkpt lat="44.69552" lon="4.84326">
        <ele>305</ele>
        <time>2012-04-01T07:23:01Z</time>
      </trkpt>
      <trkpt lat="44.69582" lon="4.84328">
        <ele>303</ele>
        <time>2012-04-01T07:23:11Z</time>
      </trkpt>
      <trkpt lat="44.69617" lon="4.84324">
        <ele>300</ele>
        <time>2012-04-01T07:23:22Z</time>
      </trkpt>
      <trkpt lat="44.69645" lon="4.84317">
        <ele>300</ele>
        <time>2012-04-01T07:23:32Z</time>
      </trkpt>
      <trkpt lat="44.6967" lon="4.84309">
        <ele>300</ele>
        <time>2012-04-01T07:23:43Z</time>
      </trkpt>
      <trkpt lat="44.69695" lon="4.84298">
        <ele>297</ele>
        <time>2012-04-01T07:23:53Z</time>
      </trkpt>
      <trkpt lat="44.69715" lon="4.84288">
        <ele>290</ele>
        <time>2012-04-01T07:24:03Z</time>
      </trkpt>
      <trkpt lat="44.69739" lon="4.84279">
        <ele>282</ele>
        <time>2012-04-01T07:24:13Z</time>
      </trkpt>
      <trkpt lat="44.69763" lon="4.84269">
        <ele>273</ele>
        <time>2012-04-01T07:24:23Z</time>
      </trkpt>
      <trkpt lat="44.69783" lon="4.8426">
        <ele>264</ele>
        <time>2012-04-01T07:24:33Z</time>
      </trkpt>
      <trkpt lat="44.69804" lon="4.84253">
        <ele>254</ele>
        <time>2012-04-01T07:24:43Z</time>
      </trkpt>
      <trkpt lat="44.6982" lon="4.84239">
        <ele>249</ele>
        <time>2012-04-01T07:24:53Z</time>
      </trkpt>
      <trkpt lat="44.69844" lon="4.84233">
        <ele>242</ele>
        <time>2012-04-01T07:25:03Z</time>
      </trkpt>
      <trkpt lat="44.69864" lon="4.84224">
        <ele>236</ele>
        <time>2012-04-01T07:25:13Z</time>
      </trkpt>
      <trkpt lat="44.69886" lon="4.84208">
        <ele>233</ele>
        <time>2012-04-01T07:25:23Z</time>
      </trkpt>
      <trkpt lat="44.69905" lon="4.84201">
        <ele>227</ele>
        <time>2012-04-01T07:25:33Z</time>
      </trkpt>
      <trkpt lat="44.69915" lon="4.84174">
        <ele>217</ele>
        <time>2012-04-01T07:25:43Z</time>
      </trkpt>
      <trkpt lat="44.69936" lon="4.84139">
        <ele>207</ele>
        <time>2012-04-01T07:25:53Z</time>
      </trkpt>
      <trkpt lat="44.69965" lon="4.84116">
        <ele>197</ele>
        <time>2012-04-01T07:26:03Z</time>
      </trkpt>
      <trkpt lat="44.69975" lon="4.84162">
        <ele>189</ele>
        <time>2012-04-01T07:26:13Z</time>
      </trkpt>
      <trkpt lat="44.69986" lon="4.84204">
        <ele>185</ele>
        <time>2012-04-01T07:26:23Z</time>
      </trkpt>
      <trkpt lat="44.70005" lon="4.84242">
        <ele>183</ele>
        <time>2012-04-01T07:26:34Z</time>
      </trkpt>
      <trkpt lat="44.70028" lon="4.84267">
        <ele>183</ele>
        <time>2012-04-01T07:26:44Z</time>
      </trkpt>
      <trkpt lat="44.70048" lon="4.84292">
        <ele>184</ele>
        <time>2012-04-01T07:26:54Z</time>
      </trkpt>
      <trkpt lat="44.70076" lon="4.84276">
        <ele>186</ele>
        <time>2012-04-01T07:27:04Z</time>
      </trkpt>
      <trkpt lat="44.70101" lon="4.84247">
        <ele>188</ele>
        <time>2012-04-01T07:27:14Z</time>
      </trkpt>
      <trkpt lat="44.70132" lon="4.84229">
        <ele>189</ele>
        <time>2012-04-01T07:27:24Z</time>
      </trkpt>
      <trkpt lat="44.70139" lon="4.84187">
        <ele>189</ele>
        <time>2012-04-01T07:27:34Z</time>
      </trkpt>
      <trkpt lat="44.70156" lon="4.8416">
        <ele>182</ele>
        <time>2012-04-01T07:27:44Z</time>
      </trkpt>
      <trkpt lat="44.70182" lon="4.84136">
        <ele>173</ele>
        <time>2012-04-01T07:27:54Z</time>
      </trkpt>
      <trkpt lat="44.70216" lon="4.84132">
        <ele>166</ele>
        <time>2012-04-01T07:28:04Z</time>
      </trkpt>
      <trkpt lat="44.70243" lon="4.8415">
        <ele>162</ele>
        <time>2012-04-01T07:28:14Z</time>
      </trkpt>
      <trkpt lat="44.70253" lon="4.84192">
        <ele>158</ele>
        <time>2012-04-01T07:28:24Z</time>
      </trkpt>
      <trkpt lat="44.70257" lon="4.84233">
        <ele>158</ele>
        <time>2012-04-01T07:28:34Z</time>
      </trkpt>
      <trkpt lat="44.70257" lon="4.84276">
        <ele>158</ele>
        <time>2012-04-01T07:28:44Z</time>
      </trkpt>
      <trkpt lat="44.70263" lon="4.84319">
        <ele>158</ele>
        <time>2012-04-01T07:28:54Z</time>
      </trkpt>
      <trkpt lat="44.70284" lon="4.84346">
        <ele>156</ele>
        <time>2012-04-01T07:29:04Z</time>
      </trkpt>
      <trkpt lat="44.70311" lon="4.84367">
        <ele>159</ele>
        <time>2012-04-01T07:29:14Z</time>
      </trkpt>
      <trkpt lat="44.70334" lon="4.84378">
        <ele>161</ele>
        <time>2012-04-01T07:29:24Z</time>
      </trkpt>
      <trkpt lat="44.70357" lon="4.84381">
        <ele>165</ele>
        <time>2012-04-01T07:29:34Z</time>
      </trkpt>
      <trkpt lat="44.70381" lon="4.84354">
        <ele>169</ele>
        <time>2012-04-01T07:29:45Z</time>
      </trkpt>
      <trkpt lat="44.704" lon="4.84326">
        <ele>171</ele>
        <time>2012-04-01T07:29:56Z</time>
      </trkpt>
      <trkpt lat="44.70423" lon="4.84338">
        <ele>171</ele>
        <time>2012-04-01T07:30:06Z</time>
      </trkpt>
      <trkpt lat="44.70445" lon="4.84355">
        <ele>171</ele>
        <time>2012-04-01T07:30:16Z</time>
      </trkpt>
      <trkpt lat="44.70453" lon="4.84388">
        <ele>170</ele>
        <time>2012-04-01T07:30:26Z</time>
      </trkpt>
      <trkpt lat="44.70447" lon="4.84427">
        <ele>170</ele>
        <time>2012-04-01T07:30:36Z</time>
      </trkpt>
      <trkpt lat="44.7047" lon="4.84435">
        <ele>173</ele>
        <time>2012-04-01T07:30:46Z</time>
      </trkpt>
      <trkpt lat="44.70494" lon="4.84438">
        <ele>179</ele>
        <time>2012-04-01T07:30:56Z</time>
      </trkpt>
      <trkpt lat="44.70516" lon="4.84449">
        <ele>185</ele>
        <time>2012-04-01T07:31:06Z</time>
      </trkpt>
      <trkpt lat="44.70536" lon="4.84461">
        <ele>190</ele>
        <time>2012-04-01T07:31:17Z</time>
      </trkpt>
      <trkpt lat="44.70553" lon="4.84476">
        <ele>190</ele>
        <time>2012-04-01T07:31:27Z</time>
      </trkpt>
      <trkpt lat="44.70572" lon="4.8449">
        <ele>190</ele>
        <time>2012-04-01T07:31:37Z</time>
      </trkpt>
      <trkpt lat="44.70589" lon="4.84501">
        <ele>193</ele>
        <time>2012-04-01T07:31:50Z</time>
      </trkpt>
      <trkpt lat="44.70589" lon="4.845">
        <ele>193</ele>
        <time>2012-04-01T07:32:03Z</time>
      </trkpt>
      <trkpt lat="44.70591" lon="4.84499">
        <ele>191</ele>
        <time>2012-04-01T07:32:16Z</time>
      </trkpt>
      <trkpt lat="44.70595" lon="4.84499">
        <ele>191</ele>
        <time>2012-04-01T07:32:27Z</time>
      </trkpt>
      <trkpt lat="44.70611" lon="4.84506">
        <ele>192</ele>
        <time>2012-04-01T07:32:37Z</time>
      </trkpt>
      <trkpt lat="44.70628" lon="4.8451">
        <ele>201</ele>
        <time>2012-04-01T07:32:47Z</time>
      </trkpt>
      <trkpt lat="44.70646" lon="4.84516">
        <ele>201</ele>
        <time>2012-04-01T07:32:57Z</time>
      </trkpt>
      <trkpt lat="44.70665" lon="4.84524">
        <ele>202</ele>
        <time>2012-04-01T07:33:07Z</time>
      </trkpt>
      <trkpt lat="44.70683" lon="4.84523">
        <ele>206</ele>
        <time>2012-04-01T07:33:17Z</time>
      </trkpt>
      <trkpt lat="44.707" lon="4.84524">
        <ele>212</ele>
        <time>2012-04-01T07:33:27Z</time>
      </trkpt>
      <trkpt lat="44.70715" lon="4.84524">
        <ele>220</ele>
        <time>2012-04-01T07:33:37Z</time>
      </trkpt>
      <trkpt lat="44.70729" lon="4.8452">
        <ele>222</ele>
        <time>2012-04-01T07:33:47Z</time>
      </trkpt>
      <trkpt lat="44.70742" lon="4.84521">
        <ele>224</ele>
        <time>2012-04-01T07:33:58Z</time>
      </trkpt>
      <trkpt lat="44.70755" lon="4.84519">
        <ele>225</ele>
        <time>2012-04-01T07:34:08Z</time>
      </trkpt>
      <trkpt lat="44.70768" lon="4.84518">
        <ele>227</ele>
        <time>2012-04-01T07:34:18Z</time>
      </trkpt>
      <trkpt lat="44.70782" lon="4.84518">
        <ele>228</ele>
        <time>2012-04-01T07:34:29Z</time>
      </trkpt>
      <trkpt lat="44.70794" lon="4.84514">
        <ele>228</ele>
        <time>2012-04-01T07:34:39Z</time>
      </trkpt>
      <trkpt lat="44.70807" lon="4.8451">
        <ele>233</ele>
        <time>2012-04-01T07:34:50Z</time>
      </trkpt>
      <trkpt lat="44.7082" lon="4.84508">
        <ele>238</ele>
        <time>2012-04-01T07:35:00Z</time>
      </trkpt>
      <trkpt lat="44.70833" lon="4.84503">
        <ele>239</ele>
        <time>2012-04-01T07:35:10Z</time>
      </trkpt>
      <trkpt lat="44.70845" lon="4.84497">
        <ele>239</ele>
        <time>2012-04-01T07:35:21Z</time>
      </trkpt>
      <trkpt lat="44.70855" lon="4.84494">
        <ele>239</ele>
        <time>2012-04-01T07:35:32Z</time>
      </trkpt>
      <trkpt lat="44.70866" lon="4.84492">
        <ele>246</ele>
        <time>2012-04-01T07:35:42Z</time>
      </trkpt>
      <trkpt lat="44.70877" lon="4.84494">
        <ele>249</ele>
        <time>2012-04-01T07:35:52Z</time>
      </trkpt>
      <trkpt lat="44.7089" lon="4.845">
        <ele>252</ele>
        <time>2012-04-01T07:36:02Z</time>
      </trkpt>
      <trkpt lat="44.70899" lon="4.84491">
        <ele>252</ele>
        <time>2012-04-01T07:36:13Z</time>
      </trkpt>
      <trkpt lat="44.70907" lon="4.84488">
        <ele>258</ele>
        <time>2012-04-01T07:36:23Z</time>
      </trkpt>
      <trkpt lat="44.70915" lon="4.84491">
        <ele>261</ele>
        <time>2012-04-01T07:36:35Z</time>
      </trkpt>
      <trkpt lat="44.70922" lon="4.84493">
        <ele>261</ele>
        <time>2012-04-01T07:36:48Z</time>
      </trkpt>
      <trkpt lat="44.70928" lon="4.84494">
        <ele>264</ele>
        <time>2012-04-01T07:37:02Z</time>
      </trkpt>
      <trkpt lat="44.70932" lon="4.84499">
        <ele>268</ele>
        <time>2012-04-01T07:37:12Z</time>
      </trkpt>
      <trkpt lat="44.70937" lon="4.84498">
        <ele>271</ele>
        <time>2012-04-01T07:37:22Z</time>
      </trkpt>
      <trkpt lat="44.70946" lon="4.84501">
        <ele>271</ele>
        <time>2012-04-01T07:37:33Z</time>
      </trkpt>
      <trkpt lat="44.70955" lon="4.84496">
        <ele>274</ele>
        <time>2012-04-01T07:37:45Z</time>
      </trkpt>
      <trkpt lat="44.70961" lon="4.84474">
        <ele>276</ele>
        <time>2012-04-01T07:37:55Z</time>
      </trkpt>
      <trkpt lat="44.70956" lon="4.84445">
        <ele>281</ele>
        <time>2012-04-01T07:38:05Z</time>
      </trkpt>
      <trkpt lat="44.70938" lon="4.84417">
        <ele>283</ele>
        <time>2012-04-01T07:38:16Z</time>
      </trkpt>
      <trkpt lat="44.70926" lon="4.84377">
        <ele>284</ele>
        <time>2012-04-01T07:38:27Z</time>
      </trkpt>
      <trkpt lat="44.70949" lon="4.84344">
        <ele>285</ele>
        <time>2012-04-01T07:38:38Z</time>
      </trkpt>
      <trkpt lat="44.70971" lon="4.8432">
        <ele>285</ele>
        <time>2012-04-01T07:38:48Z</time>
      </trkpt>
      <trkpt lat="44.70964" lon="4.84285">
        <ele>285</ele>
        <time>2012-04-01T07:38:58Z</time>
      </trkpt>
      <trkpt lat="44.70959" lon="4.84247">
        <ele>285</ele>
        <time>2012-04-01T07:39:08Z</time>
      </trkpt>
      <trkpt lat="44.70975" lon="4.84212">
        <ele>285</ele>
        <time>2012-04-01T07:39:18Z</time>
      </trkpt>
      <trkpt lat="44.71002" lon="4.84189">
        <ele>285</ele>
        <time>2012-04-01T07:39:28Z</time>
      </trkpt>
      <trkpt lat="44.71033" lon="4.84193">
        <ele>283</ele>
        <time>2012-04-01T07:39:38Z</time>
      </trkpt>
      <trkpt lat="44.71051" lon="4.8417">
        <ele>278</ele>
        <time>2012-04-01T07:39:49Z</time>
      </trkpt>
      <trkpt lat="44.71062" lon="4.8413">
        <ele>275</ele>
        <time>2012-04-01T07:39:59Z</time>
      </trkpt>
      <trkpt lat="44.7108" lon="4.84111">
        <ele>275</ele>
        <time>2012-04-01T07:40:09Z</time>
      </trkpt>
      <trkpt lat="44.71105" lon="4.84102">
        <ele>275</ele>
        <time>2012-04-01T07:40:19Z</time>
      </trkpt>
      <trkpt lat="44.71117" lon="4.84066">
        <ele>277</ele>
        <time>2012-04-01T07:40:29Z</time>
      </trkpt>
      <trkpt lat="44.71129" lon="4.84055">
        <ele>277</ele>
        <time>2012-04-01T07:40:39Z</time>
      </trkpt>
      <trkpt lat="44.7114" lon="4.8408">
        <ele>277</ele>
        <time>2012-04-01T07:40:49Z</time>
      </trkpt>
      <trkpt lat="44.71144" lon="4.84102">
        <ele>277</ele>
        <time>2012-04-01T07:40:59Z</time>
      </trkpt>
      <trkpt lat="44.71151" lon="4.84124">
        <ele>280</ele>
        <time>2012-04-01T07:41:10Z</time>
      </trkpt>
      <trkpt lat="44.71156" lon="4.84142">
        <ele>283</ele>
        <time>2012-04-01T07:41:20Z</time>
      </trkpt>
      <trkpt lat="44.71157" lon="4.84159">
        <ele>287</ele>
        <time>2012-04-01T07:41:30Z</time>
      </trkpt>
      <trkpt lat="44.71162" lon="4.84177">
        <ele>292</ele>
        <time>2012-04-01T07:41:40Z</time>
      </trkpt>
      <trkpt lat="44.71168" lon="4.84192">
        <ele>296</ele>
        <time>2012-04-01T07:41:50Z</time>
      </trkpt>
      <trkpt lat="44.71169" lon="4.84208">
        <ele>299</ele>
        <time>2012-04-01T07:42:01Z</time>
      </trkpt>
      <trkpt lat="44.7117" lon="4.84222">
        <ele>302</ele>
        <time>2012-04-01T07:42:11Z</time>
      </trkpt>
      <trkpt lat="44.71177" lon="4.84231">
        <ele>302</ele>
        <time>2012-04-01T07:42:21Z</time>
      </trkpt>
      <trkpt lat="44.71179" lon="4.84241">
        <ele>302</ele>
        <time>2012-04-01T07:42:31Z</time>
      </trkpt>
      <trkpt lat="44.71179" lon="4.84255">
        <ele>306</ele>
        <time>2012-04-01T07:42:42Z</time>
      </trkpt>
      <trkpt lat="44.71179" lon="4.84268">
        <ele>313</ele>
        <time>2012-04-01T07:42:53Z</time>
      </trkpt>
      <trkpt lat="44.71184" lon="4.84272">
        <ele>318</ele>
        <time>2012-04-01T07:43:03Z</time>
      </trkpt>
      <trkpt lat="44.71186" lon="4.84281">
        <ele>324</ele>
        <time>2012-04-01T07:43:13Z</time>
      </trkpt>
      <trkpt lat="44.71193" lon="4.84288">
        <ele>327</ele>
        <time>2012-04-01T07:43:24Z</time>
      </trkpt>
      <trkpt lat="44.71199" lon="4.84295">
        <ele>331</ele>
        <time>2012-04-01T07:43:35Z</time>
      </trkpt>
      <trkpt lat="44.71207" lon="4.84302">
        <ele>334</ele>
        <time>2012-04-01T07:43:45Z</time>
      </trkpt>
      <trkpt lat="44.71215" lon="4.84309">
        <ele>338</ele>
        <time>2012-04-01T07:43:55Z</time>
      </trkpt>
      <trkpt lat="44.71223" lon="4.84319">
        <ele>340</ele>
        <time>2012-04-01T07:44:05Z</time>
      </trkpt>
      <trkpt lat="44.71215" lon="4.84331">
        <ele>340</ele>
        <time>2012-04-01T07:44:15Z</time>
      </trkpt>
      <trkpt lat="44.71201" lon="4.8434">
        <ele>344</ele>
        <time>2012-04-01T07:44:26Z</time>
      </trkpt>
      <trkpt lat="44.7119" lon="4.84356">
        <ele>351</ele>
        <time>2012-04-01T07:44:36Z</time>
      </trkpt>
      <trkpt lat="44.71183" lon="4.84372">
        <ele>355</ele>
        <time>2012-04-01T07:44:47Z</time>
      </trkpt>
      <trkpt lat="44.7118" lon="4.84383">
        <ele>356</ele>
        <time>2012-04-01T07:44:57Z</time>
      </trkpt>
      <trkpt lat="44.71173" lon="4.84397">
        <ele>357</ele>
        <time>2012-04-01T07:45:09Z</time>
      </trkpt>
      <trkpt lat="44.71174" lon="4.8441">
        <ele>362</ele>
        <time>2012-04-01T07:45:21Z</time>
      </trkpt>
      <trkpt lat="44.71168" lon="4.84422">
        <ele>371</ele>
        <time>2012-04-01T07:45:33Z</time>
      </trkpt>
      <trkpt lat="44.71168" lon="4.84434">
        <ele>373</ele>
        <time>2012-04-01T07:45:45Z</time>
      </trkpt>
      <trkpt lat="44.71168" lon="4.84445">
        <ele>373</ele>
        <time>2012-04-01T07:45:55Z</time>
      </trkpt>
      <trkpt lat="44.71167" lon="4.84455">
        <ele>374</ele>
        <time>2012-04-01T07:46:05Z</time>
      </trkpt>
      <trkpt lat="44.71167" lon="4.84463">
        <ele>375</ele>
        <time>2012-04-01T07:46:15Z</time>
      </trkpt>
      <trkpt lat="44.71164" lon="4.84473">
        <ele>375</ele>
        <time>2012-04-01T07:46:25Z</time>
      </trkpt>
      <trkpt lat="44.71161" lon="4.84488">
        <ele>380</ele>
        <time>2012-04-01T07:46:35Z</time>
      </trkpt>
      <trkpt lat="44.71159" lon="4.84504">
        <ele>386</ele>
        <time>2012-04-01T07:46:45Z</time>
      </trkpt>
      <trkpt lat="44.71156" lon="4.84521">
        <ele>392</ele>
        <time>2012-04-01T07:46:55Z</time>
      </trkpt>
      <trkpt lat="44.71158" lon="4.84538">
        <ele>396</ele>
        <time>2012-04-01T07:47:05Z</time>
      </trkpt>
      <trkpt lat="44.71155" lon="4.84554">
        <ele>400</ele>
        <time>2012-04-01T07:47:15Z</time>
      </trkpt>
      <trkpt lat="44.71153" lon="4.84568">
        <ele>407</ele>
        <time>2012-04-01T07:47:25Z</time>
      </trkpt>
      <trkpt lat="44.71152" lon="4.84586">
        <ele>409</ele>
        <time>2012-04-01T07:47:36Z</time>
      </trkpt>
      <trkpt lat="44.71151" lon="4.846">
        <ele>411</ele>
        <time>2012-04-01T07:47:46Z</time>
      </trkpt>
      <trkpt lat="44.71151" lon="4.84615">
        <ele>414</ele>
        <time>2012-04-01T07:47:56Z</time>
      </trkpt>
      <trkpt lat="44.71149" lon="4.84628">
        <ele>416</ele>
        <time>2012-04-01T07:48:06Z</time>
      </trkpt>
      <trkpt lat="44.71149" lon="4.84645">
        <ele>416</ele>
        <time>2012-04-01T07:48:17Z</time>
      </trkpt>
      <trkpt lat="44.71148" lon="4.84659">
        <ele>417</ele>
        <time>2012-04-01T07:48:27Z</time>
      </trkpt>
      <trkpt lat="44.71146" lon="4.84675">
        <ele>418</ele>
        <time>2012-04-01T07:48:37Z</time>
      </trkpt>
      <trkpt lat="44.71146" lon="4.84691">
        <ele>419</ele>
        <time>2012-04-01T07:48:47Z</time>
      </trkpt>
      <trkpt lat="44.71144" lon="4.84707">
        <ele>421</ele>
        <time>2012-04-01T07:48:57Z</time>
      </trkpt>
      <trkpt lat="44.7115" lon="4.84711">
        <ele>425</ele>
        <time>2012-04-01T07:49:09Z</time>
      </trkpt>
      <trkpt lat="44.71157" lon="4.84712">
        <ele>426</ele>
        <time>2012-04-01T07:49:20Z</time>
      </trkpt>
      <trkpt lat="44.71163" lon="4.84712">
        <ele>432</ele>
        <time>2012-04-01T07:49:33Z</time>
      </trkpt>
      <trkpt lat="44.71171" lon="4.84713">
        <ele>437</ele>
        <time>2012-04-01T07:49:43Z</time>
      </trkpt>
      <trkpt lat="44.71178" lon="4.84707">
        <ele>438</ele>
        <time>2012-04-01T07:49:53Z</time>
      </trkpt>
      <trkpt lat="44.71184" lon="4.84717">
        <ele>441</ele>
        <time>2012-04-01T07:50:05Z</time>
      </trkpt>
      <trkpt lat="44.71192" lon="4.84724">
        <ele>442</ele>
        <time>2012-04-01T07:50:16Z</time>
      </trkpt>
      <trkpt lat="44.71196" lon="4.84734">
        <ele>447</ele>
        <time>2012-04-01T07:50:27Z</time>
      </trkpt>
      <trkpt lat="44.712" lon="4.8474">
        <ele>455</ele>
        <time>2012-04-01T07:50:37Z</time>
      </trkpt>
      <trkpt lat="44.71209" lon="4.84748">
        <ele>457</ele>
        <time>2012-04-01T07:50:48Z</time>
      </trkpt>
      <trkpt lat="44.7121" lon="4.84765">
        <ele>457</ele>
        <time>2012-04-01T07:50:58Z</time>
      </trkpt>
      <trkpt lat="44.71201" lon="4.84794">
        <ele>459</ele>
        <time>2012-04-01T07:51:08Z</time>
      </trkpt>
      <trkpt lat="44.71208" lon="4.84827">
        <ele>459</ele>
        <time>2012-04-01T07:51:18Z</time>
      </trkpt>
      <trkpt lat="44.71207" lon="4.84864">
        <ele>459</ele>
        <time>2012-04-01T07:51:28Z</time>
      </trkpt>
      <trkpt lat="44.71204" lon="4.84905">
        <ele>459</ele>
        <time>2012-04-01T07:51:38Z</time>
      </trkpt>
      <trkpt lat="44.71207" lon="4.84938">
        <ele>457</ele>
        <time>2012-04-01T07:51:48Z</time>
      </trkpt>
      <trkpt lat="44.71211" lon="4.84976">
        <ele>454</ele>
        <time>2012-04-01T07:51:58Z</time>
      </trkpt>
      <trkpt lat="44.71222" lon="4.8501">
        <ele>452</ele>
        <time>2012-04-01T07:52:08Z</time>
      </trkpt>
      <trkpt lat="44.71236" lon="4.85041">
        <ele>450</ele>
        <time>2012-04-01T07:52:18Z</time>
      </trkpt>
      <trkpt lat="44.71244" lon="4.85078">
        <ele>447</ele>
        <time>2012-04-01T07:52:28Z</time>
      </trkpt>
      <trkpt lat="44.71247" lon="4.85124">
        <ele>444</ele>
        <time>2012-04-01T07:52:38Z</time>
      </trkpt>
      <trkpt lat="44.71222" lon="4.85154">
        <ele>444</ele>
        <time>2012-04-01T07:52:48Z</time>
      </trkpt>
      <trkpt lat="44.7121" lon="4.85195">
        <ele>442</ele>
        <time>2012-04-01T07:52:58Z</time>
      </trkpt>
      <trkpt lat="44.71212" lon="4.85239">
        <ele>438</ele>
        <time>2012-04-01T07:53:08Z</time>
      </trkpt>
      <trkpt lat="44.71215" lon="4.85278">
        <ele>433</ele>
        <time>2012-04-01T07:53:18Z</time>
      </trkpt>
      <trkpt lat="44.71223" lon="4.8532">
        <ele>433</ele>
        <time>2012-04-01T07:53:29Z</time>
      </trkpt>
      <trkpt lat="44.71232" lon="4.85351">
        <ele>433</ele>
        <time>2012-04-01T07:53:39Z</time>
      </trkpt>
      <trkpt lat="44.71241" lon="4.85382">
        <ele>433</ele>
        <time>2012-04-01T07:53:49Z</time>
      </trkpt>
      <trkpt lat="44.71252" lon="4.85408">
        <ele>436</ele>
        <time>2012-04-01T07:53:59Z</time>
      </trkpt>
      <trkpt lat="44.71259" lon="4.85432">
        <ele>436</ele>
        <time>2012-04-01T07:54:09Z</time>
      </trkpt>
      <trkpt lat="44.71256" lon="4.8546">
        <ele>442</ele>
        <time>2012-04-01T07:54:19Z</time>
      </trkpt>
      <trkpt lat="44.71256" lon="4.85491">
        <ele>444</ele>
        <time>2012-04-01T07:54:29Z</time>
      </trkpt>
      <trkpt lat="44.71255" lon="4.85524">
        <ele>444</ele>
        <time>2012-04-01T07:54:39Z</time>
      </trkpt>
      <trkpt lat="44.71255" lon="4.8556">
        <ele>444</ele>
        <time>2012-04-01T07:54:49Z</time>
      </trkpt>
      <trkpt lat="44.71271" lon="4.85576">
        <ele>440</ele>
        <time>2012-04-01T07:54:59Z</time>
      </trkpt>
      <trkpt lat="44.7128" lon="4.85611">
        <ele>439</ele>
        <time>2012-04-01T07:55:09Z</time>
      </trkpt>
      <trkpt lat="44.71281" lon="4.85645">
        <ele>439</ele>
        <time>2012-04-01T07:55:19Z</time>
      </trkpt>
      <trkpt lat="44.71284" lon="4.85672">
        <ele>439</ele>
        <time>2012-04-01T07:55:29Z</time>
      </trkpt>
      <trkpt lat="44.71304" lon="4.85685">
        <ele>439</ele>
        <time>2012-04-01T07:55:39Z</time>
      </trkpt>
      <trkpt lat="44.71321" lon="4.8571">
        <ele>443</ele>
        <time>2012-04-01T07:55:49Z</time>
      </trkpt>
      <trkpt lat="44.71336" lon="4.85736">
        <ele>448</ele>
        <time>2012-04-01T07:55:59Z</time>
      </trkpt>
      <trkpt lat="44.7136" lon="4.85752">
        <ele>448</ele>
        <time>2012-04-01T07:56:09Z</time>
      </trkpt>
      <trkpt lat="44.71392" lon="4.85754">
        <ele>448</ele>
        <time>2012-04-01T07:56:19Z</time>
      </trkpt>
      <trkpt lat="44.71422" lon="4.85762">
        <ele>448</ele>
        <time>2012-04-01T07:56:29Z</time>
      </trkpt>
      <trkpt lat="44.71452" lon="4.85773">
        <ele>448</ele>
        <time>2012-04-01T07:56:39Z</time>
      </trkpt>
      <trkpt lat="44.71486" lon="4.85782">
        <ele>448</ele>
        <time>2012-04-01T07:56:50Z</time>
      </trkpt>
      <trkpt lat="44.71513" lon="4.85788">
        <ele>444</ele>
        <time>2012-04-01T07:57:00Z</time>
      </trkpt>
      <trkpt lat="44.71538" lon="4.85794">
        <ele>435</ele>
        <time>2012-04-01T07:57:10Z</time>
      </trkpt>
      <trkpt lat="44.71564" lon="4.85798">
        <ele>427</ele>
        <time>2012-04-01T07:57:20Z</time>
      </trkpt>
      <trkpt lat="44.71592" lon="4.85807">
        <ele>417</ele>
        <time>2012-04-01T07:57:30Z</time>
      </trkpt>
      <trkpt lat="44.71621" lon="4.8581">
        <ele>411</ele>
        <time>2012-04-01T07:57:40Z</time>
      </trkpt>
      <trkpt lat="44.71655" lon="4.85805">
        <ele>406</ele>
        <time>2012-04-01T07:57:50Z</time>
      </trkpt>
      <trkpt lat="44.71686" lon="4.85802">
        <ele>403</ele>
        <time>2012-04-01T07:58:00Z</time>
      </trkpt>
      <trkpt lat="44.71711" lon="4.85808">
        <ele>403</ele>
        <time>2012-04-01T07:58:10Z</time>
      </trkpt>
      <trkpt lat="44.71733" lon="4.85815">
        <ele>404</ele>
        <time>2012-04-01T07:58:20Z</time>
      </trkpt>
      <trkpt lat="44.71749" lon="4.85829">
        <ele>409</ele>
        <time>2012-04-01T07:58:30Z</time>
      </trkpt>
      <trkpt lat="44.71767" lon="4.85854">
        <ele>412</ele>
        <time>2012-04-01T07:58:40Z</time>
      </trkpt>
      <trkpt lat="44.71792" lon="4.85866">
        <ele>413</ele>
        <time>2012-04-01T07:58:50Z</time>
      </trkpt>
      <trkpt lat="44.71817" lon="4.85875">
        <ele>415</ele>
        <time>2012-04-01T07:59:00Z</time>
      </trkpt>
      <trkpt lat="44.71837" lon="4.85903">
        <ele>415</ele>
        <time>2012-04-01T07:59:10Z</time>
      </trkpt>
      <trkpt lat="44.71861" lon="4.8593">
        <ele>415</ele>
        <time>2012-04-01T07:59:20Z</time>
      </trkpt>
      <trkpt lat="44.71876" lon="4.85972">
        <ele>413</ele>
        <time>2012-04-01T07:59:30Z</time>
      </trkpt>
      <trkpt lat="44.71898" lon="4.86011">
        <ele>408</ele>
        <time>2012-04-01T07:59:40Z</time>
      </trkpt>
      <trkpt lat="44.71916" lon="4.86048">
        <ele>403</ele>
        <time>2012-04-01T07:59:50Z</time>
      </trkpt>
      <trkpt lat="44.71937" lon="4.86078">
        <ele>397</ele>
        <time>2012-04-01T08:00:00Z</time>
      </trkpt>
      <trkpt lat="44.71967" lon="4.86087">
        <ele>391</ele>
        <time>2012-04-01T08:00:10Z</time>
      </trkpt>
      <trkpt lat="44.71989" lon="4.86091">
        <ele>391</ele>
        <time>2012-04-01T08:00:20Z</time>
      </trkpt>
      <trkpt lat="44.71995" lon="4.8609">
        <ele>391</ele>
        <time>2012-04-01T08:00:30Z</time>
      </trkpt>
      <trkpt lat="44.72018" lon="4.86082">
        <ele>391</ele>
        <time>2012-04-01T08:00:40Z</time>
      </trkpt>
      <trkpt lat="44.7204" lon="4.86074">
        <ele>391</ele>
        <time>2012-04-01T08:00:50Z</time>
      </trkpt>
      <trkpt lat="44.72062" lon="4.86062">
        <ele>392</ele>
        <time>2012-04-01T08:01:00Z</time>
      </trkpt>
      <trkpt lat="44.72082" lon="4.86046">
        <ele>394</ele>
        <time>2012-04-01T08:01:10Z</time>
      </trkpt>
      <trkpt lat="44.72105" lon="4.86029">
        <ele>398</ele>
        <time>2012-04-01T08:01:21Z</time>
      </trkpt>
      <trkpt lat="44.72128" lon="4.86015">
        <ele>400</ele>
        <time>2012-04-01T08:01:31Z</time>
      </trkpt>
      <trkpt lat="44.72151" lon="4.86004">
        <ele>405</ele>
        <time>2012-04-01T08:01:41Z</time>
      </trkpt>
      <trkpt lat="44.72176" lon="4.85997">
        <ele>406</ele>
        <time>2012-04-01T08:01:51Z</time>
      </trkpt>
      <trkpt lat="44.72197" lon="4.8599">
        <ele>408</ele>
        <time>2012-04-01T08:02:01Z</time>
      </trkpt>
      <trkpt lat="44.72221" lon="4.85984">
        <ele>413</ele>
        <time>2012-04-01T08:02:11Z</time>
      </trkpt>
      <trkpt lat="44.72242" lon="4.85977">
        <ele>416</ele>
        <time>2012-04-01T08:02:21Z</time>
      </trkpt>
      <trkpt lat="44.72265" lon="4.85968">
        <ele>419</ele>
        <time>2012-04-01T08:02:31Z</time>
      </trkpt>
      <trkpt lat="44.72288" lon="4.85953">
        <ele>420</ele>
        <time>2012-04-01T08:02:41Z</time>
      </trkpt>
      <trkpt lat="44.72309" lon="4.85939">
        <ele>420</ele>
        <time>2012-04-01T08:02:51Z</time>
      </trkpt>
      <trkpt lat="44.72329" lon="4.85927">
        <ele>420</ele>
        <time>2012-04-01T08:03:01Z</time>
      </trkpt>
      <trkpt lat="44.72351" lon="4.85916">
        <ele>420</ele>
        <time>2012-04-01T08:03:11Z</time>
      </trkpt>
      <trkpt lat="44.72373" lon="4.85905">
        <ele>421</ele>
        <time>2012-04-01T08:03:21Z</time>
      </trkpt>
      <trkpt lat="44.72396" lon="4.85889">
        <ele>421</ele>
        <time>2012-04-01T08:03:31Z</time>
      </trkpt>
      <trkpt lat="44.72419" lon="4.85867">
        <ele>421</ele>
        <time>2012-04-01T08:03:41Z</time>
      </trkpt>
      <trkpt lat="44.72438" lon="4.85835">
        <ele>421</ele>
        <time>2012-04-01T08:03:51Z</time>
      </trkpt>
      <trkpt lat="44.72456" lon="4.85798">
        <ele>423</ele>
        <time>2012-04-01T08:04:01Z</time>
      </trkpt>
      <trkpt lat="44.72473" lon="4.85767">
        <ele>425</ele>
        <time>2012-04-01T08:04:11Z</time>
      </trkpt>
      <trkpt lat="44.72493" lon="4.85746">
        <ele>425</ele>
        <time>2012-04-01T08:04:21Z</time>
      </trkpt>
      <trkpt lat="44.7251" lon="4.85728">
        <ele>431</ele>
        <time>2012-04-01T08:04:31Z</time>
      </trkpt>
      <trkpt lat="44.72524" lon="4.85705">
        <ele>431</ele>
        <time>2012-04-01T08:04:41Z</time>
      </trkpt>
      <trkpt lat="44.72533" lon="4.85681">
        <ele>432</ele>
        <time>2012-04-01T08:04:51Z</time>
      </trkpt>
      <trkpt lat="44.7254" lon="4.85652">
        <ele>437</ele>
        <time>2012-04-01T08:05:01Z</time>
      </trkpt>
      <trkpt lat="44.72549" lon="4.85623">
        <ele>440</ele>
        <time>2012-04-01T08:05:11Z</time>
      </trkpt>
      <trkpt lat="44.72555" lon="4.85589">
        <ele>440</ele>
        <time>2012-04-01T08:05:21Z</time>
      </trkpt>
      <trkpt lat="44.72555" lon="4.8555">
        <ele>441</ele>
        <time>2012-04-01T08:05:31Z</time>
      </trkpt>
      <trkpt lat="44.72554" lon="4.85511">
        <ele>443</ele>
        <time>2012-04-01T08:05:41Z</time>
      </trkpt>
      <trkpt lat="44.7255" lon="4.85466">
        <ele>445</ele>
        <time>2012-04-01T08:05:52Z</time>
      </trkpt>
      <trkpt lat="44.72542" lon="4.8544">
        <ele>446</ele>
        <time>2012-04-01T08:06:16Z</time>
      </trkpt>
      <trkpt lat="44.7255" lon="4.85442">
        <ele>445</ele>
        <time>2012-04-01T08:06:26Z</time>
      </trkpt>
      <trkpt lat="44.72563" lon="4.85462">
        <ele>444</ele>
        <time>2012-04-01T08:06:36Z</time>
      </trkpt>
      <trkpt lat="44.72571" lon="4.85488">
        <ele>444</ele>
        <time>2012-04-01T08:06:46Z</time>
      </trkpt>
      <trkpt lat="44.7258" lon="4.85513">
        <ele>446</ele>
        <time>2012-04-01T08:06:56Z</time>
      </trkpt>
      <trkpt lat="44.72587" lon="4.85544">
        <ele>453</ele>
        <time>2012-04-01T08:07:06Z</time>
      </trkpt>
      <trkpt lat="44.72599" lon="4.85572">
        <ele>455</ele>
        <time>2012-04-01T08:07:16Z</time>
      </trkpt>
      <trkpt lat="44.72611" lon="4.85603">
        <ele>455</ele>
        <time>2012-04-01T08:07:26Z</time>
      </trkpt>
      <trkpt lat="44.7262" lon="4.85631">
        <ele>458</ele>
        <time>2012-04-01T08:07:36Z</time>
      </trkpt>
      <trkpt lat="44.72634" lon="4.85656">
        <ele>459</ele>
        <time>2012-04-01T08:07:46Z</time>
      </trkpt>
      <trkpt lat="44.72646" lon="4.85684">
        <ele>459</ele>
        <time>2012-04-01T08:07:56Z</time>
      </trkpt>
      <trkpt lat="44.7266" lon="4.85713">
        <ele>459</ele>
        <time>2012-04-01T08:08:06Z</time>
      </trkpt>
      <trkpt lat="44.72675" lon="4.8574">
        <ele>459</ele>
        <time>2012-04-01T08:08:16Z</time>
      </trkpt>
      <trkpt lat="44.72691" lon="4.85774">
        <ele>458</ele>
        <time>2012-04-01T08:08:26Z</time>
      </trkpt>
      <trkpt lat="44.72704" lon="4.85811">
        <ele>453</ele>
        <time>2012-04-01T08:08:36Z</time>
      </trkpt>
      <trkpt lat="44.72713" lon="4.85857">
        <ele>450</ele>
        <time>2012-04-01T08:08:46Z</time>
      </trkpt>
      <trkpt lat="44.72725" lon="4.85901">
        <ele>450</ele>
        <time>2012-04-01T08:08:56Z</time>
      </trkpt>
      <trkpt lat="44.72744" lon="4.85947">
        <ele>450</ele>
        <time>2012-04-01T08:09:06Z</time>
      </trkpt>
      <trkpt lat="44.72762" lon="4.8598">
        <ele>450</ele>
        <time>2012-04-01T08:09:16Z</time>
      </trkpt>
      <trkpt lat="44.72781" lon="4.86003">
        <ele>449</ele>
        <time>2012-04-01T08:09:26Z</time>
      </trkpt>
      <trkpt lat="44.72807" lon="4.86004">
        <ele>449</ele>
        <time>2012-04-01T08:09:37Z</time>
      </trkpt>
      <trkpt lat="44.72834" lon="4.86005">
        <ele>449</ele>
        <time>2012-04-01T08:09:47Z</time>
      </trkpt>
      <trkpt lat="44.72854" lon="4.86018">
        <ele>453</ele>
        <time>2012-04-01T08:09:57Z</time>
      </trkpt>
      <trkpt lat="44.72877" lon="4.86027">
        <ele>453</ele>
        <time>2012-04-01T08:10:07Z</time>
      </trkpt>
      <trkpt lat="44.72898" lon="4.86036">
        <ele>453</ele>
        <time>2012-04-01T08:10:17Z</time>
      </trkpt>
      <trkpt lat="44.72924" lon="4.86043">
        <ele>460</ele>
        <time>2012-04-01T08:10:27Z</time>
      </trkpt>
      <trkpt lat="44.72948" lon="4.8605">
        <ele>460</ele>
        <time>2012-04-01T08:10:37Z</time>
      </trkpt>
      <trkpt lat="44.72973" lon="4.86041">
        <ele>461</ele>
        <time>2012-04-01T08:10:47Z</time>
      </trkpt>
      <trkpt lat="44.72994" lon="4.86019">
        <ele>463</ele>
        <time>2012-04-01T08:10:57Z</time>
      </trkpt>
      <trkpt lat="44.73016" lon="4.85997">
        <ele>462</ele>
        <time>2012-04-01T08:11:07Z</time>
      </trkpt>
      <trkpt lat="44.73033" lon="4.85966">
        <ele>457</ele>
        <time>2012-04-01T08:11:17Z</time>
      </trkpt>
      <trkpt lat="44.73055" lon="4.85933">
        <ele>453</ele>
        <time>2012-04-01T08:11:27Z</time>
      </trkpt>
      <trkpt lat="44.73072" lon="4.85898">
        <ele>452</ele>
        <time>2012-04-01T08:11:37Z</time>
      </trkpt>
      <trkpt lat="44.73092" lon="4.85868">
        <ele>452</ele>
        <time>2012-04-01T08:11:48Z</time>
      </trkpt>
      <trkpt lat="44.73102" lon="4.85827">
        <ele>452</ele>
        <time>2012-04-01T08:11:58Z</time>
      </trkpt>
      <trkpt lat="44.73107" lon="4.85788">
        <ele>452</ele>
        <time>2012-04-01T08:12:08Z</time>
      </trkpt>
      <trkpt lat="44.73109" lon="4.85752">
        <ele>449</ele>
        <time>2012-04-01T08:12:18Z</time>
      </trkpt>
      <trkpt lat="44.73101" lon="4.85707">
        <ele>445</ele>
        <time>2012-04-01T08:12:28Z</time>
      </trkpt>
      <trkpt lat="44.73107" lon="4.8567">
        <ele>441</ele>
        <time>2012-04-01T08:12:38Z</time>
      </trkpt>
      <trkpt lat="44.73127" lon="4.85642">
        <ele>434</ele>
        <time>2012-04-01T08:12:48Z</time>
      </trkpt>
      <trkpt lat="44.73149" lon="4.85608">
        <ele>427</ele>
        <time>2012-04-01T08:12:58Z</time>
      </trkpt>
      <trkpt lat="44.7318" lon="4.856">
        <ele>417</ele>
        <time>2012-04-01T08:13:08Z</time>
      </trkpt>
      <trkpt lat="44.73209" lon="4.85596">
        <ele>407</ele>
        <time>2012-04-01T08:13:18Z</time>
      </trkpt>
      <trkpt lat="44.73239" lon="4.85588">
        <ele>397</ele>
        <time>2012-04-01T08:13:28Z</time>
      </trkpt>
      <trkpt lat="44.73269" lon="4.85587">
        <ele>391</ele>
        <time>2012-04-01T08:13:38Z</time>
      </trkpt>
      <trkpt lat="44.73294" lon="4.85588">
        <ele>382</ele>
        <time>2012-04-01T08:13:48Z</time>
      </trkpt>
      <trkpt lat="44.73324" lon="4.85584">
        <ele>372</ele>
        <time>2012-04-01T08:13:58Z</time>
      </trkpt>
      <trkpt lat="44.73355" lon="4.85584">
        <ele>362</ele>
        <time>2012-04-01T08:14:08Z</time>
      </trkpt>
      <trkpt lat="44.73382" lon="4.85588">
        <ele>352</ele>
        <time>2012-04-01T08:14:18Z</time>
      </trkpt>
      <trkpt lat="44.73404" lon="4.85598">
        <ele>346</ele>
        <time>2012-04-01T08:14:28Z</time>
      </trkpt>
      <trkpt lat="44.73425" lon="4.85603">
        <ele>340</ele>
        <time>2012-04-01T08:14:38Z</time>
      </trkpt>
      <trkpt lat="44.73449" lon="4.85622">
        <ele>332</ele>
        <time>2012-04-01T08:14:49Z</time>
      </trkpt>
      <trkpt lat="44.73464" lon="4.85629">
        <ele>328</ele>
        <time>2012-04-01T08:15:04Z</time>
      </trkpt>
      <trkpt lat="44.73487" lon="4.8564">
        <ele>328</ele>
        <time>2012-04-01T08:15:14Z</time>
      </trkpt>
      <trkpt lat="44.73509" lon="4.85661">
        <ele>328</ele>
        <time>2012-04-01T08:15:24Z</time>
      </trkpt>
      <trkpt lat="44.73489" lon="4.85661">
        <ele>322</ele>
        <time>2012-04-01T08:15:34Z</time>
      </trkpt>
      <trkpt lat="44.73461" lon="4.85662">
        <ele>315</ele>
        <time>2012-04-01T08:15:44Z</time>
      </trkpt>
      <trkpt lat="44.7343" lon="4.85668">
        <ele>307</ele>
        <time>2012-04-01T08:15:54Z</time>
      </trkpt>
      <trkpt lat="44.73408" lon="4.85687">
        <ele>300</ele>
        <time>2012-04-01T08:16:04Z</time>
      </trkpt>
      <trkpt lat="44.73425" lon="4.85724">
        <ele>296</ele>
        <time>2012-04-01T08:16:14Z</time>
      </trkpt>
      <trkpt lat="44.73449" lon="4.85751">
        <ele>294</ele>
        <time>2012-04-01T08:16:24Z</time>
      </trkpt>
      <trkpt lat="44.73479" lon="4.85772">
        <ele>293</ele>
        <time>2012-04-01T08:16:34Z</time>
      </trkpt>
      <trkpt lat="44.7351" lon="4.85792">
        <ele>289</ele>
        <time>2012-04-01T08:16:44Z</time>
      </trkpt>
      <trkpt lat="44.73533" lon="4.85815">
        <ele>283</ele>
        <time>2012-04-01T08:16:54Z</time>
      </trkpt>
      <trkpt lat="44.73561" lon="4.85835">
        <ele>278</ele>
        <time>2012-04-01T08:17:04Z</time>
      </trkpt>
      <trkpt lat="44.73593" lon="4.85855">
        <ele>276</ele>
        <time>2012-04-01T08:17:14Z</time>
      </trkpt>
      <trkpt lat="44.73608" lon="4.85892">
        <ele>272</ele>
        <time>2012-04-01T08:17:24Z</time>
      </trkpt>
      <trkpt lat="44.73615" lon="4.85924">
        <ele>272</ele>
        <time>2012-04-01T08:17:34Z</time>
      </trkpt>
      <trkpt lat="44.73638" lon="4.85944">
        <ele>272</ele>
        <time>2012-04-01T08:17:44Z</time>
      </trkpt>
      <trkpt lat="44.73653" lon="4.85974">
        <ele>272</ele>
        <time>2012-04-01T08:17:54Z</time>
      </trkpt>
      <trkpt lat="44.73667" lon="4.86008">
        <ele>272</ele>
        <time>2012-04-01T08:18:04Z</time>
      </trkpt>
      <trkpt lat="44.73664" lon="4.86046">
        <ele>272</ele>
        <time>2012-04-01T08:18:14Z</time>
      </trkpt>
      <trkpt lat="44.73637" lon="4.86063">
        <ele>271</ele>
        <time>2012-04-01T08:18:24Z</time>
      </trkpt>
      <trkpt lat="44.7361" lon="4.8608">
        <ele>270</ele>
        <time>2012-04-01T08:18:34Z</time>
      </trkpt>
      <trkpt lat="44.73604" lon="4.86121">
        <ele>269</ele>
        <time>2012-04-01T08:18:44Z</time>
      </trkpt>
      <trkpt lat="44.73618" lon="4.86142">
        <ele>271</ele>
        <time>2012-04-01T08:18:54Z</time>
      </trkpt>
      <trkpt lat="44.73633" lon="4.8616">
        <ele>273</ele>
        <time>2012-04-01T08:19:04Z</time>
      </trkpt>
      <trkpt lat="44.73645" lon="4.86177">
        <ele>273</ele>
        <time>2012-04-01T08:19:14Z</time>
      </trkpt>
      <trkpt lat="44.73655" lon="4.86193">
        <ele>279</ele>
        <time>2012-04-01T08:19:24Z</time>
      </trkpt>
      <trkpt lat="44.73667" lon="4.86211">
        <ele>281</ele>
        <time>2012-04-01T08:19:35Z</time>
      </trkpt>
      <trkpt lat="44.73677" lon="4.86238">
        <ele>283</ele>
        <time>2012-04-01T08:19:46Z</time>
      </trkpt>
      <trkpt lat="44.73667" lon="4.86242">
        <ele>287</ele>
        <time>2012-04-01T08:19:56Z</time>
      </trkpt>
      <trkpt lat="44.73653" lon="4.86244">
        <ele>288</ele>
        <time>2012-04-01T08:20:06Z</time>
      </trkpt>
      <trkpt lat="44.73636" lon="4.86255">
        <ele>290</ele>
        <time>2012-04-01T08:20:16Z</time>
      </trkpt>
      <trkpt lat="44.73621" lon="4.86277">
        <ele>292</ele>
        <time>2012-04-01T08:20:26Z</time>
      </trkpt>
      <trkpt lat="44.7361" lon="4.86302">
        <ele>298</ele>
        <time>2012-04-01T08:20:36Z</time>
      </trkpt>
      <trkpt lat="44.73605" lon="4.86326">
        <ele>303</ele>
        <time>2012-04-01T08:20:46Z</time>
      </trkpt>
      <trkpt lat="44.73604" lon="4.86352">
        <ele>306</ele>
        <time>2012-04-01T08:20:56Z</time>
      </trkpt>
      <trkpt lat="44.73602" lon="4.86385">
        <ele>309</ele>
        <time>2012-04-01T08:21:07Z</time>
      </trkpt>
      <trkpt lat="44.73595" lon="4.86416">
        <ele>310</ele>
        <time>2012-04-01T08:21:17Z</time>
      </trkpt>
      <trkpt lat="44.73588" lon="4.86445">
        <ele>310</ele>
        <time>2012-04-01T08:21:27Z</time>
      </trkpt>
      <trkpt lat="44.73581" lon="4.86475">
        <ele>311</ele>
        <time>2012-04-01T08:21:37Z</time>
      </trkpt>
      <trkpt lat="44.73583" lon="4.8651">
        <ele>312</ele>
        <time>2012-04-01T08:21:47Z</time>
      </trkpt>
      <trkpt lat="44.73589" lon="4.86554">
        <ele>314</ele>
        <time>2012-04-01T08:21:58Z</time>
      </trkpt>
      <trkpt lat="44.73597" lon="4.86594">
        <ele>318</ele>
        <time>2012-04-01T08:22:08Z</time>
      </trkpt>
      <trkpt lat="44.73589" lon="4.86635">
        <ele>318</ele>
        <time>2012-04-01T08:22:19Z</time>
      </trkpt>
      <trkpt lat="44.73569" lon="4.86671">
        <ele>312</ele>
        <time>2012-04-01T08:22:29Z</time>
      </trkpt>
      <trkpt lat="44.73544" lon="4.86702">
        <ele>309</ele>
        <time>2012-04-01T08:22:39Z</time>
      </trkpt>
      <trkpt lat="44.73514" lon="4.86719">
        <ele>307</ele>
        <time>2012-04-01T08:22:49Z</time>
      </trkpt>
      <trkpt lat="44.73485" lon="4.86731">
        <ele>304</ele>
        <time>2012-04-01T08:22:59Z</time>
      </trkpt>
      <trkpt lat="44.73456" lon="4.86734">
        <ele>298</ele>
        <time>2012-04-01T08:23:09Z</time>
      </trkpt>
      <trkpt lat="44.73427" lon="4.86741">
        <ele>296</ele>
        <time>2012-04-01T08:23:19Z</time>
      </trkpt>
      <trkpt lat="44.73417" lon="4.86784">
        <ele>297</ele>
        <time>2012-04-01T08:23:29Z</time>
      </trkpt>
      <trkpt lat="44.7342" lon="4.86827">
        <ele>300</ele>
        <time>2012-04-01T08:23:39Z</time>
      </trkpt>
      <trkpt lat="44.73424" lon="4.86861">
        <ele>302</ele>
        <time>2012-04-01T08:23:49Z</time>
      </trkpt>
      <trkpt lat="44.73445" lon="4.86893">
        <ele>302</ele>
        <time>2012-04-01T08:23:59Z</time>
      </trkpt>
      <trkpt lat="44.7347" lon="4.86922">
        <ele>301</ele>
        <time>2012-04-01T08:24:09Z</time>
      </trkpt>
      <trkpt lat="44.73478" lon="4.86954">
        <ele>300</ele>
        <time>2012-04-01T08:24:19Z</time>
      </trkpt>
      <trkpt lat="44.73455" lon="4.86981">
        <ele>299</ele>
        <time>2012-04-01T08:24:29Z</time>
      </trkpt>
      <trkpt lat="44.73424" lon="4.8698">
        <ele>293</ele>
        <time>2012-04-01T08:24:40Z</time>
      </trkpt>
      <trkpt lat="44.73397" lon="4.86968">
        <ele>288</ele>
        <time>2012-04-01T08:24:50Z</time>
      </trkpt>
      <trkpt lat="44.73372" lon="4.8695">
        <ele>282</ele>
        <time>2012-04-01T08:25:00Z</time>
      </trkpt>
      <trkpt lat="44.73343" lon="4.8694">
        <ele>279</ele>
        <time>2012-04-01T08:25:10Z</time>
      </trkpt>
      <trkpt lat="44.73313" lon="4.86935">
        <ele>274</ele>
        <time>2012-04-01T08:25:20Z</time>
      </trkpt>
      <trkpt lat="44.73281" lon="4.86929">
        <ele>272</ele>
        <time>2012-04-01T08:25:30Z</time>
      </trkpt>
      <trkpt lat="44.73257" lon="4.86951">
        <ele>271</ele>
        <time>2012-04-01T08:25:41Z</time>
      </trkpt>
      <trkpt lat="44.73236" lon="4.86952">
        <ele>271</ele>
        <time>2012-04-01T08:25:51Z</time>
      </trkpt>
      <trkpt lat="44.7322" lon="4.86934">
        <ele>271</ele>
        <time>2012-04-01T08:26:01Z</time>
      </trkpt>
      <trkpt lat="44.73208" lon="4.86915">
        <ele>275</ele>
        <time>2012-04-01T08:26:11Z</time>
      </trkpt>
      <trkpt lat="44.73199" lon="4.869">
        <ele>277</ele>
        <time>2012-04-01T08:26:21Z</time>
      </trkpt>
      <trkpt lat="44.73188" lon="4.86891">
        <ele>279</ele>
        <time>2012-04-01T08:26:33Z</time>
      </trkpt>
      <trkpt lat="44.73189" lon="4.86918">
        <ele>284</ele>
        <time>2012-04-01T08:26:43Z</time>
      </trkpt>
      <trkpt lat="44.73191" lon="4.86945">
        <ele>293</ele>
        <time>2012-04-01T08:26:53Z</time>
      </trkpt>
      <trkpt lat="44.73195" lon="4.86973">
        <ele>298</ele>
        <time>2012-04-01T08:27:03Z</time>
      </trkpt>
      <trkpt lat="44.73185" lon="4.86985">
        <ele>301</ele>
        <time>2012-04-01T08:27:13Z</time>
      </trkpt>
      <trkpt lat="44.73162" lon="4.86965">
        <ele>301</ele>
        <time>2012-04-01T08:27:24Z</time>
      </trkpt>
      <trkpt lat="44.73141" lon="4.8694">
        <ele>302</ele>
        <time>2012-04-01T08:27:34Z</time>
      </trkpt>
      <trkpt lat="44.73121" lon="4.86915">
        <ele>302</ele>
        <time>2012-04-01T08:27:44Z</time>
      </trkpt>
      <trkpt lat="44.73104" lon="4.86882">
        <ele>302</ele>
        <time>2012-04-01T08:27:54Z</time>
      </trkpt>
      <trkpt lat="44.73082" lon="4.86851">
        <ele>301</ele>
        <time>2012-04-01T08:28:04Z</time>
      </trkpt>
      <trkpt lat="44.7305" lon="4.8684">
        <ele>293</ele>
        <time>2012-04-01T08:28:15Z</time>
      </trkpt>
      <trkpt lat="44.73021" lon="4.86837">
        <ele>288</ele>
        <time>2012-04-01T08:28:25Z</time>
      </trkpt>
      <trkpt lat="44.72991" lon="4.86812">
        <ele>283</ele>
        <time>2012-04-01T08:28:36Z</time>
      </trkpt>
      <trkpt lat="44.72975" lon="4.8678">
        <ele>279</ele>
        <time>2012-04-01T08:28:46Z</time>
      </trkpt>
      <trkpt lat="44.72954" lon="4.86743">
        <ele>274</ele>
        <time>2012-04-01T08:28:57Z</time>
      </trkpt>
      <trkpt lat="44.7293" lon="4.86705">
        <ele>272</ele>
        <time>2012-04-01T08:29:08Z</time>
      </trkpt>
      <trkpt lat="44.72902" lon="4.86691">
        <ele>269</ele>
        <time>2012-04-01T08:29:18Z</time>
      </trkpt>
      <trkpt lat="44.72875" lon="4.8671">
        <ele>263</ele>
        <time>2012-04-01T08:29:28Z</time>
      </trkpt>
      <trkpt lat="44.72867" lon="4.8675">
        <ele>260</ele>
        <time>2012-04-01T08:29:38Z</time>
      </trkpt>
      <trkpt lat="44.72877" lon="4.86794">
        <ele>251</ele>
        <time>2012-04-01T08:29:49Z</time>
      </trkpt>
      <trkpt lat="44.72872" lon="4.86838">
        <ele>250</ele>
        <time>2012-04-01T08:29:59Z</time>
      </trkpt>
      <trkpt lat="44.72881" lon="4.86886">
        <ele>249</ele>
        <time>2012-04-01T08:30:10Z</time>
      </trkpt>
      <trkpt lat="44.72902" lon="4.86921">
        <ele>247</ele>
        <time>2012-04-01T08:30:20Z</time>
      </trkpt>
      <trkpt lat="44.72916" lon="4.86963">
        <ele>244</ele>
        <time>2012-04-01T08:30:30Z</time>
      </trkpt>
      <trkpt lat="44.72927" lon="4.87008">
        <ele>242</ele>
        <time>2012-04-01T08:30:40Z</time>
      </trkpt>
      <trkpt lat="44.72928" lon="4.87041">
        <ele>242</ele>
        <time>2012-04-01T08:30:50Z</time>
      </trkpt>
      <trkpt lat="44.72926" lon="4.87068">
        <ele>242</ele>
        <time>2012-04-01T08:31:00Z</time>
      </trkpt>
      <trkpt lat="44.72918" lon="4.87083">
        <ele>243</ele>
        <time>2012-04-01T08:31:10Z</time>
      </trkpt>
      <trkpt lat="44.72902" lon="4.87086">
        <ele>247</ele>
        <time>2012-04-01T08:31:20Z</time>
      </trkpt>
      <trkpt lat="44.72885" lon="4.87087">
        <ele>252</ele>
        <time>2012-04-01T08:31:31Z</time>
      </trkpt>
      <trkpt lat="44.72871" lon="4.87084">
        <ele>252</ele>
        <time>2012-04-01T08:31:43Z</time>
      </trkpt>
      <trkpt lat="44.72857" lon="4.87082">
        <ele>252</ele>
        <time>2012-04-01T08:31:54Z</time>
      </trkpt>
      <trkpt lat="44.72844" lon="4.8708">
        <ele>252</ele>
        <time>2012-04-01T08:32:04Z</time>
      </trkpt>
      <trkpt lat="44.72831" lon="4.8708">
        <ele>255</ele>
        <time>2012-04-01T08:32:15Z</time>
      </trkpt>
      <trkpt lat="44.72821" lon="4.87081">
        <ele>258</ele>
        <time>2012-04-01T08:32:25Z</time>
      </trkpt>
      <trkpt lat="44.7281" lon="4.87091">
        <ele>259</ele>
        <time>2012-04-01T08:32:35Z</time>
      </trkpt>
      <trkpt lat="44.72807" lon="4.87107">
        <ele>267</ele>
        <time>2012-04-01T08:32:45Z</time>
      </trkpt>
      <trkpt lat="44.72802" lon="4.8712">
        <ele>270</ele>
        <time>2012-04-01T08:32:56Z</time>
      </trkpt>
      <trkpt lat="44.72795" lon="4.87134">
        <ele>273</ele>
        <time>2012-04-01T08:33:08Z</time>
      </trkpt>
      <trkpt lat="44.72785" lon="4.87145">
        <ele>277</ele>
        <time>2012-04-01T08:33:20Z</time>
      </trkpt>
      <trkpt lat="44.72776" lon="4.87152">
        <ele>278</ele>
        <time>2012-04-01T08:33:32Z</time>
      </trkpt>
      <trkpt lat="44.72767" lon="4.87168">
        <ele>279</ele>
        <time>2012-04-01T08:33:43Z</time>
      </trkpt>
      <trkpt lat="44.72761" lon="4.87181">
        <ele>284</ele>
        <time>2012-04-01T08:33:53Z</time>
      </trkpt>
      <trkpt lat="44.72745" lon="4.87203">
        <ele>287</ele>
        <time>2012-04-01T08:34:03Z</time>
      </trkpt>
      <trkpt lat="44.72734" lon="4.87233">
        <ele>289</ele>
        <time>2012-04-01T08:34:13Z</time>
      </trkpt>
      <trkpt lat="44.72731" lon="4.87262">
        <ele>293</ele>
        <time>2012-04-01T08:34:23Z</time>
      </trkpt>
      <trkpt lat="44.72717" lon="4.8728">
        <ele>294</ele>
        <time>2012-04-01T08:34:34Z</time>
      </trkpt>
      <trkpt lat="44.72695" lon="4.87292">
        <ele>291</ele>
        <time>2012-04-01T08:34:44Z</time>
      </trkpt>
      <trkpt lat="44.72673" lon="4.87306">
        <ele>289</ele>
        <time>2012-04-01T08:34:54Z</time>
      </trkpt>
      <trkpt lat="44.72648" lon="4.87321">
        <ele>284</ele>
        <time>2012-04-01T08:35:04Z</time>
      </trkpt>
      <trkpt lat="44.72617" lon="4.87328">
        <ele>276</ele>
        <time>2012-04-01T08:35:15Z</time>
      </trkpt>
      <trkpt lat="44.72588" lon="4.87336">
        <ele>273</ele>
        <time>2012-04-01T08:35:25Z</time>
      </trkpt>
      <trkpt lat="44.72558" lon="4.87346">
        <ele>270</ele>
        <time>2012-04-01T08:35:36Z</time>
      </trkpt>
      <trkpt lat="44.72529" lon="4.87347">
        <ele>264</ele>
        <time>2012-04-01T08:35:46Z</time>
      </trkpt>
      <trkpt lat="44.725" lon="4.87343">
        <ele>263</ele>
        <time>2012-04-01T08:35:56Z</time>
      </trkpt>
      <trkpt lat="44.72479" lon="4.87345">
        <ele>263</ele>
        <time>2012-04-01T08:36:06Z</time>
      </trkpt>
      <trkpt lat="44.72495" lon="4.87381">
        <ele>262</ele>
        <time>2012-04-01T08:36:17Z</time>
      </trkpt>
      <trkpt lat="44.72481" lon="4.8737">
        <ele>260</ele>
        <time>2012-04-01T08:36:28Z</time>
      </trkpt>
      <trkpt lat="44.72463" lon="4.8736">
        <ele>260</ele>
        <time>2012-04-01T08:36:38Z</time>
      </trkpt>
      <trkpt lat="44.72447" lon="4.87345">
        <ele>261</ele>
        <time>2012-04-01T08:36:48Z</time>
      </trkpt>
      <trkpt lat="44.72435" lon="4.87332">
        <ele>265</ele>
        <time>2012-04-01T08:36:58Z</time>
      </trkpt>
      <trkpt lat="44.72426" lon="4.87323">
        <ele>270</ele>
        <time>2012-04-01T08:37:08Z</time>
      </trkpt>
      <trkpt lat="44.72421" lon="4.87308">
        <ele>274</ele>
        <time>2012-04-01T08:37:18Z</time>
      </trkpt>
      <trkpt lat="44.72419" lon="4.87294">
        <ele>276</ele>
        <time>2012-04-01T08:37:28Z</time>
      </trkpt>
      <trkpt lat="44.72423" lon="4.87278">
        <ele>278</ele>
        <time>2012-04-01T08:37:39Z</time>
      </trkpt>
      <trkpt lat="44.72418" lon="4.87262">
        <ele>280</ele>
        <time>2012-04-01T08:37:50Z</time>
      </trkpt>
      <trkpt lat="44.72407" lon="4.87275">
        <ele>282</ele>
        <time>2012-04-01T08:38:00Z</time>
      </trkpt>
      <trkpt lat="44.72393" lon="4.87288">
        <ele>287</ele>
        <time>2012-04-01T08:38:10Z</time>
      </trkpt>
      <trkpt lat="44.72383" lon="4.87278">
        <ele>288</ele>
        <time>2012-04-01T08:38:20Z</time>
      </trkpt>
      <trkpt lat="44.72379" lon="4.87257">
        <ele>289</ele>
        <time>2012-04-01T08:38:30Z</time>
      </trkpt>
      <trkpt lat="44.72366" lon="4.87257">
        <ele>292</ele>
        <time>2012-04-01T08:38:41Z</time>
      </trkpt>
      <trkpt lat="44.72352" lon="4.87263">
        <ele>296</ele>
        <time>2012-04-01T08:38:52Z</time>
      </trkpt>
      <trkpt lat="44.72337" lon="4.87263">
        <ele>297</ele>
        <time>2012-04-01T08:39:02Z</time>
      </trkpt>
      <trkpt lat="44.72324" lon="4.87262">
        <ele>298</ele>
        <time>2012-04-01T08:39:12Z</time>
      </trkpt>
      <trkpt lat="44.72311" lon="4.87267">
        <ele>302</ele>
        <time>2012-04-01T08:39:22Z</time>
      </trkpt>
      <trkpt lat="44.72295" lon="4.87265">
        <ele>307</ele>
        <time>2012-04-01T08:39:32Z</time>
      </trkpt>
      <trkpt lat="44.72279" lon="4.87276">
        <ele>313</ele>
        <time>2012-04-01T08:39:42Z</time>
      </trkpt>
      <trkpt lat="44.72263" lon="4.87277">
        <ele>319</ele>
        <time>2012-04-01T08:39:52Z</time>
      </trkpt>
      <trkpt lat="44.72246" lon="4.87279">
        <ele>320</ele>
        <time>2012-04-01T08:40:02Z</time>
      </trkpt>
      <trkpt lat="44.72233" lon="4.87276">
        <ele>321</ele>
        <time>2012-04-01T08:40:12Z</time>
      </trkpt>
      <trkpt lat="44.72218" lon="4.87279">
        <ele>325</ele>
        <time>2012-04-01T08:40:22Z</time>
      </trkpt>
      <trkpt lat="44.72204" lon="4.8728">
        <ele>328</ele>
        <time>2012-04-01T08:40:33Z</time>
      </trkpt>
      <trkpt lat="44.72192" lon="4.87283">
        <ele>332</ele>
        <time>2012-04-01T08:40:44Z</time>
      </trkpt>
      <trkpt lat="44.72181" lon="4.87289">
        <ele>333</ele>
        <time>2012-04-01T08:40:54Z</time>
      </trkpt>
      <trkpt lat="44.72169" lon="4.87288">
        <ele>333</ele>
        <time>2012-04-01T08:41:05Z</time>
      </trkpt>
      <trkpt lat="44.72158" lon="4.8729">
        <ele>334</ele>
        <time>2012-04-01T08:41:16Z</time>
      </trkpt>
      <trkpt lat="44.72143" lon="4.87291">
        <ele>338</ele>
        <time>2012-04-01T08:41:26Z</time>
      </trkpt>
      <trkpt lat="44.72127" lon="4.87289">
        <ele>340</ele>
        <time>2012-04-01T08:41:37Z</time>
      </trkpt>
      <trkpt lat="44.72114" lon="4.8728">
        <ele>343</ele>
        <time>2012-04-01T08:41:48Z</time>
      </trkpt>
      <trkpt lat="44.72098" lon="4.87283">
        <ele>348</ele>
        <time>2012-04-01T08:41:58Z</time>
      </trkpt>
      <trkpt lat="44.72084" lon="4.87276">
        <ele>351</ele>
        <time>2012-04-01T08:42:08Z</time>
      </trkpt>
      <trkpt lat="44.72071" lon="4.87275">
        <ele>353</ele>
        <time>2012-04-01T08:42:18Z</time>
      </trkpt>
      <trkpt lat="44.72061" lon="4.8727">
        <ele>354</ele>
        <time>2012-04-01T08:42:28Z</time>
      </trkpt>
      <trkpt lat="44.72047" lon="4.87263">
        <ele>360</ele>
        <time>2012-04-01T08:42:39Z</time>
      </trkpt>
      <trkpt lat="44.72034" lon="4.87256">
        <ele>363</ele>
        <time>2012-04-01T08:42:49Z</time>
      </trkpt>
      <trkpt lat="44.72021" lon="4.87248">
        <ele>367</ele>
        <time>2012-04-01T08:42:59Z</time>
      </trkpt>
      <trkpt lat="44.7201" lon="4.87243">
        <ele>372</ele>
        <time>2012-04-01T08:43:09Z</time>
      </trkpt>
      <trkpt lat="44.71995" lon="4.87231">
        <ele>376</ele>
        <time>2012-04-01T08:43:19Z</time>
      </trkpt>
      <trkpt lat="44.71979" lon="4.87217">
        <ele>378</ele>
        <time>2012-04-01T08:43:29Z</time>
      </trkpt>
      <trkpt lat="44.71962" lon="4.87208">
        <ele>382</ele>
        <time>2012-04-01T08:43:39Z</time>
      </trkpt>
      <trkpt lat="44.71949" lon="4.87188">
        <ele>387</ele>
        <time>2012-04-01T08:43:50Z</time>
      </trkpt>
      <trkpt lat="44.71936" lon="4.87188">
        <ele>389</ele>
        <time>2012-04-01T08:44:00Z</time>
      </trkpt>
      <trkpt lat="44.71919" lon="4.87191">
        <ele>392</ele>
        <time>2012-04-01T08:44:11Z</time>
      </trkpt>
      <trkpt lat="44.71905" lon="4.87188">
        <ele>398</ele>
        <time>2012-04-01T08:44:22Z</time>
      </trkpt>
      <trkpt lat="44.71893" lon="4.87187">
        <ele>399</ele>
        <time>2012-04-01T08:44:32Z</time>
      </trkpt>
      <trkpt lat="44.71876" lon="4.87193">
        <ele>399</ele>
        <time>2012-04-01T08:44:42Z</time>
      </trkpt>
      <trkpt lat="44.71861" lon="4.87188">
        <ele>401</ele>
        <time>2012-04-01T08:44:52Z</time>
      </trkpt>
      <trkpt lat="44.71843" lon="4.87199">
        <ele>404</ele>
        <time>2012-04-01T08:45:02Z</time>
      </trkpt>
      <trkpt lat="44.71826" lon="4.87225">
        <ele>410</ele>
        <time>2012-04-01T08:45:12Z</time>
      </trkpt>
      <trkpt lat="44.71814" lon="4.87249">
        <ele>413</ele>
        <time>2012-04-01T08:45:22Z</time>
      </trkpt>
      <trkpt lat="44.71803" lon="4.87277">
        <ele>414</ele>
        <time>2012-04-01T08:45:32Z</time>
      </trkpt>
      <trkpt lat="44.71786" lon="4.87303">
        <ele>414</ele>
        <time>2012-04-01T08:45:42Z</time>
      </trkpt>
      <trkpt lat="44.71766" lon="4.8732">
        <ele>415</ele>
        <time>2012-04-01T08:45:52Z</time>
      </trkpt>
      <trkpt lat="44.71745" lon="4.87349">
        <ele>413</ele>
        <time>2012-04-01T08:46:03Z</time>
      </trkpt>
      <trkpt lat="44.7173" lon="4.87384">
        <ele>414</ele>
        <time>2012-04-01T08:46:13Z</time>
      </trkpt>
      <trkpt lat="44.71714" lon="4.8742">
        <ele>415</ele>
        <time>2012-04-01T08:46:23Z</time>
      </trkpt>
      <trkpt lat="44.71694" lon="4.87453">
        <ele>415</ele>
        <time>2012-04-01T08:46:33Z</time>
      </trkpt>
      <trkpt lat="44.71684" lon="4.87492">
        <ele>413</ele>
        <time>2012-04-01T08:46:43Z</time>
      </trkpt>
      <trkpt lat="44.71674" lon="4.87528">
        <ele>407</ele>
        <time>2012-04-01T08:46:53Z</time>
      </trkpt>
      <trkpt lat="44.71654" lon="4.87554">
        <ele>403</ele>
        <time>2012-04-01T08:47:03Z</time>
      </trkpt>
      <trkpt lat="44.71632" lon="4.87581">
        <ele>399</ele>
        <time>2012-04-01T08:47:13Z</time>
      </trkpt>
      <trkpt lat="44.71606" lon="4.87586">
        <ele>392</ele>
        <time>2012-04-01T08:47:23Z</time>
      </trkpt>
      <trkpt lat="44.71577" lon="4.87574">
        <ele>385</ele>
        <time>2012-04-01T08:47:33Z</time>
      </trkpt>
      <trkpt lat="44.71547" lon="4.87576">
        <ele>378</ele>
        <time>2012-04-01T08:47:43Z</time>
      </trkpt>
      <trkpt lat="44.71519" lon="4.87584">
        <ele>372</ele>
        <time>2012-04-01T08:47:53Z</time>
      </trkpt>
      <trkpt lat="44.71495" lon="4.87549">
        <ele>372</ele>
        <time>2012-04-01T08:48:04Z</time>
      </trkpt>
      <trkpt lat="44.71479" lon="4.87527">
        <ele>372</ele>
        <time>2012-04-01T08:48:14Z</time>
      </trkpt>
      <trkpt lat="44.71466" lon="4.87503">
        <ele>372</ele>
        <time>2012-04-01T08:48:24Z</time>
      </trkpt>
      <trkpt lat="44.71445" lon="4.8749">
        <ele>370</ele>
        <time>2012-04-01T08:48:34Z</time>
      </trkpt>
      <trkpt lat="44.7142" lon="4.87475">
        <ele>362</ele>
        <time>2012-04-01T08:48:44Z</time>
      </trkpt>
      <trkpt lat="44.71397" lon="4.87449">
        <ele>357</ele>
        <time>2012-04-01T08:48:55Z</time>
      </trkpt>
      <trkpt lat="44.71386" lon="4.87415">
        <ele>353</ele>
        <time>2012-04-01T08:49:05Z</time>
      </trkpt>
      <trkpt lat="44.71367" lon="4.87414">
        <ele>350</ele>
        <time>2012-04-01T08:49:15Z</time>
      </trkpt>
      <trkpt lat="44.71351" lon="4.87447">
        <ele>350</ele>
        <time>2012-04-01T08:49:25Z</time>
      </trkpt>
      <trkpt lat="44.71334" lon="4.87471">
        <ele>345</ele>
        <time>2012-04-01T08:49:35Z</time>
      </trkpt>
      <trkpt lat="44.71315" lon="4.87485">
        <ele>340</ele>
        <time>2012-04-01T08:49:45Z</time>
      </trkpt>
      <trkpt lat="44.71285" lon="4.87496">
        <ele>335</ele>
        <time>2012-04-01T08:49:55Z</time>
      </trkpt>
      <trkpt lat="44.71258" lon="4.87493">
        <ele>330</ele>
        <time>2012-04-01T08:50:05Z</time>
      </trkpt>
      <trkpt lat="44.71229" lon="4.87481">
        <ele>325</ele>
        <time>2012-04-01T08:50:15Z</time>
      </trkpt>
      <trkpt lat="44.71201" lon="4.87465">
        <ele>324</ele>
        <time>2012-04-01T08:50:25Z</time>
      </trkpt>
      <trkpt lat="44.71177" lon="4.8744">
        <ele>323</ele>
        <time>2012-04-01T08:50:35Z</time>
      </trkpt>
      <trkpt lat="44.71155" lon="4.87414">
        <ele>318</ele>
        <time>2012-04-01T08:50:45Z</time>
      </trkpt>
      <trkpt lat="44.71134" lon="4.87384">
        <ele>310</ele>
        <time>2012-04-01T08:50:55Z</time>
      </trkpt>
      <trkpt lat="44.71114" lon="4.87355">
        <ele>306</ele>
        <time>2012-04-01T08:51:05Z</time>
      </trkpt>
      <trkpt lat="44.71096" lon="4.87326">
        <ele>302</ele>
        <time>2012-04-01T08:51:15Z</time>
      </trkpt>
      <trkpt lat="44.71077" lon="4.87296">
        <ele>299</ele>
        <time>2012-04-01T08:51:25Z</time>
      </trkpt>
      <trkpt lat="44.71053" lon="4.87278">
        <ele>295</ele>
        <time>2012-04-01T08:51:35Z</time>
      </trkpt>
      <trkpt lat="44.71028" lon="4.87253">
        <ele>287</ele>
        <time>2012-04-01T08:51:46Z</time>
      </trkpt>
      <trkpt lat="44.71004" lon="4.87226">
        <ele>282</ele>
        <time>2012-04-01T08:51:56Z</time>
      </trkpt>
      <trkpt lat="44.70978" lon="4.87205">
        <ele>281</ele>
        <time>2012-04-01T08:52:06Z</time>
      </trkpt>
      <trkpt lat="44.70948" lon="4.87198">
        <ele>276</ele>
        <time>2012-04-01T08:52:16Z</time>
      </trkpt>
      <trkpt lat="44.70922" lon="4.87192">
        <ele>272</ele>
        <time>2012-04-01T08:52:26Z</time>
      </trkpt>
      <trkpt lat="44.70889" lon="4.87186">
        <ele>269</ele>
        <time>2012-04-01T08:52:37Z</time>
      </trkpt>
      <trkpt lat="44.70864" lon="4.87161">
        <ele>267</ele>
        <time>2012-04-01T08:52:47Z</time>
      </trkpt>
      <trkpt lat="44.7084" lon="4.87134">
        <ele>267</ele>
        <time>2012-04-01T08:52:57Z</time>
      </trkpt>
      <trkpt lat="44.70818" lon="4.87101">
        <ele>267</ele>
        <time>2012-04-01T08:53:07Z</time>
      </trkpt>
      <trkpt lat="44.70796" lon="4.87068">
        <ele>265</ele>
        <time>2012-04-01T08:53:17Z</time>
      </trkpt>
      <trkpt lat="44.70773" lon="4.87033">
        <ele>261</ele>
        <time>2012-04-01T08:53:28Z</time>
      </trkpt>
      <trkpt lat="44.70751" lon="4.87">
        <ele>253</ele>
        <time>2012-04-01T08:53:39Z</time>
      </trkpt>
      <trkpt lat="44.70732" lon="4.86975">
        <ele>247</ele>
        <time>2012-04-01T08:53:49Z</time>
      </trkpt>
      <trkpt lat="44.70706" lon="4.86945">
        <ele>243</ele>
        <time>2012-04-01T08:54:00Z</time>
      </trkpt>
      <trkpt lat="44.70678" lon="4.86914">
        <ele>243</ele>
        <time>2012-04-01T08:54:11Z</time>
      </trkpt>
      <trkpt lat="44.70654" lon="4.86884">
        <ele>242</ele>
        <time>2012-04-01T08:54:21Z</time>
      </trkpt>
      <trkpt lat="44.70652" lon="4.86843">
        <ele>237</ele>
        <time>2012-04-01T08:54:31Z</time>
      </trkpt>
      <trkpt lat="44.70665" lon="4.86802">
        <ele>234</ele>
        <time>2012-04-01T08:54:41Z</time>
      </trkpt>
      <trkpt lat="44.70675" lon="4.8676">
        <ele>232</ele>
        <time>2012-04-01T08:54:51Z</time>
      </trkpt>
      <trkpt lat="44.70679" lon="4.8672">
        <ele>228</ele>
        <time>2012-04-01T08:55:01Z</time>
      </trkpt>
      <trkpt lat="44.7069" lon="4.86677">
        <ele>225</ele>
        <time>2012-04-01T08:55:11Z</time>
      </trkpt>
      <trkpt lat="44.70705" lon="4.86631">
        <ele>224</ele>
        <time>2012-04-01T08:55:22Z</time>
      </trkpt>
      <trkpt lat="44.70712" lon="4.86584">
        <ele>223</ele>
        <time>2012-04-01T08:55:32Z</time>
      </trkpt>
      <trkpt lat="44.70705" lon="4.86538">
        <ele>222</ele>
        <time>2012-04-01T08:55:42Z</time>
      </trkpt>
      <trkpt lat="44.7069" lon="4.86497">
        <ele>218</ele>
        <time>2012-04-01T08:55:52Z</time>
      </trkpt>
      <trkpt lat="44.70673" lon="4.86457">
        <ele>214</ele>
        <time>2012-04-01T08:56:02Z</time>
      </trkpt>
      <trkpt lat="44.70666" lon="4.86413">
        <ele>209</ele>
        <time>2012-04-01T08:56:12Z</time>
      </trkpt>
      <trkpt lat="44.70654" lon="4.86366">
        <ele>206</ele>
        <time>2012-04-01T08:56:23Z</time>
      </trkpt>
      <trkpt lat="44.70648" lon="4.8632">
        <ele>204</ele>
        <time>2012-04-01T08:56:33Z</time>
      </trkpt>
      <trkpt lat="44.70641" lon="4.86274">
        <ele>204</ele>
        <time>2012-04-01T08:56:43Z</time>
      </trkpt>
      <trkpt lat="44.70629" lon="4.8623">
        <ele>204</ele>
        <time>2012-04-01T08:56:53Z</time>
      </trkpt>
      <trkpt lat="44.70617" lon="4.86188">
        <ele>204</ele>
        <time>2012-04-01T08:57:03Z</time>
      </trkpt>
      <trkpt lat="44.7061" lon="4.86164">
        <ele>204</ele>
        <time>2012-04-01T08:57:13Z</time>
      </trkpt>
      <trkpt lat="44.70608" lon="4.86159">
        <ele>204</ele>
        <time>2012-04-01T08:57:24Z</time>
      </trkpt>
      <trkpt lat="44.70606" lon="4.86156">
        <ele>204</ele>
        <time>2012-04-01T08:57:40Z</time>
      </trkpt>
      <trkpt lat="44.70587" lon="4.86157">
        <ele>204</ele>
        <time>2012-04-01T08:57:50Z</time>
      </trkpt>
      <trkpt lat="44.70562" lon="4.86159">
        <ele>204</ele>
        <time>2012-04-01T08:58:00Z</time>
      </trkpt>
      <trkpt lat="44.70534" lon="4.86166">
        <ele>204</ele>
        <time>2012-04-01T08:58:11Z</time>
      </trkpt>
      <trkpt lat="44.70525" lon="4.86193">
        <ele>204</ele>
        <time>2012-04-01T08:58:21Z</time>
      </trkpt>
      <trkpt lat="44.70527" lon="4.86228">
        <ele>204</ele>
        <time>2012-04-01T08:58:31Z</time>
      </trkpt>
      <trkpt lat="44.70531" lon="4.86262">
        <ele>205</ele>
        <time>2012-04-01T08:58:41Z</time>
      </trkpt>
      <trkpt lat="44.70535" lon="4.86294">
        <ele>211</ele>
        <time>2012-04-01T08:58:51Z</time>
      </trkpt>
      <trkpt lat="44.7054" lon="4.86333">
        <ele>214</ele>
        <time>2012-04-01T08:59:02Z</time>
      </trkpt>
      <trkpt lat="44.70535" lon="4.86329">
        <ele>215</ele>
        <time>2012-04-01T08:59:12Z</time>
      </trkpt>
      <trkpt lat="44.70527" lon="4.86286">
        <ele>215</ele>
        <time>2012-04-01T08:59:22Z</time>
      </trkpt>
      <trkpt lat="44.70512" lon="4.86253">
        <ele>215</ele>
        <time>2012-04-01T08:59:33Z</time>
      </trkpt>
      <trkpt lat="44.70496" lon="4.86243">
        <ele>215</ele>
        <time>2012-04-01T08:59:43Z</time>
      </trkpt>
      <trkpt lat="44.70482" lon="4.86233">
        <ele>215</ele>
        <time>2012-04-01T08:59:53Z</time>
      </trkpt>
      <trkpt lat="44.7047" lon="4.86225">
        <ele>215</ele>
        <time>2012-04-01T09:00:04Z</time>
      </trkpt>
      <trkpt lat="44.70458" lon="4.86217">
        <ele>215</ele>
        <time>2012-04-01T09:00:15Z</time>
      </trkpt>
      <trkpt lat="44.70445" lon="4.86211">
        <ele>219</ele>
        <time>2012-04-01T09:00:26Z</time>
      </trkpt>
      <trkpt lat="44.70434" lon="4.86215">
        <ele>221</ele>
        <time>2012-04-01T09:00:37Z</time>
      </trkpt>
      <trkpt lat="44.70418" lon="4.86221">
        <ele>227</ele>
        <time>2012-04-01T09:00:47Z</time>
      </trkpt>
      <trkpt lat="44.70408" lon="4.86211">
        <ele>232</ele>
        <time>2012-04-01T09:00:57Z</time>
      </trkpt>
      <trkpt lat="44.70402" lon="4.86189">
        <ele>236</ele>
        <time>2012-04-01T09:01:07Z</time>
      </trkpt>
      <trkpt lat="44.70387" lon="4.86172">
        <ele>238</ele>
        <time>2012-04-01T09:01:17Z</time>
      </trkpt>
      <trkpt lat="44.70373" lon="4.86156">
        <ele>240</ele>
        <time>2012-04-01T09:01:27Z</time>
      </trkpt>
      <trkpt lat="44.70352" lon="4.86147">
        <ele>242</ele>
        <time>2012-04-01T09:01:38Z</time>
      </trkpt>
      <trkpt lat="44.70336" lon="4.86136">
        <ele>243</ele>
        <time>2012-04-01T09:01:49Z</time>
      </trkpt>
      <trkpt lat="44.70321" lon="4.86129">
        <ele>243</ele>
        <time>2012-04-01T09:01:59Z</time>
      </trkpt>
      <trkpt lat="44.70306" lon="4.86134">
        <ele>246</ele>
        <time>2012-04-01T09:02:10Z</time>
      </trkpt>
      <trkpt lat="44.70284" lon="4.86127">
        <ele>251</ele>
        <time>2012-04-01T09:02:20Z</time>
      </trkpt>
      <trkpt lat="44.70259" lon="4.86126">
        <ele>252</ele>
        <time>2012-04-01T09:02:30Z</time>
      </trkpt>
      <trkpt lat="44.70245" lon="4.86115">
        <ele>252</ele>
        <time>2012-04-01T09:02:40Z</time>
      </trkpt>
      <trkpt lat="44.70227" lon="4.86113">
        <ele>254</ele>
        <time>2012-04-01T09:02:50Z</time>
      </trkpt>
      <trkpt lat="44.70209" lon="4.86115">
        <ele>257</ele>
        <time>2012-04-01T09:03:01Z</time>
      </trkpt>
      <trkpt lat="44.70191" lon="4.86099">
        <ele>260</ele>
        <time>2012-04-01T09:03:12Z</time>
      </trkpt>
      <trkpt lat="44.70169" lon="4.86082">
        <ele>260</ele>
        <time>2012-04-01T09:03:22Z</time>
      </trkpt>
      <trkpt lat="44.70146" lon="4.86066">
        <ele>256</ele>
        <time>2012-04-01T09:03:32Z</time>
      </trkpt>
      <trkpt lat="44.70146" lon="4.86036">
        <ele>253</ele>
        <time>2012-04-01T09:03:42Z</time>
      </trkpt>
      <trkpt lat="44.70168" lon="4.86012">
        <ele>249</ele>
        <time>2012-04-01T09:03:52Z</time>
      </trkpt>
      <trkpt lat="44.70185" lon="4.85986">
        <ele>246</ele>
        <time>2012-04-01T09:04:02Z</time>
      </trkpt>
      <trkpt lat="44.70195" lon="4.85958">
        <ele>244</ele>
        <time>2012-04-01T09:04:12Z</time>
      </trkpt>
      <trkpt lat="44.70184" lon="4.85924">
        <ele>244</ele>
        <time>2012-04-01T09:04:22Z</time>
      </trkpt>
      <trkpt lat="44.70172" lon="4.85891">
        <ele>244</ele>
        <time>2012-04-01T09:04:32Z</time>
      </trkpt>
      <trkpt lat="44.70166" lon="4.8588">
        <ele>244</ele>
        <time>2012-04-01T09:04:42Z</time>
      </trkpt>
      <trkpt lat="44.70159" lon="4.85853">
        <ele>244</ele>
        <time>2012-04-01T09:04:52Z</time>
      </trkpt>
      <trkpt lat="44.70141" lon="4.85846">
        <ele>244</ele>
        <time>2012-04-01T09:05:02Z</time>
      </trkpt>
      <trkpt lat="44.70114" lon="4.85842">
        <ele>237</ele>
        <time>2012-04-01T09:05:12Z</time>
      </trkpt>
      <trkpt lat="44.70084" lon="4.85821">
        <ele>233</ele>
        <time>2012-04-01T09:05:23Z</time>
      </trkpt>
      <trkpt lat="44.70063" lon="4.85796">
        <ele>230</ele>
        <time>2012-04-01T09:05:33Z</time>
      </trkpt>
      <trkpt lat="44.70057" lon="4.85774">
        <ele>228</ele>
        <time>2012-04-01T09:05:43Z</time>
      </trkpt>
      <trkpt lat="44.70071" lon="4.85759">
        <ele>227</ele>
        <time>2012-04-01T09:05:53Z</time>
      </trkpt>
      <trkpt lat="44.70102" lon="4.85756">
        <ele>227</ele>
        <time>2012-04-01T09:06:04Z</time>
      </trkpt>
      <trkpt lat="44.70127" lon="4.8574">
        <ele>227</ele>
        <time>2012-04-01T09:06:14Z</time>
      </trkpt>
      <trkpt lat="44.70149" lon="4.85716">
        <ele>227</ele>
        <time>2012-04-01T09:06:24Z</time>
      </trkpt>
      <trkpt lat="44.70163" lon="4.85687">
        <ele>224</ele>
        <time>2012-04-01T09:06:34Z</time>
      </trkpt>
      <trkpt lat="44.70155" lon="4.85671">
        <ele>220</ele>
        <time>2012-04-01T09:06:44Z</time>
      </trkpt>
      <trkpt lat="44.7015" lon="4.85656">
        <ele>227</ele>
        <time>2012-04-01T09:06:54Z</time>
      </trkpt>
      <trkpt lat="44.70141" lon="4.85644">
        <ele>228</ele>
        <time>2012-04-01T09:07:05Z</time>
      </trkpt>
      <trkpt lat="44.70136" lon="4.85632">
        <ele>230</ele>
        <time>2012-04-01T09:07:16Z</time>
      </trkpt>
      <trkpt lat="44.70129" lon="4.85622">
        <ele>232</ele>
        <time>2012-04-01T09:07:27Z</time>
      </trkpt>
      <trkpt lat="44.70122" lon="4.85616">
        <ele>232</ele>
        <time>2012-04-01T09:07:38Z</time>
      </trkpt>
      <trkpt lat="44.70115" lon="4.85608">
        <ele>234</ele>
        <time>2012-04-01T09:07:48Z</time>
      </trkpt>
      <trkpt lat="44.70107" lon="4.85599">
        <ele>237</ele>
        <time>2012-04-01T09:07:58Z</time>
      </trkpt>
      <trkpt lat="44.70097" lon="4.85592">
        <ele>243</ele>
        <time>2012-04-01T09:08:09Z</time>
      </trkpt>
      <trkpt lat="44.70086" lon="4.85587">
        <ele>247</ele>
        <time>2012-04-01T09:08:20Z</time>
      </trkpt>
      <trkpt lat="44.70076" lon="4.8558">
        <ele>248</ele>
        <time>2012-04-01T09:08:30Z</time>
      </trkpt>
      <trkpt lat="44.70067" lon="4.85571">
        <ele>252</ele>
        <time>2012-04-01T09:08:40Z</time>
      </trkpt>
      <trkpt lat="44.70058" lon="4.85563">
        <ele>253</ele>
        <time>2012-04-01T09:08:51Z</time>
      </trkpt>
      <trkpt lat="44.70048" lon="4.85558">
        <ele>257</ele>
        <time>2012-04-01T09:09:03Z</time>
      </trkpt>
      <trkpt lat="44.70042" lon="4.85569">
        <ele>261</ele>
        <time>2012-04-01T09:09:13Z</time>
      </trkpt>
      <trkpt lat="44.70035" lon="4.85578">
        <ele>263</ele>
        <time>2012-04-01T09:09:23Z</time>
      </trkpt>
      <trkpt lat="44.70032" lon="4.85592">
        <ele>266</ele>
        <time>2012-04-01T09:09:35Z</time>
      </trkpt>
      <trkpt lat="44.70026" lon="4.85607">
        <ele>270</ele>
        <time>2012-04-01T09:09:46Z</time>
      </trkpt>
      <trkpt lat="44.70021" lon="4.85619">
        <ele>273</ele>
        <time>2012-04-01T09:09:57Z</time>
      </trkpt>
      <trkpt lat="44.7001" lon="4.85628">
        <ele>278</ele>
        <time>2012-04-01T09:10:08Z</time>
      </trkpt>
      <trkpt lat="44.69994" lon="4.85624">
        <ele>279</ele>
        <time>2012-04-01T09:10:18Z</time>
      </trkpt>
      <trkpt lat="44.69974" lon="4.85617">
        <ele>280</ele>
        <time>2012-04-01T09:10:29Z</time>
      </trkpt>
      <trkpt lat="44.69956" lon="4.85606">
        <ele>282</ele>
        <time>2012-04-01T09:10:40Z</time>
      </trkpt>
      <trkpt lat="44.69936" lon="4.85606">
        <ele>285</ele>
        <time>2012-04-01T09:10:50Z</time>
      </trkpt>
      <trkpt lat="44.6991" lon="4.85606">
        <ele>285</ele>
        <time>2012-04-01T09:11:01Z</time>
      </trkpt>
      <trkpt lat="44.69886" lon="4.85613">
        <ele>285</ele>
        <time>2012-04-01T09:11:11Z</time>
      </trkpt>
      <trkpt lat="44.69859" lon="4.85626">
        <ele>285</ele>
        <time>2012-04-01T09:11:22Z</time>
      </trkpt>
      <trkpt lat="44.69828" lon="4.85633">
        <ele>285</ele>
        <time>2012-04-01T09:11:33Z</time>
      </trkpt>
      <trkpt lat="44.69804" lon="4.8564">
        <ele>285</ele>
        <time>2012-04-01T09:11:43Z</time>
      </trkpt>
      <trkpt lat="44.69778" lon="4.85651">
        <ele>285</ele>
        <time>2012-04-01T09:11:53Z</time>
      </trkpt>
      <trkpt lat="44.69749" lon="4.85667">
        <ele>291</ele>
        <time>2012-04-01T09:12:03Z</time>
      </trkpt>
      <trkpt lat="44.69727" lon="4.85678">
        <ele>292</ele>
        <time>2012-04-01T09:12:13Z</time>
      </trkpt>
      <trkpt lat="44.697" lon="4.85694">
        <ele>292</ele>
        <time>2012-04-01T09:12:24Z</time>
      </trkpt>
      <trkpt lat="44.69679" lon="4.857">
        <ele>293</ele>
        <time>2012-04-01T09:12:34Z</time>
      </trkpt>
      <trkpt lat="44.69661" lon="4.85714">
        <ele>295</ele>
        <time>2012-04-01T09:12:45Z</time>
      </trkpt>
      <trkpt lat="44.69645" lon="4.85732">
        <ele>299</ele>
        <time>2012-04-01T09:12:55Z</time>
      </trkpt>
      <trkpt lat="44.69627" lon="4.85743">
        <ele>302</ele>
        <time>2012-04-01T09:13:05Z</time>
      </trkpt>
      <trkpt lat="44.69615" lon="4.85763">
        <ele>307</ele>
        <time>2012-04-01T09:13:15Z</time>
      </trkpt>
      <trkpt lat="44.69602" lon="4.85778">
        <ele>310</ele>
        <time>2012-04-01T09:13:25Z</time>
      </trkpt>
      <trkpt lat="44.69589" lon="4.85793">
        <ele>312</ele>
        <time>2012-04-01T09:13:35Z</time>
      </trkpt>
      <trkpt lat="44.69578" lon="4.858">
        <ele>315</ele>
        <time>2012-04-01T09:13:45Z</time>
      </trkpt>
      <trkpt lat="44.69566" lon="4.85811">
        <ele>317</ele>
        <time>2012-04-01T09:13:56Z</time>
      </trkpt>
      <trkpt lat="44.69555" lon="4.8582">
        <ele>321</ele>
        <time>2012-04-01T09:14:07Z</time>
      </trkpt>
      <trkpt lat="44.69544" lon="4.85831">
        <ele>326</ele>
        <time>2012-04-01T09:14:18Z</time>
      </trkpt>
      <trkpt lat="44.69535" lon="4.85842">
        <ele>331</ele>
        <time>2012-04-01T09:14:28Z</time>
      </trkpt>
      <trkpt lat="44.69527" lon="4.85852">
        <ele>335</ele>
        <time>2012-04-01T09:14:38Z</time>
      </trkpt>
      <trkpt lat="44.69514" lon="4.85864">
        <ele>339</ele>
        <time>2012-04-01T09:14:50Z</time>
      </trkpt>
      <trkpt lat="44.69503" lon="4.85875">
        <ele>342</ele>
        <time>2012-04-01T09:15:01Z</time>
      </trkpt>
      <trkpt lat="44.6949" lon="4.85879">
        <ele>345</ele>
        <time>2012-04-01T09:15:11Z</time>
      </trkpt>
      <trkpt lat="44.69477" lon="4.8588">
        <ele>350</ele>
        <time>2012-04-01T09:15:21Z</time>
      </trkpt>
      <trkpt lat="44.69466" lon="4.85885">
        <ele>352</ele>
        <time>2012-04-01T09:15:32Z</time>
      </trkpt>
      <trkpt lat="44.69454" lon="4.8589">
        <ele>352</ele>
        <time>2012-04-01T09:15:43Z</time>
      </trkpt>
      <trkpt lat="44.69445" lon="4.85893">
        <ele>356</ele>
        <time>2012-04-01T09:15:53Z</time>
      </trkpt>
      <trkpt lat="44.69433" lon="4.85899">
        <ele>359</ele>
        <time>2012-04-01T09:16:04Z</time>
      </trkpt>
      <trkpt lat="44.69418" lon="4.85897">
        <ele>366</ele>
        <time>2012-04-01T09:16:14Z</time>
      </trkpt>
      <trkpt lat="44.69403" lon="4.85901">
        <ele>368</ele>
        <time>2012-04-01T09:16:26Z</time>
      </trkpt>
      <trkpt lat="44.69388" lon="4.85909">
        <ele>368</ele>
        <time>2012-04-01T09:16:36Z</time>
      </trkpt>
      <trkpt lat="44.69376" lon="4.85915">
        <ele>370</ele>
        <time>2012-04-01T09:16:46Z</time>
      </trkpt>
      <trkpt lat="44.69366" lon="4.85918">
        <ele>374</ele>
        <time>2012-04-01T09:16:56Z</time>
      </trkpt>
      <trkpt lat="44.6935" lon="4.85924">
        <ele>376</ele>
        <time>2012-04-01T09:17:07Z</time>
      </trkpt>
      <trkpt lat="44.69337" lon="4.8593">
        <ele>378</ele>
        <time>2012-04-01T09:17:17Z</time>
      </trkpt>
      <trkpt lat="44.69322" lon="4.85936">
        <ele>382</ele>
        <time>2012-04-01T09:17:29Z</time>
      </trkpt>
      <trkpt lat="44.6931" lon="4.85942">
        <ele>385</ele>
        <time>2012-04-01T09:17:39Z</time>
      </trkpt>
      <trkpt lat="44.69298" lon="4.85948">
        <ele>387</ele>
        <time>2012-04-01T09:17:49Z</time>
      </trkpt>
      <trkpt lat="44.69287" lon="4.85953">
        <ele>392</ele>
        <time>2012-04-01T09:17:59Z</time>
      </trkpt>
      <trkpt lat="44.69278" lon="4.85957">
        <ele>397</ele>
        <time>2012-04-01T09:18:10Z</time>
      </trkpt>
      <trkpt lat="44.6927" lon="4.8596">
        <ele>406</ele>
        <time>2012-04-01T09:18:21Z</time>
      </trkpt>
      <trkpt lat="44.69258" lon="4.85964">
        <ele>411</ele>
        <time>2012-04-01T09:18:32Z</time>
      </trkpt>
      <trkpt lat="44.69248" lon="4.85967">
        <ele>415</ele>
        <time>2012-04-01T09:18:43Z</time>
      </trkpt>
      <trkpt lat="44.69239" lon="4.85971">
        <ele>415</ele>
        <time>2012-04-01T09:18:54Z</time>
      </trkpt>
      <trkpt lat="44.69228" lon="4.85973">
        <ele>416</ele>
        <time>2012-04-01T09:19:05Z</time>
      </trkpt>
      <trkpt lat="44.69217" lon="4.85975">
        <ele>420</ele>
        <time>2012-04-01T09:19:16Z</time>
      </trkpt>
      <trkpt lat="44.69205" lon="4.85977">
        <ele>422</ele>
        <time>2012-04-01T09:19:27Z</time>
      </trkpt>
      <trkpt lat="44.69196" lon="4.85981">
        <ele>425</ele>
        <time>2012-04-01T09:19:38Z</time>
      </trkpt>
      <trkpt lat="44.69187" lon="4.85984">
        <ele>429</ele>
        <time>2012-04-01T09:19:48Z</time>
      </trkpt>
      <trkpt lat="44.69174" lon="4.85988">
        <ele>431</ele>
        <time>2012-04-01T09:19:58Z</time>
      </trkpt>
      <trkpt lat="44.69164" lon="4.85993">
        <ele>431</ele>
        <time>2012-04-01T09:20:09Z</time>
      </trkpt>
      <trkpt lat="44.69155" lon="4.86">
        <ele>431</ele>
        <time>2012-04-01T09:20:20Z</time>
      </trkpt>
      <trkpt lat="44.69143" lon="4.86003">
        <ele>433</ele>
        <time>2012-04-01T09:20:31Z</time>
      </trkpt>
      <trkpt lat="44.69134" lon="4.86006">
        <ele>433</ele>
        <time>2012-04-01T09:20:41Z</time>
      </trkpt>
      <trkpt lat="44.69125" lon="4.8601">
        <ele>438</ele>
        <time>2012-04-01T09:20:52Z</time>
      </trkpt>
      <trkpt lat="44.69114" lon="4.86016">
        <ele>442</ele>
        <time>2012-04-01T09:21:02Z</time>
      </trkpt>
      <trkpt lat="44.69105" lon="4.86021">
        <ele>443</ele>
        <time>2012-04-01T09:21:13Z</time>
      </trkpt>
      <trkpt lat="44.69096" lon="4.86027">
        <ele>449</ele>
        <time>2012-04-01T09:21:23Z</time>
      </trkpt>
      <trkpt lat="44.69086" lon="4.86032">
        <ele>451</ele>
        <time>2012-04-01T09:21:35Z</time>
      </trkpt>
      <trkpt lat="44.69075" lon="4.86039">
        <ele>454</ele>
        <time>2012-04-01T09:21:47Z</time>
      </trkpt>
      <trkpt lat="44.69065" lon="4.86045">
        <ele>455</ele>
        <time>2012-04-01T09:21:57Z</time>
      </trkpt>
      <trkpt lat="44.69056" lon="4.86055">
        <ele>457</ele>
        <time>2012-04-01T09:22:07Z</time>
      </trkpt>
      <trkpt lat="44.69046" lon="4.86061">
        <ele>459</ele>
        <time>2012-04-01T09:22:18Z</time>
      </trkpt>
      <trkpt lat="44.6904" lon="4.86074">
        <ele>465</ele>
        <time>2012-04-01T09:22:28Z</time>
      </trkpt>
      <trkpt lat="44.69032" lon="4.8608">
        <ele>470</ele>
        <time>2012-04-01T09:22:39Z</time>
      </trkpt>
      <trkpt lat="44.6902" lon="4.86088">
        <ele>473</ele>
        <time>2012-04-01T09:22:49Z</time>
      </trkpt>
      <trkpt lat="44.69009" lon="4.86099">
        <ele>476</ele>
        <time>2012-04-01T09:23:00Z</time>
      </trkpt>
      <trkpt lat="44.69" lon="4.86108">
        <ele>478</ele>
        <time>2012-04-01T09:23:11Z</time>
      </trkpt>
      <trkpt lat="44.68992" lon="4.86119">
        <ele>482</ele>
        <time>2012-04-01T09:23:22Z</time>
      </trkpt>
      <trkpt lat="44.68986" lon="4.86132">
        <ele>484</ele>
        <time>2012-04-01T09:23:34Z</time>
      </trkpt>
      <trkpt lat="44.68989" lon="4.86139">
        <ele>486</ele>
        <time>2012-04-01T09:23:45Z</time>
      </trkpt>
      <trkpt lat="44.68998" lon="4.86142">
        <ele>488</ele>
        <time>2012-04-01T09:23:55Z</time>
      </trkpt>
      <trkpt lat="44.69" lon="4.86154">
        <ele>491</ele>
        <time>2012-04-01T09:24:06Z</time>
      </trkpt>
      <trkpt lat="44.69008" lon="4.86163">
        <ele>491</ele>
        <time>2012-04-01T09:24:16Z</time>
      </trkpt>
      <trkpt lat="44.69014" lon="4.86177">
        <ele>491</ele>
        <time>2012-04-01T09:24:27Z</time>
      </trkpt>
      <trkpt lat="44.69013" lon="4.86189">
        <ele>491</ele>
        <time>2012-04-01T09:24:38Z</time>
      </trkpt>
      <trkpt lat="44.69" lon="4.86203">
        <ele>491</ele>
        <time>2012-04-01T09:24:48Z</time>
      </trkpt>
      <trkpt lat="44.68981" lon="4.86221">
        <ele>492</ele>
        <time>2012-04-01T09:24:59Z</time>
      </trkpt>
      <trkpt lat="44.68962" lon="4.86238">
        <ele>495</ele>
        <time>2012-04-01T09:25:10Z</time>
      </trkpt>
      <trkpt lat="44.68945" lon="4.86256">
        <ele>496</ele>
        <time>2012-04-01T09:25:20Z</time>
      </trkpt>
      <trkpt lat="44.68933" lon="4.86272">
        <ele>496</ele>
        <time>2012-04-01T09:25:31Z</time>
      </trkpt>
      <trkpt lat="44.68919" lon="4.86297">
        <ele>499</ele>
        <time>2012-04-01T09:25:41Z</time>
      </trkpt>
      <trkpt lat="44.68913" lon="4.86332">
        <ele>507</ele>
        <time>2012-04-01T09:25:52Z</time>
      </trkpt>
      <trkpt lat="44.68901" lon="4.86363">
        <ele>510</ele>
        <time>2012-04-01T09:26:02Z</time>
      </trkpt>
      <trkpt lat="44.68888" lon="4.8639">
        <ele>511</ele>
        <time>2012-04-01T09:26:12Z</time>
      </trkpt>
      <trkpt lat="44.68872" lon="4.86384">
        <ele>511</ele>
        <time>2012-04-01T09:26:23Z</time>
      </trkpt>
      <trkpt lat="44.68854" lon="4.86381">
        <ele>512</ele>
        <time>2012-04-01T09:26:33Z</time>
      </trkpt>
      <trkpt lat="44.68833" lon="4.86378">
        <ele>517</ele>
        <time>2012-04-01T09:26:43Z</time>
      </trkpt>
      <trkpt lat="44.68817" lon="4.86362">
        <ele>517</ele>
        <time>2012-04-01T09:26:53Z</time>
      </trkpt>
      <trkpt lat="44.68798" lon="4.86343">
        <ele>517</ele>
        <time>2012-04-01T09:27:03Z</time>
      </trkpt>
      <trkpt lat="44.68779" lon="4.86336">
        <ele>517</ele>
        <time>2012-04-01T09:27:13Z</time>
      </trkpt>
      <trkpt lat="44.68755" lon="4.86344">
        <ele>513</ele>
        <time>2012-04-01T09:27:24Z</time>
      </trkpt>
      <trkpt lat="44.68734" lon="4.86353">
        <ele>513</ele>
        <time>2012-04-01T09:27:34Z</time>
      </trkpt>
      <trkpt lat="44.6871" lon="4.86357">
        <ele>514</ele>
        <time>2012-04-01T09:27:44Z</time>
      </trkpt>
      <trkpt lat="44.68683" lon="4.86359">
        <ele>515</ele>
        <time>2012-04-01T09:27:54Z</time>
      </trkpt>
      <trkpt lat="44.68658" lon="4.86358">
        <ele>515</ele>
        <time>2012-04-01T09:28:04Z</time>
      </trkpt>
      <trkpt lat="44.68632" lon="4.86353">
        <ele>515</ele>
        <time>2012-04-01T09:28:15Z</time>
      </trkpt>
      <trkpt lat="44.68607" lon="4.86348">
        <ele>515</ele>
        <time>2012-04-01T09:28:25Z</time>
      </trkpt>
      <trkpt lat="44.68587" lon="4.86338">
        <ele>515</ele>
        <time>2012-04-01T09:28:36Z</time>
      </trkpt>
      <trkpt lat="44.68575" lon="4.86327">
        <ele>518</ele>
        <time>2012-04-01T09:28:46Z</time>
      </trkpt>
      <trkpt lat="44.68562" lon="4.86316">
        <ele>519</ele>
        <time>2012-04-01T09:28:57Z</time>
      </trkpt>
      <trkpt lat="44.68546" lon="4.86301">
        <ele>524</ele>
        <time>2012-04-01T09:29:07Z</time>
      </trkpt>
      <trkpt lat="44.6853" lon="4.86298">
        <ele>525</ele>
        <time>2012-04-01T09:29:18Z</time>
      </trkpt>
      <trkpt lat="44.68514" lon="4.86289">
        <ele>525</ele>
        <time>2012-04-01T09:29:28Z</time>
      </trkpt>
      <trkpt lat="44.68496" lon="4.86278">
        <ele>527</ele>
        <time>2012-04-01T09:29:38Z</time>
      </trkpt>
      <trkpt lat="44.68485" lon="4.86268">
        <ele>527</ele>
        <time>2012-04-01T09:29:49Z</time>
      </trkpt>
      <trkpt lat="44.68467" lon="4.86272">
        <ele>527</ele>
        <time>2012-04-01T09:29:59Z</time>
      </trkpt>
      <trkpt lat="44.68446" lon="4.86282">
        <ele>527</ele>
        <time>2012-04-01T09:30:10Z</time>
      </trkpt>
      <trkpt lat="44.68436" lon="4.86303">
        <ele>532</ele>
        <time>2012-04-01T09:30:20Z</time>
      </trkpt>
      <trkpt lat="44.68431" lon="4.86325">
        <ele>533</ele>
        <time>2012-04-01T09:30:30Z</time>
      </trkpt>
      <trkpt lat="44.68413" lon="4.86326">
        <ele>535</ele>
        <time>2012-04-01T09:30:41Z</time>
      </trkpt>
      <trkpt lat="44.68392" lon="4.86323">
        <ele>535</ele>
        <time>2012-04-01T09:30:51Z</time>
      </trkpt>
      <trkpt lat="44.68368" lon="4.86322">
        <ele>534</ele>
        <time>2012-04-01T09:31:01Z</time>
      </trkpt>
      <trkpt lat="44.68339" lon="4.86317">
        <ele>533</ele>
        <time>2012-04-01T09:31:11Z</time>
      </trkpt>
      <trkpt lat="44.68313" lon="4.8632">
        <ele>530</ele>
        <time>2012-04-01T09:31:21Z</time>
      </trkpt>
      <trkpt lat="44.6828" lon="4.86326">
        <ele>525</ele>
        <time>2012-04-01T09:31:32Z</time>
      </trkpt>
      <trkpt lat="44.68252" lon="4.86329">
        <ele>520</ele>
        <time>2012-04-01T09:31:42Z</time>
      </trkpt>
      <trkpt lat="44.68232" lon="4.86349">
        <ele>518</ele>
        <time>2012-04-01T09:31:53Z</time>
      </trkpt>
      <trkpt lat="44.68225" lon="4.86391">
        <ele>518</ele>
        <time>2012-04-01T09:32:04Z</time>
      </trkpt>
      <trkpt lat="44.6824" lon="4.86431">
        <ele>517</ele>
        <time>2012-04-01T09:32:15Z</time>
      </trkpt>
      <trkpt lat="44.68257" lon="4.8646">
        <ele>515</ele>
        <time>2012-04-01T09:32:25Z</time>
      </trkpt>
      <trkpt lat="44.68274" lon="4.86491">
        <ele>513</ele>
        <time>2012-04-01T09:32:35Z</time>
      </trkpt>
      <trkpt lat="44.68294" lon="4.86519">
        <ele>511</ele>
        <time>2012-04-01T09:32:45Z</time>
      </trkpt>
      <trkpt lat="44.68311" lon="4.86545">
        <ele>509</ele>
        <time>2012-04-01T09:32:55Z</time>
      </trkpt>
      <trkpt lat="44.68333" lon="4.86579">
        <ele>509</ele>
        <time>2012-04-01T09:33:06Z</time>
      </trkpt>
      <trkpt lat="44.68345" lon="4.8661">
        <ele>508</ele>
        <time>2012-04-01T09:33:16Z</time>
      </trkpt>
      <trkpt lat="44.68356" lon="4.86645">
        <ele>505</ele>
        <time>2012-04-01T09:33:26Z</time>
      </trkpt>
      <trkpt lat="44.68366" lon="4.86678">
        <ele>503</ele>
        <time>2012-04-01T09:33:36Z</time>
      </trkpt>
      <trkpt lat="44.68372" lon="4.86709">
        <ele>495</ele>
        <time>2012-04-01T09:33:46Z</time>
      </trkpt>
      <trkpt lat="44.68384" lon="4.86744">
        <ele>491</ele>
        <time>2012-04-01T09:33:57Z</time>
      </trkpt>
      <trkpt lat="44.68385" lon="4.86781">
        <ele>488</ele>
        <time>2012-04-01T09:34:08Z</time>
      </trkpt>
      <trkpt lat="44.68386" lon="4.86815">
        <ele>482</ele>
        <time>2012-04-01T09:34:18Z</time>
      </trkpt>
      <trkpt lat="44.68386" lon="4.86851">
        <ele>475</ele>
        <time>2012-04-01T09:34:29Z</time>
      </trkpt>
      <trkpt lat="44.68388" lon="4.86886">
        <ele>471</ele>
        <time>2012-04-01T09:34:39Z</time>
      </trkpt>
      <trkpt lat="44.68385" lon="4.86919">
        <ele>466</ele>
        <time>2012-04-01T09:34:49Z</time>
      </trkpt>
      <trkpt lat="44.68383" lon="4.86953">
        <ele>457</ele>
        <time>2012-04-01T09:35:00Z</time>
      </trkpt>
      <trkpt lat="44.68365" lon="4.86968">
        <ele>452</ele>
        <time>2012-04-01T09:35:10Z</time>
      </trkpt>
      <trkpt lat="44.6834" lon="4.86964">
        <ele>446</ele>
        <time>2012-04-01T09:35:20Z</time>
      </trkpt>
      <trkpt lat="44.68311" lon="4.86959">
        <ele>438</ele>
        <time>2012-04-01T09:35:30Z</time>
      </trkpt>
      <trkpt lat="44.6828" lon="4.86957">
        <ele>434</ele>
        <time>2012-04-01T09:35:40Z</time>
      </trkpt>
      <trkpt lat="44.6825" lon="4.86967">
        <ele>432</ele>
        <time>2012-04-01T09:35:50Z</time>
      </trkpt>
      <trkpt lat="44.68216" lon="4.86978">
        <ele>429</ele>
        <time>2012-04-01T09:36:01Z</time>
      </trkpt>
      <trkpt lat="44.68184" lon="4.8699">
        <ele>425</ele>
        <time>2012-04-01T09:36:11Z</time>
      </trkpt>
      <trkpt lat="44.68152" lon="4.86996">
        <ele>420</ele>
        <time>2012-04-01T09:36:21Z</time>
      </trkpt>
      <trkpt lat="44.68121" lon="4.86994">
        <ele>417</ele>
        <time>2012-04-01T09:36:31Z</time>
      </trkpt>
      <trkpt lat="44.68114" lon="4.8703">
        <ele>417</ele>
        <time>2012-04-01T09:36:41Z</time>
      </trkpt>
      <trkpt lat="44.68103" lon="4.8707">
        <ele>419</ele>
        <time>2012-04-01T09:36:51Z</time>
      </trkpt>
      <trkpt lat="44.68083" lon="4.87101">
        <ele>422</ele>
        <time>2012-04-01T09:37:01Z</time>
      </trkpt>
      <trkpt lat="44.68067" lon="4.87126">
        <ele>422</ele>
        <time>2012-04-01T09:37:11Z</time>
      </trkpt>
      <trkpt lat="44.68055" lon="4.87163">
        <ele>416</ele>
        <time>2012-04-01T09:37:22Z</time>
      </trkpt>
      <trkpt lat="44.68043" lon="4.87198">
        <ele>411</ele>
        <time>2012-04-01T09:37:32Z</time>
      </trkpt>
      <trkpt lat="44.68026" lon="4.87228">
        <ele>409</ele>
        <time>2012-04-01T09:37:42Z</time>
      </trkpt>
      <trkpt lat="44.68015" lon="4.8726">
        <ele>409</ele>
        <time>2012-04-01T09:37:52Z</time>
      </trkpt>
      <trkpt lat="44.68032" lon="4.87272">
        <ele>409</ele>
        <time>2012-04-01T09:38:02Z</time>
      </trkpt>
      <trkpt lat="44.68054" lon="4.87296">
        <ele>409</ele>
        <time>2012-04-01T09:38:12Z</time>
      </trkpt>
      <trkpt lat="44.68066" lon="4.87327">
        <ele>408</ele>
        <time>2012-04-01T09:38:22Z</time>
      </trkpt>
      <trkpt lat="44.68072" lon="4.87358">
        <ele>410</ele>
        <time>2012-04-01T09:38:32Z</time>
      </trkpt>
      <trkpt lat="44.68074" lon="4.87383">
        <ele>411</ele>
        <time>2012-04-01T09:38:42Z</time>
      </trkpt>
      <trkpt lat="44.68076" lon="4.87413">
        <ele>414</ele>
        <time>2012-04-01T09:38:53Z</time>
      </trkpt>
      <trkpt lat="44.68068" lon="4.8744">
        <ele>418</ele>
        <time>2012-04-01T09:39:04Z</time>
      </trkpt>
      <trkpt lat="44.68067" lon="4.87468">
        <ele>423</ele>
        <time>2012-04-01T09:39:14Z</time>
      </trkpt>
      <trkpt lat="44.68064" lon="4.875">
        <ele>426</ele>
        <time>2012-04-01T09:39:25Z</time>
      </trkpt>
      <trkpt lat="44.68055" lon="4.87521">
        <ele>429</ele>
        <time>2012-04-01T09:39:35Z</time>
      </trkpt>
      <trkpt lat="44.68066" lon="4.87534">
        <ele>431</ele>
        <time>2012-04-01T09:39:45Z</time>
      </trkpt>
      <trkpt lat="44.68079" lon="4.8754">
        <ele>432</ele>
        <time>2012-04-01T09:39:55Z</time>
      </trkpt>
      <trkpt lat="44.68091" lon="4.87561">
        <ele>432</ele>
        <time>2012-04-01T09:40:05Z</time>
      </trkpt>
      <trkpt lat="44.68095" lon="4.87586">
        <ele>432</ele>
        <time>2012-04-01T09:40:15Z</time>
      </trkpt>
      <trkpt lat="44.68092" lon="4.87619">
        <ele>436</ele>
        <time>2012-04-01T09:40:26Z</time>
      </trkpt>
      <trkpt lat="44.68102" lon="4.87652">
        <ele>436</ele>
        <time>2012-04-01T09:40:36Z</time>
      </trkpt>
      <trkpt lat="44.68124" lon="4.87684">
        <ele>433</ele>
        <time>2012-04-01T09:40:46Z</time>
      </trkpt>
      <trkpt lat="44.68136" lon="4.8772">
        <ele>430</ele>
        <time>2012-04-01T09:40:57Z</time>
      </trkpt>
      <trkpt lat="44.68158" lon="4.87751">
        <ele>428</ele>
        <time>2012-04-01T09:41:07Z</time>
      </trkpt>
      <trkpt lat="44.68167" lon="4.87786">
        <ele>426</ele>
        <time>2012-04-01T09:41:17Z</time>
      </trkpt>
      <trkpt lat="44.68172" lon="4.87829">
        <ele>426</ele>
        <time>2012-04-01T09:41:27Z</time>
      </trkpt>
      <trkpt lat="44.68193" lon="4.87851">
        <ele>435</ele>
        <time>2012-04-01T09:41:37Z</time>
      </trkpt>
      <trkpt lat="44.68213" lon="4.87859">
        <ele>436</ele>
        <time>2012-04-01T09:41:47Z</time>
      </trkpt>
      <trkpt lat="44.68253" lon="4.87872">
        <ele>433</ele>
        <time>2012-04-01T09:41:58Z</time>
      </trkpt>
      <trkpt lat="44.68265" lon="4.87886">
        <ele>431</ele>
        <time>2012-04-01T09:42:08Z</time>
      </trkpt>
      <trkpt lat="44.68256" lon="4.87902">
        <ele>431</ele>
        <time>2012-04-01T09:42:18Z</time>
      </trkpt>
      <trkpt lat="44.68249" lon="4.87919">
        <ele>433</ele>
        <time>2012-04-01T09:42:28Z</time>
      </trkpt>
      <trkpt lat="44.68243" lon="4.87933">
        <ele>442</ele>
        <time>2012-04-01T09:42:38Z</time>
      </trkpt>
      <trkpt lat="44.68234" lon="4.87944">
        <ele>450</ele>
        <time>2012-04-01T09:42:49Z</time>
      </trkpt>
      <trkpt lat="44.68218" lon="4.87952">
        <ele>456</ele>
        <time>2012-04-01T09:43:00Z</time>
      </trkpt>
      <trkpt lat="44.68219" lon="4.87956">
        <ele>458</ele>
        <time>2012-04-01T09:43:11Z</time>
      </trkpt>
      <trkpt lat="44.68213" lon="4.87966">
        <ele>458</ele>
        <time>2012-04-01T09:43:21Z</time>
      </trkpt>
      <trkpt lat="44.68216" lon="4.87987">
        <ele>456</ele>
        <time>2012-04-01T09:43:31Z</time>
      </trkpt>
      <trkpt lat="44.68224" lon="4.88012">
        <ele>454</ele>
        <time>2012-04-01T09:43:41Z</time>
      </trkpt>
      <trkpt lat="44.68228" lon="4.88038">
        <ele>456</ele>
        <time>2012-04-01T09:43:51Z</time>
      </trkpt>
      <trkpt lat="44.68233" lon="4.88066">
        <ele>460</ele>
        <time>2012-04-01T09:44:02Z</time>
      </trkpt>
      <trkpt lat="44.68237" lon="4.88094">
        <ele>463</ele>
        <time>2012-04-01T09:44:12Z</time>
      </trkpt>
      <trkpt lat="44.68234" lon="4.8812">
        <ele>470</ele>
        <time>2012-04-01T09:44:23Z</time>
      </trkpt>
      <trkpt lat="44.68222" lon="4.88106">
        <ele>474</ele>
        <time>2012-04-01T09:44:33Z</time>
      </trkpt>
      <trkpt lat="44.68206" lon="4.88091">
        <ele>475</ele>
        <time>2012-04-01T09:44:43Z</time>
      </trkpt>
      <trkpt lat="44.68186" lon="4.88075">
        <ele>475</ele>
        <time>2012-04-01T09:44:53Z</time>
      </trkpt>
      <trkpt lat="44.68168" lon="4.88058">
        <ele>476</ele>
        <time>2012-04-01T09:45:04Z</time>
      </trkpt>
      <trkpt lat="44.68148" lon="4.88043">
        <ele>478</ele>
        <time>2012-04-01T09:45:14Z</time>
      </trkpt>
      <trkpt lat="44.68127" lon="4.88024">
        <ele>478</ele>
        <time>2012-04-01T09:45:24Z</time>
      </trkpt>
      <trkpt lat="44.68109" lon="4.88009">
        <ele>478</ele>
        <time>2012-04-01T09:45:34Z</time>
      </trkpt>
      <trkpt lat="44.68089" lon="4.87991">
        <ele>479</ele>
        <time>2012-04-01T09:45:45Z</time>
      </trkpt>
      <trkpt lat="44.68073" lon="4.8798">
        <ele>482</ele>
        <time>2012-04-01T09:45:55Z</time>
      </trkpt>
      <trkpt lat="44.68056" lon="4.87965">
        <ele>488</ele>
        <time>2012-04-01T09:46:06Z</time>
      </trkpt>
      <trkpt lat="44.68043" lon="4.87953">
        <ele>492</ele>
        <time>2012-04-01T09:46:16Z</time>
      </trkpt>
      <trkpt lat="44.68035" lon="4.87942">
        <ele>495</ele>
        <time>2012-04-01T09:46:26Z</time>
      </trkpt>
      <trkpt lat="44.68026" lon="4.87932">
        <ele>495</ele>
        <time>2012-04-01T09:46:36Z</time>
      </trkpt>
      <trkpt lat="44.68015" lon="4.87923">
        <ele>495</ele>
        <time>2012-04-01T09:46:47Z</time>
      </trkpt>
      <trkpt lat="44.68006" lon="4.87911">
        <ele>499</ele>
        <time>2012-04-01T09:46:58Z</time>
      </trkpt>
      <trkpt lat="44.67995" lon="4.87895">
        <ele>501</ele>
        <time>2012-04-01T09:47:09Z</time>
      </trkpt>
      <trkpt lat="44.67984" lon="4.87884">
        <ele>505</ele>
        <time>2012-04-01T09:47:20Z</time>
      </trkpt>
      <trkpt lat="44.67974" lon="4.87867">
        <ele>506</ele>
        <time>2012-04-01T09:47:31Z</time>
      </trkpt>
      <trkpt lat="44.67964" lon="4.87843">
        <ele>506</ele>
        <time>2012-04-01T09:47:41Z</time>
      </trkpt>
      <trkpt lat="44.67946" lon="4.87816">
        <ele>506</ele>
        <time>2012-04-01T09:47:52Z</time>
      </trkpt>
      <trkpt lat="44.67927" lon="4.87789">
        <ele>506</ele>
        <time>2012-04-01T09:48:02Z</time>
      </trkpt>
      <trkpt lat="44.67906" lon="4.87768">
        <ele>509</ele>
        <time>2012-04-01T09:48:12Z</time>
      </trkpt>
      <trkpt lat="44.67881" lon="4.87738">
        <ele>513</ele>
        <time>2012-04-01T09:48:23Z</time>
      </trkpt>
      <trkpt lat="44.67857" lon="4.87712">
        <ele>514</ele>
        <time>2012-04-01T09:48:34Z</time>
      </trkpt>
      <trkpt lat="44.67837" lon="4.87691">
        <ele>515</ele>
        <time>2012-04-01T09:48:45Z</time>
      </trkpt>
      <trkpt lat="44.6782" lon="4.87675">
        <ele>515</ele>
        <time>2012-04-01T09:48:55Z</time>
      </trkpt>
      <trkpt lat="44.67804" lon="4.87656">
        <ele>518</ele>
        <time>2012-04-01T09:49:06Z</time>
      </trkpt>
      <trkpt lat="44.67788" lon="4.87634">
        <ele>519</ele>
        <time>2012-04-01T09:49:16Z</time>
      </trkpt>
      <trkpt lat="44.67773" lon="4.87614">
        <ele>522</ele>
        <time>2012-04-01T09:49:26Z</time>
      </trkpt>
      <trkpt lat="44.67757" lon="4.8759">
        <ele>525</ele>
        <time>2012-04-01T09:49:36Z</time>
      </trkpt>
      <trkpt lat="44.67735" lon="4.87564">
        <ele>530</ele>
        <time>2012-04-01T09:49:46Z</time>
      </trkpt>
      <trkpt lat="44.6771" lon="4.87533">
        <ele>530</ele>
        <time>2012-04-01T09:49:57Z</time>
      </trkpt>
      <trkpt lat="44.67693" lon="4.87508">
        <ele>530</ele>
        <time>2012-04-01T09:50:07Z</time>
      </trkpt>
      <trkpt lat="44.67674" lon="4.8748">
        <ele>530</ele>
        <time>2012-04-01T09:50:17Z</time>
      </trkpt>
      <trkpt lat="44.67653" lon="4.87445">
        <ele>530</ele>
        <time>2012-04-01T09:50:27Z</time>
      </trkpt>
      <trkpt lat="44.6763" lon="4.87413">
        <ele>530</ele>
        <time>2012-04-01T09:50:38Z</time>
      </trkpt>
      <trkpt lat="44.67602" lon="4.87384">
        <ele>534</ele>
        <time>2012-04-01T09:50:49Z</time>
      </trkpt>
      <trkpt lat="44.67585" lon="4.87358">
        <ele>535</ele>
        <time>2012-04-01T09:51:00Z</time>
      </trkpt>
      <trkpt lat="44.67563" lon="4.87332">
        <ele>535</ele>
        <time>2012-04-01T09:51:10Z</time>
      </trkpt>
      <trkpt lat="44.67548" lon="4.87309">
        <ele>535</ele>
        <time>2012-04-01T09:51:20Z</time>
      </trkpt>
      <trkpt lat="44.67532" lon="4.87287">
        <ele>535</ele>
        <time>2012-04-01T09:51:30Z</time>
      </trkpt>
      <trkpt lat="44.67514" lon="4.87259">
        <ele>537</ele>
        <time>2012-04-01T09:51:40Z</time>
      </trkpt>
      <trkpt lat="44.67496" lon="4.8724">
        <ele>540</ele>
        <time>2012-04-01T09:51:50Z</time>
      </trkpt>
      <trkpt lat="44.67486" lon="4.87231">
        <ele>546</ele>
        <time>2012-04-01T09:52:00Z</time>
      </trkpt>
      <trkpt lat="44.67477" lon="4.87213">
        <ele>546</ele>
        <time>2012-04-01T09:52:10Z</time>
      </trkpt>
      <trkpt lat="44.67459" lon="4.87187">
        <ele>546</ele>
        <time>2012-04-01T09:52:21Z</time>
      </trkpt>
      <trkpt lat="44.67442" lon="4.87163">
        <ele>547</ele>
        <time>2012-04-01T09:52:32Z</time>
      </trkpt>
      <trkpt lat="44.67422" lon="4.8714">
        <ele>549</ele>
        <time>2012-04-01T09:52:42Z</time>
      </trkpt>
      <trkpt lat="44.67404" lon="4.87109">
        <ele>550</ele>
        <time>2012-04-01T09:52:52Z</time>
      </trkpt>
      <trkpt lat="44.67385" lon="4.87086">
        <ele>551</ele>
        <time>2012-04-01T09:53:02Z</time>
      </trkpt>
      <trkpt lat="44.67357" lon="4.87066">
        <ele>552</ele>
        <time>2012-04-01T09:53:12Z</time>
      </trkpt>
      <trkpt lat="44.67334" lon="4.87045">
        <ele>553</ele>
        <time>2012-04-01T09:53:22Z</time>
      </trkpt>
      <trkpt lat="44.67314" lon="4.87022">
        <ele>555</ele>
        <time>2012-04-01T09:53:32Z</time>
      </trkpt>
      <trkpt lat="44.67294" lon="4.87002">
        <ele>555</ele>
        <time>2012-04-01T09:53:43Z</time>
      </trkpt>
      <trkpt lat="44.67273" lon="4.86976">
        <ele>555</ele>
        <time>2012-04-01T09:53:54Z</time>
      </trkpt>
      <trkpt lat="44.6725" lon="4.86949">
        <ele>554</ele>
        <time>2012-04-01T09:54:04Z</time>
      </trkpt>
      <trkpt lat="44.67225" lon="4.86927">
        <ele>554</ele>
        <time>2012-04-01T09:54:14Z</time>
      </trkpt>
      <trkpt lat="44.67205" lon="4.86897">
        <ele>554</ele>
        <time>2012-04-01T09:54:24Z</time>
      </trkpt>
      <trkpt lat="44.67178" lon="4.86868">
        <ele>554</ele>
        <time>2012-04-01T09:54:35Z</time>
      </trkpt>
      <trkpt lat="44.67155" lon="4.86846">
        <ele>554</ele>
        <time>2012-04-01T09:54:45Z</time>
      </trkpt>
      <trkpt lat="44.6713" lon="4.86826">
        <ele>557</ele>
        <time>2012-04-01T09:54:56Z</time>
      </trkpt>
      <trkpt lat="44.67107" lon="4.86805">
        <ele>557</ele>
        <time>2012-04-01T09:55:07Z</time>
      </trkpt>
      <trkpt lat="44.67084" lon="4.86783">
        <ele>557</ele>
        <time>2012-04-01T09:55:18Z</time>
      </trkpt>
      <trkpt lat="44.67062" lon="4.86764">
        <ele>554</ele>
        <time>2012-04-01T09:55:29Z</time>
      </trkpt>
      <trkpt lat="44.67038" lon="4.86742">
        <ele>551</ele>
        <time>2012-04-01T09:55:39Z</time>
      </trkpt>
      <trkpt lat="44.67015" lon="4.86723">
        <ele>551</ele>
        <time>2012-04-01T09:55:49Z</time>
      </trkpt>
      <trkpt lat="44.6699" lon="4.86702">
        <ele>551</ele>
        <time>2012-04-01T09:55:59Z</time>
      </trkpt>
      <trkpt lat="44.66966" lon="4.86686">
        <ele>551</ele>
        <time>2012-04-01T09:56:09Z</time>
      </trkpt>
      <trkpt lat="44.66939" lon="4.86663">
        <ele>551</ele>
        <time>2012-04-01T09:56:20Z</time>
      </trkpt>
      <trkpt lat="44.66914" lon="4.8665">
        <ele>551</ele>
        <time>2012-04-01T09:56:30Z</time>
      </trkpt>
      <trkpt lat="44.6689" lon="4.86636">
        <ele>551</ele>
        <time>2012-04-01T09:56:40Z</time>
      </trkpt>
      <trkpt lat="44.66861" lon="4.86618">
        <ele>551</ele>
        <time>2012-04-01T09:56:50Z</time>
      </trkpt>
      <trkpt lat="44.66837" lon="4.86592">
        <ele>545</ele>
        <time>2012-04-01T09:57:01Z</time>
      </trkpt>
      <trkpt lat="44.66812" lon="4.86571">
        <ele>537</ele>
        <time>2012-04-01T09:57:11Z</time>
      </trkpt>
      <trkpt lat="44.66791" lon="4.86549">
        <ele>531</ele>
        <time>2012-04-01T09:57:21Z</time>
      </trkpt>
      <trkpt lat="44.66768" lon="4.86531">
        <ele>521</ele>
        <time>2012-04-01T09:57:31Z</time>
      </trkpt>
      <trkpt lat="44.66743" lon="4.8651">
        <ele>514</ele>
        <time>2012-04-01T09:57:41Z</time>
      </trkpt>
      <trkpt lat="44.66721" lon="4.86486">
        <ele>514</ele>
        <time>2012-04-01T09:57:51Z</time>
      </trkpt>
      <trkpt lat="44.66698" lon="4.8647">
        <ele>514</ele>
        <time>2012-04-01T09:58:01Z</time>
      </trkpt>
      <trkpt lat="44.66692" lon="4.86448">
        <ele>514</ele>
        <time>2012-04-01T09:58:11Z</time>
      </trkpt>
      <trkpt lat="44.6669" lon="4.86443">
        <ele>513</ele>
        <time>2012-04-01T09:58:31Z</time>
      </trkpt>
      <trkpt lat="44.66689" lon="4.86432">
        <ele>511</ele>
        <time>2012-04-01T09:58:42Z</time>
      </trkpt>
      <trkpt lat="44.66681" lon="4.86396">
        <ele>511</ele>
        <time>2012-04-01T09:58:53Z</time>
      </trkpt>
      <trkpt lat="44.66675" lon="4.86364">
        <ele>511</ele>
        <time>2012-04-01T09:59:04Z</time>
      </trkpt>
      <trkpt lat="44.66672" lon="4.86344">
        <ele>514</ele>
        <time>2012-04-01T09:59:14Z</time>
      </trkpt>
      <trkpt lat="44.66669" lon="4.86328">
        <ele>516</ele>
        <time>2012-04-01T09:59:25Z</time>
      </trkpt>
      <trkpt lat="44.66668" lon="4.86311">
        <ele>518</ele>
        <time>2012-04-01T09:59:35Z</time>
      </trkpt>
      <trkpt lat="44.66664" lon="4.86295">
        <ele>522</ele>
        <time>2012-04-01T09:59:45Z</time>
      </trkpt>
      <trkpt lat="44.6666" lon="4.86274">
        <ele>525</ele>
        <time>2012-04-01T09:59:56Z</time>
      </trkpt>
      <trkpt lat="44.66657" lon="4.86255">
        <ele>526</ele>
        <time>2012-04-01T10:00:06Z</time>
      </trkpt>
      <trkpt lat="44.66655" lon="4.86236">
        <ele>527</ele>
        <time>2012-04-01T10:00:16Z</time>
      </trkpt>
      <trkpt lat="44.66653" lon="4.86217">
        <ele>527</ele>
        <time>2012-04-01T10:00:26Z</time>
      </trkpt>
      <trkpt lat="44.6665" lon="4.86196">
        <ele>529</ele>
        <time>2012-04-01T10:00:37Z</time>
      </trkpt>
      <trkpt lat="44.66647" lon="4.86176">
        <ele>530</ele>
        <time>2012-04-01T10:00:47Z</time>
      </trkpt>
      <trkpt lat="44.66644" lon="4.8616">
        <ele>531</ele>
        <time>2012-04-01T10:00:57Z</time>
      </trkpt>
      <trkpt lat="44.66642" lon="4.86141">
        <ele>531</ele>
        <time>2012-04-01T10:01:08Z</time>
      </trkpt>
      <trkpt lat="44.66637" lon="4.86113">
        <ele>531</ele>
        <time>2012-04-01T10:01:18Z</time>
      </trkpt>
      <trkpt lat="44.66631" lon="4.861">
        <ele>532</ele>
        <time>2012-04-01T10:01:28Z</time>
      </trkpt>
      <trkpt lat="44.66616" lon="4.86074">
        <ele>532</ele>
        <time>2012-04-01T10:01:38Z</time>
      </trkpt>
      <trkpt lat="44.66598" lon="4.86042">
        <ele>532</ele>
        <time>2012-04-01T10:01:48Z</time>
      </trkpt>
      <trkpt lat="44.6658" lon="4.86008">
        <ele>532</ele>
        <time>2012-04-01T10:01:59Z</time>
      </trkpt>
      <trkpt lat="44.6656" lon="4.85971">
        <ele>531</ele>
        <time>2012-04-01T10:02:09Z</time>
      </trkpt>
      <trkpt lat="44.66538" lon="4.85934">
        <ele>530</ele>
        <time>2012-04-01T10:02:19Z</time>
      </trkpt>
      <trkpt lat="44.6652" lon="4.85899">
        <ele>530</ele>
        <time>2012-04-01T10:02:29Z</time>
      </trkpt>
      <trkpt lat="44.66499" lon="4.8586">
        <ele>530</ele>
        <time>2012-04-01T10:02:40Z</time>
      </trkpt>
      <trkpt lat="44.6648" lon="4.85827">
        <ele>532</ele>
        <time>2012-04-01T10:02:50Z</time>
      </trkpt>
      <trkpt lat="44.66462" lon="4.85793">
        <ele>532</ele>
        <time>2012-04-01T10:03:00Z</time>
      </trkpt>
      <trkpt lat="44.66444" lon="4.8576">
        <ele>533</ele>
        <time>2012-04-01T10:03:10Z</time>
      </trkpt>
      <trkpt lat="44.66437" lon="4.85745">
        <ele>534</ele>
        <time>2012-04-01T10:03:21Z</time>
      </trkpt>
      <trkpt lat="44.66429" lon="4.85729">
        <ele>534</ele>
        <time>2012-04-01T10:03:31Z</time>
      </trkpt>
      <trkpt lat="44.66422" lon="4.85713">
        <ele>534</ele>
        <time>2012-04-01T10:03:41Z</time>
      </trkpt>
      <trkpt lat="44.66413" lon="4.85697">
        <ele>534</ele>
        <time>2012-04-01T10:03:52Z</time>
      </trkpt>
      <trkpt lat="44.66402" lon="4.85672">
        <ele>534</ele>
        <time>2012-04-01T10:04:02Z</time>
      </trkpt>
      <trkpt lat="44.66391" lon="4.85645">
        <ele>534</ele>
        <time>2012-04-01T10:04:13Z</time>
      </trkpt>
      <trkpt lat="44.66381" lon="4.85628">
        <ele>534</ele>
        <time>2012-04-01T10:04:23Z</time>
      </trkpt>
      <trkpt lat="44.66371" lon="4.856">
        <ele>534</ele>
        <time>2012-04-01T10:04:33Z</time>
      </trkpt>
      <trkpt lat="44.66358" lon="4.8557">
        <ele>534</ele>
        <time>2012-04-01T10:04:43Z</time>
      </trkpt>
      <trkpt lat="44.66344" lon="4.85537">
        <ele>537</ele>
        <time>2012-04-01T10:04:54Z</time>
      </trkpt>
      <trkpt lat="44.66335" lon="4.85504">
        <ele>540</ele>
        <time>2012-04-01T10:05:05Z</time>
      </trkpt>
      <trkpt lat="44.66319" lon="4.85471">
        <ele>545</ele>
        <time>2012-04-01T10:05:15Z</time>
      </trkpt>
      <trkpt lat="44.66302" lon="4.85436">
        <ele>548</ele>
        <time>2012-04-01T10:05:25Z</time>
      </trkpt>
      <trkpt lat="44.66286" lon="4.85401">
        <ele>549</ele>
        <time>2012-04-01T10:05:36Z</time>
      </trkpt>
      <trkpt lat="44.66265" lon="4.85382">
        <ele>552</ele>
        <time>2012-04-01T10:05:46Z</time>
      </trkpt>
      <trkpt lat="44.66243" lon="4.85364">
        <ele>553</ele>
        <time>2012-04-01T10:05:56Z</time>
      </trkpt>
      <trkpt lat="44.66218" lon="4.85371">
        <ele>554</ele>
        <time>2012-04-01T10:06:07Z</time>
      </trkpt>
      <trkpt lat="44.66192" lon="4.85379">
        <ele>560</ele>
        <time>2012-04-01T10:06:18Z</time>
      </trkpt>
      <trkpt lat="44.66177" lon="4.85364">
        <ele>562</ele>
        <time>2012-04-01T10:06:28Z</time>
      </trkpt>
      <trkpt lat="44.66153" lon="4.85347">
        <ele>562</ele>
        <time>2012-04-01T10:06:38Z</time>
      </trkpt>
      <trkpt lat="44.66136" lon="4.85332">
        <ele>564</ele>
        <time>2012-04-01T10:06:49Z</time>
      </trkpt>
      <trkpt lat="44.6612" lon="4.85312">
        <ele>565</ele>
        <time>2012-04-01T10:06:59Z</time>
      </trkpt>
      <trkpt lat="44.661" lon="4.85293">
        <ele>566</ele>
        <time>2012-04-01T10:07:10Z</time>
      </trkpt>
      <trkpt lat="44.66077" lon="4.85284">
        <ele>567</ele>
        <time>2012-04-01T10:07:20Z</time>
      </trkpt>
      <trkpt lat="44.66056" lon="4.85267">
        <ele>570</ele>
        <time>2012-04-01T10:07:31Z</time>
      </trkpt>
      <trkpt lat="44.66031" lon="4.85252">
        <ele>578</ele>
        <time>2012-04-01T10:07:42Z</time>
      </trkpt>
      <trkpt lat="44.6601" lon="4.85239">
        <ele>583</ele>
        <time>2012-04-01T10:07:52Z</time>
      </trkpt>
      <trkpt lat="44.65985" lon="4.85229">
        <ele>589</ele>
        <time>2012-04-01T10:08:03Z</time>
      </trkpt>
      <trkpt lat="44.65958" lon="4.85224">
        <ele>591</ele>
        <time>2012-04-01T10:08:14Z</time>
      </trkpt>
      <trkpt lat="44.6593" lon="4.85217">
        <ele>592</ele>
        <time>2012-04-01T10:08:25Z</time>
      </trkpt>
      <trkpt lat="44.65905" lon="4.85208">
        <ele>592</ele>
        <time>2012-04-01T10:08:36Z</time>
      </trkpt>
      <trkpt lat="44.65882" lon="4.85199">
        <ele>592</ele>
        <time>2012-04-01T10:08:46Z</time>
      </trkpt>
      <trkpt lat="44.65887" lon="4.85161">
        <ele>587</ele>
        <time>2012-04-01T10:08:57Z</time>
      </trkpt>
      <trkpt lat="44.65904" lon="4.85134">
        <ele>581</ele>
        <time>2012-04-01T10:09:07Z</time>
      </trkpt>
      <trkpt lat="44.65926" lon="4.85114">
        <ele>578</ele>
        <time>2012-04-01T10:09:18Z</time>
      </trkpt>
      <trkpt lat="44.65941" lon="4.85087">
        <ele>571</ele>
        <time>2012-04-01T10:09:29Z</time>
      </trkpt>
      <trkpt lat="44.65968" lon="4.85063">
        <ele>570</ele>
        <time>2012-04-01T10:09:40Z</time>
      </trkpt>
      <trkpt lat="44.65989" lon="4.8504">
        <ele>560</ele>
        <time>2012-04-01T10:09:50Z</time>
      </trkpt>
      <trkpt lat="44.66012" lon="4.85024">
        <ele>551</ele>
        <time>2012-04-01T10:10:00Z</time>
      </trkpt>
      <trkpt lat="44.66026" lon="4.85005">
        <ele>543</ele>
        <time>2012-04-01T10:10:10Z</time>
      </trkpt>
      <trkpt lat="44.66038" lon="4.84979">
        <ele>537</ele>
        <time>2012-04-01T10:10:20Z</time>
      </trkpt>
      <trkpt lat="44.66056" lon="4.84952">
        <ele>531</ele>
        <time>2012-04-01T10:10:30Z</time>
      </trkpt>
      <trkpt lat="44.66077" lon="4.84926">
        <ele>525</ele>
        <time>2012-04-01T10:10:40Z</time>
      </trkpt>
      <trkpt lat="44.661" lon="4.84898">
        <ele>521</ele>
        <time>2012-04-01T10:10:50Z</time>
      </trkpt>
      <trkpt lat="44.6613" lon="4.84881">
        <ele>520</ele>
        <time>2012-04-01T10:11:00Z</time>
      </trkpt>
      <trkpt lat="44.66165" lon="4.84867">
        <ele>520</ele>
        <time>2012-04-01T10:11:11Z</time>
      </trkpt>
      <trkpt lat="44.66196" lon="4.84859">
        <ele>517</ele>
        <time>2012-04-01T10:11:22Z</time>
      </trkpt>
      <trkpt lat="44.66227" lon="4.84857">
        <ele>513</ele>
        <time>2012-04-01T10:11:32Z</time>
      </trkpt>
      <trkpt lat="44.66257" lon="4.84858">
        <ele>508</ele>
        <time>2012-04-01T10:11:42Z</time>
      </trkpt>
      <trkpt lat="44.66288" lon="4.84857">
        <ele>503</ele>
        <time>2012-04-01T10:11:53Z</time>
      </trkpt>
      <trkpt lat="44.66321" lon="4.84859">
        <ele>500</ele>
        <time>2012-04-01T10:12:04Z</time>
      </trkpt>
      <trkpt lat="44.6635" lon="4.84855">
        <ele>498</ele>
        <time>2012-04-01T10:12:14Z</time>
      </trkpt>
      <trkpt lat="44.66381" lon="4.84846">
        <ele>497</ele>
        <time>2012-04-01T10:12:25Z</time>
      </trkpt>
      <trkpt lat="44.66407" lon="4.84839">
        <ele>491</ele>
        <time>2012-04-01T10:12:35Z</time>
      </trkpt>
      <trkpt lat="44.66431" lon="4.84828">
        <ele>485</ele>
        <time>2012-04-01T10:12:45Z</time>
      </trkpt>
      <trkpt lat="44.66458" lon="4.84819">
        <ele>479</ele>
        <time>2012-04-01T10:12:56Z</time>
      </trkpt>
      <trkpt lat="44.66484" lon="4.84807">
        <ele>475</ele>
        <time>2012-04-01T10:13:06Z</time>
      </trkpt>
      <trkpt lat="44.66513" lon="4.84802">
        <ele>473</ele>
        <time>2012-04-01T10:13:16Z</time>
      </trkpt>
      <trkpt lat="44.66546" lon="4.84794">
        <ele>471</ele>
        <time>2012-04-01T10:13:27Z</time>
      </trkpt>
      <trkpt lat="44.66578" lon="4.8479">
        <ele>467</ele>
        <time>2012-04-01T10:13:37Z</time>
      </trkpt>
      <trkpt lat="44.66607" lon="4.84779">
        <ele>464</ele>
        <time>2012-04-01T10:13:48Z</time>
      </trkpt>
      <trkpt lat="44.66636" lon="4.84775">
        <ele>463</ele>
        <time>2012-04-01T10:13:58Z</time>
      </trkpt>
      <trkpt lat="44.66665" lon="4.84778">
        <ele>463</ele>
        <time>2012-04-01T10:14:09Z</time>
      </trkpt>
      <trkpt lat="44.66695" lon="4.84771">
        <ele>462</ele>
        <time>2012-04-01T10:14:19Z</time>
      </trkpt>
      <trkpt lat="44.66716" lon="4.84749">
        <ele>460</ele>
        <time>2012-04-01T10:14:29Z</time>
      </trkpt>
      <trkpt lat="44.66709" lon="4.84709">
        <ele>459</ele>
        <time>2012-04-01T10:14:39Z</time>
      </trkpt>
      <trkpt lat="44.66701" lon="4.84671">
        <ele>459</ele>
        <time>2012-04-01T10:14:50Z</time>
      </trkpt>
      <trkpt lat="44.66693" lon="4.84637">
        <ele>459</ele>
        <time>2012-04-01T10:15:00Z</time>
      </trkpt>
      <trkpt lat="44.66687" lon="4.84603">
        <ele>460</ele>
        <time>2012-04-01T10:15:12Z</time>
      </trkpt>
      <trkpt lat="44.66679" lon="4.84585">
        <ele>461</ele>
        <time>2012-04-01T10:15:23Z</time>
      </trkpt>
      <trkpt lat="44.6667" lon="4.84567">
        <ele>461</ele>
        <time>2012-04-01T10:15:33Z</time>
      </trkpt>
      <trkpt lat="44.66667" lon="4.8455">
        <ele>461</ele>
        <time>2012-04-01T10:15:43Z</time>
      </trkpt>
      <trkpt lat="44.66662" lon="4.84531">
        <ele>461</ele>
        <time>2012-04-01T10:15:53Z</time>
      </trkpt>
      <trkpt lat="44.66657" lon="4.84499">
        <ele>462</ele>
        <time>2012-04-01T10:16:03Z</time>
      </trkpt>
      <trkpt lat="44.6666" lon="4.84451">
        <ele>457</ele>
        <time>2012-04-01T10:16:14Z</time>
      </trkpt>
      <trkpt lat="44.66678" lon="4.84415">
        <ele>452</ele>
        <time>2012-04-01T10:16:24Z</time>
      </trkpt>
      <trkpt lat="44.66704" lon="4.84386">
        <ele>449</ele>
        <time>2012-04-01T10:16:34Z</time>
      </trkpt>
      <trkpt lat="44.66729" lon="4.84356">
        <ele>442</ele>
        <time>2012-04-01T10:16:44Z</time>
      </trkpt>
      <trkpt lat="44.66748" lon="4.8432">
        <ele>438</ele>
        <time>2012-04-01T10:16:54Z</time>
      </trkpt>
      <trkpt lat="44.66753" lon="4.84275">
        <ele>436</ele>
        <time>2012-04-01T10:17:04Z</time>
      </trkpt>
      <trkpt lat="44.66755" lon="4.84225">
        <ele>436</ele>
        <time>2012-04-01T10:17:15Z</time>
      </trkpt>
      <trkpt lat="44.66746" lon="4.84175">
        <ele>436</ele>
        <time>2012-04-01T10:17:26Z</time>
      </trkpt>
      <trkpt lat="44.66734" lon="4.84132">
        <ele>431</ele>
        <time>2012-04-01T10:17:37Z</time>
      </trkpt>
      <trkpt lat="44.66727" lon="4.8409">
        <ele>429</ele>
        <time>2012-04-01T10:17:47Z</time>
      </trkpt>
      <trkpt lat="44.66719" lon="4.84047">
        <ele>428</ele>
        <time>2012-04-01T10:17:58Z</time>
      </trkpt>
      <trkpt lat="44.66703" lon="4.84014">
        <ele>424</ele>
        <time>2012-04-01T10:18:08Z</time>
      </trkpt>
      <trkpt lat="44.66684" lon="4.83983">
        <ele>418</ele>
        <time>2012-04-01T10:18:18Z</time>
      </trkpt>
      <trkpt lat="44.66665" lon="4.83952">
        <ele>414</ele>
        <time>2012-04-01T10:18:28Z</time>
      </trkpt>
      <trkpt lat="44.66654" lon="4.83921">
        <ele>413</ele>
        <time>2012-04-01T10:18:39Z</time>
      </trkpt>
      <trkpt lat="44.66635" lon="4.83923">
        <ele>408</ele>
        <time>2012-04-01T10:18:50Z</time>
      </trkpt>
      <trkpt lat="44.66618" lon="4.83958">
        <ele>406</ele>
        <time>2012-04-01T10:19:01Z</time>
      </trkpt>
      <trkpt lat="44.66598" lon="4.83983">
        <ele>401</ele>
        <time>2012-04-01T10:19:11Z</time>
      </trkpt>
      <trkpt lat="44.66574" lon="4.83997">
        <ele>396</ele>
        <time>2012-04-01T10:19:22Z</time>
      </trkpt>
      <trkpt lat="44.66551" lon="4.84008">
        <ele>391</ele>
        <time>2012-04-01T10:19:33Z</time>
      </trkpt>
      <trkpt lat="44.6653" lon="4.84017">
        <ele>385</ele>
        <time>2012-04-01T10:19:43Z</time>
      </trkpt>
      <trkpt lat="44.66505" lon="4.84021">
        <ele>379</ele>
        <time>2012-04-01T10:19:53Z</time>
      </trkpt>
      <trkpt lat="44.66478" lon="4.84023">
        <ele>375</ele>
        <time>2012-04-01T10:20:03Z</time>
      </trkpt>
      <trkpt lat="44.66451" lon="4.84018">
        <ele>373</ele>
        <time>2012-04-01T10:20:13Z</time>
      </trkpt>
      <trkpt lat="44.66421" lon="4.84012">
        <ele>373</ele>
        <time>2012-04-01T10:20:23Z</time>
      </trkpt>
      <trkpt lat="44.66393" lon="4.83994">
        <ele>371</ele>
        <time>2012-04-01T10:20:34Z</time>
      </trkpt>
      <trkpt lat="44.66362" lon="4.83986">
        <ele>367</ele>
        <time>2012-04-01T10:20:45Z</time>
      </trkpt>
      <trkpt lat="44.66334" lon="4.83968">
        <ele>365</ele>
        <time>2012-04-01T10:20:55Z</time>
      </trkpt>
      <trkpt lat="44.66302" lon="4.8396">
        <ele>364</ele>
        <time>2012-04-01T10:21:06Z</time>
      </trkpt>
      <trkpt lat="44.6627" lon="4.83953">
        <ele>364</ele>
        <time>2012-04-01T10:21:17Z</time>
      </trkpt>
      <trkpt lat="44.66243" lon="4.8394">
        <ele>362</ele>
        <time>2012-04-01T10:21:27Z</time>
      </trkpt>
      <trkpt lat="44.66217" lon="4.83925">
        <ele>359</ele>
        <time>2012-04-01T10:21:37Z</time>
      </trkpt>
      <trkpt lat="44.66194" lon="4.83899">
        <ele>354</ele>
        <time>2012-04-01T10:21:48Z</time>
      </trkpt>
      <trkpt lat="44.66179" lon="4.8387">
        <ele>345</ele>
        <time>2012-04-01T10:21:58Z</time>
      </trkpt>
      <trkpt lat="44.66158" lon="4.83845">
        <ele>334</ele>
        <time>2012-04-01T10:22:09Z</time>
      </trkpt>
      <trkpt lat="44.66139" lon="4.83824">
        <ele>327</ele>
        <time>2012-04-01T10:22:19Z</time>
      </trkpt>
      <trkpt lat="44.66156" lon="4.83803">
        <ele>322</ele>
        <time>2012-04-01T10:22:29Z</time>
      </trkpt>
      <trkpt lat="44.66161" lon="4.83795">
        <ele>320</ele>
        <time>2012-04-01T10:22:46Z</time>
      </trkpt>
      <trkpt lat="44.66163" lon="4.83795">
        <ele>320</ele>
        <time>2012-04-01T10:22:59Z</time>
      </trkpt>
      <trkpt lat="44.66175" lon="4.83792">
        <ele>320</ele>
        <time>2012-04-01T10:23:09Z</time>
      </trkpt>
      <trkpt lat="44.66181" lon="4.83793">
        <ele>320</ele>
        <time>2012-04-01T10:23:20Z</time>
      </trkpt>
      <trkpt lat="44.66174" lon="4.8378">
        <ele>317</ele>
        <time>2012-04-01T10:23:30Z</time>
      </trkpt>
      <trkpt lat="44.6615" lon="4.83779">
        <ele>315</ele>
        <time>2012-04-01T10:23:40Z</time>
      </trkpt>
      <trkpt lat="44.66124" lon="4.83783">
        <ele>312</ele>
        <time>2012-04-01T10:23:50Z</time>
      </trkpt>
      <trkpt lat="44.66094" lon="4.83797">
        <ele>311</ele>
        <time>2012-04-01T10:24:01Z</time>
      </trkpt>
      <trkpt lat="44.6608" lon="4.83827">
        <ele>307</ele>
        <time>2012-04-01T10:24:11Z</time>
      </trkpt>
      <trkpt lat="44.66071" lon="4.83865">
        <ele>302</ele>
        <time>2012-04-01T10:24:22Z</time>
      </trkpt>
      <trkpt lat="44.66064" lon="4.839">
        <ele>301</ele>
        <time>2012-04-01T10:24:32Z</time>
      </trkpt>
      <trkpt lat="44.66063" lon="4.83934">
        <ele>295</ele>
        <time>2012-04-01T10:24:42Z</time>
      </trkpt>
      <trkpt lat="44.66076" lon="4.83968">
        <ele>290</ele>
        <time>2012-04-01T10:24:53Z</time>
      </trkpt>
      <trkpt lat="44.66087" lon="4.84005">
        <ele>290</ele>
        <time>2012-04-01T10:25:03Z</time>
      </trkpt>
      <trkpt lat="44.66082" lon="4.84013">
        <ele>287</ele>
        <time>2012-04-01T10:25:14Z</time>
      </trkpt>
      <trkpt lat="44.66061" lon="4.84">
        <ele>285</ele>
        <time>2012-04-01T10:25:24Z</time>
      </trkpt>
      <trkpt lat="44.66049" lon="4.83968">
        <ele>285</ele>
        <time>2012-04-01T10:25:35Z</time>
      </trkpt>
      <trkpt lat="44.66037" lon="4.83945">
        <ele>285</ele>
        <time>2012-04-01T10:25:45Z</time>
      </trkpt>
      <trkpt lat="44.66022" lon="4.83915">
        <ele>280</ele>
        <time>2012-04-01T10:25:55Z</time>
      </trkpt>
      <trkpt lat="44.66009" lon="4.8388">
        <ele>276</ele>
        <time>2012-04-01T10:26:06Z</time>
      </trkpt>
      <trkpt lat="44.66001" lon="4.83846">
        <ele>276</ele>
        <time>2012-04-01T10:26:16Z</time>
      </trkpt>
      <trkpt lat="44.65991" lon="4.83814">
        <ele>276</ele>
        <time>2012-04-01T10:26:26Z</time>
      </trkpt>
      <trkpt lat="44.65984" lon="4.83772">
        <ele>276</ele>
        <time>2012-04-01T10:26:36Z</time>
      </trkpt>
      <trkpt lat="44.65985" lon="4.83741">
        <ele>276</ele>
        <time>2012-04-01T10:26:48Z</time>
      </trkpt>
      <trkpt lat="44.65987" lon="4.83719">
        <ele>276</ele>
        <time>2012-04-01T10:26:58Z</time>
      </trkpt>
      <trkpt lat="44.6598" lon="4.837">
        <ele>276</ele>
        <time>2012-04-01T10:27:09Z</time>
      </trkpt>
      <trkpt lat="44.65967" lon="4.83673">
        <ele>274</ele>
        <time>2012-04-01T10:27:19Z</time>
      </trkpt>
      <trkpt lat="44.65948" lon="4.83651">
        <ele>269</ele>
        <time>2012-04-01T10:27:30Z</time>
      </trkpt>
      <trkpt lat="44.65929" lon="4.83661">
        <ele>264</ele>
        <time>2012-04-01T10:27:40Z</time>
      </trkpt>
      <trkpt lat="44.65913" lon="4.83671">
        <ele>258</ele>
        <time>2012-04-01T10:27:50Z</time>
      </trkpt>
      <trkpt lat="44.65897" lon="4.8368">
        <ele>253</ele>
        <time>2012-04-01T10:28:01Z</time>
      </trkpt>
      <trkpt lat="44.65886" lon="4.83655">
        <ele>246</ele>
        <time>2012-04-01T10:28:11Z</time>
      </trkpt>
      <trkpt lat="44.65874" lon="4.83614">
        <ele>240</ele>
        <time>2012-04-01T10:28:22Z</time>
      </trkpt>
      <trkpt lat="44.65869" lon="4.83606">
        <ele>238</ele>
        <time>2012-04-01T10:28:32Z</time>
      </trkpt>
      <trkpt lat="44.65874" lon="4.83594">
        <ele>237</ele>
        <time>2012-04-01T10:28:43Z</time>
      </trkpt>
      <trkpt lat="44.65879" lon="4.83586">
        <ele>236</ele>
        <time>2012-04-01T10:28:54Z</time>
      </trkpt>
      <trkpt lat="44.6588" lon="4.83576">
        <ele>236</ele>
        <time>2012-04-01T10:29:05Z</time>
      </trkpt>
      <trkpt lat="44.65871" lon="4.83565">
        <ele>236</ele>
        <time>2012-04-01T10:29:15Z</time>
      </trkpt>
      <trkpt lat="44.65862" lon="4.83562">
        <ele>236</ele>
        <time>2012-04-01T10:29:25Z</time>
      </trkpt>
      <trkpt lat="44.65852" lon="4.83554">
        <ele>240</ele>
        <time>2012-04-01T10:29:36Z</time>
      </trkpt>
      <trkpt lat="44.65847" lon="4.83539">
        <ele>240</ele>
        <time>2012-04-01T10:29:47Z</time>
      </trkpt>
      <trkpt lat="44.65844" lon="4.83524">
        <ele>240</ele>
        <time>2012-04-01T10:29:59Z</time>
      </trkpt>
      <trkpt lat="44.65844" lon="4.83502">
        <ele>241</ele>
        <time>2012-04-01T10:30:09Z</time>
      </trkpt>
      <trkpt lat="44.6585" lon="4.83482">
        <ele>239</ele>
        <time>2012-04-01T10:30:20Z</time>
      </trkpt>
      <trkpt lat="44.65857" lon="4.83489">
        <ele>239</ele>
        <time>2012-04-01T10:30:31Z</time>
      </trkpt>
      <trkpt lat="44.65861" lon="4.83501">
        <ele>239</ele>
        <time>2012-04-01T10:30:41Z</time>
      </trkpt>
      <trkpt lat="44.65866" lon="4.83511">
        <ele>241</ele>
        <time>2012-04-01T10:30:51Z</time>
      </trkpt>
      <trkpt lat="44.6587" lon="4.835">
        <ele>244</ele>
        <time>2012-04-01T10:31:01Z</time>
      </trkpt>
      <trkpt lat="44.65876" lon="4.83492">
        <ele>245</ele>
        <time>2012-04-01T10:31:11Z</time>
      </trkpt>
      <trkpt lat="44.65885" lon="4.83486">
        <ele>246</ele>
        <time>2012-04-01T10:31:22Z</time>
      </trkpt>
      <trkpt lat="44.65896" lon="4.83483">
        <ele>246</ele>
        <time>2012-04-01T10:31:33Z</time>
      </trkpt>
      <trkpt lat="44.65908" lon="4.83481">
        <ele>247</ele>
        <time>2012-04-01T10:31:44Z</time>
      </trkpt>
      <trkpt lat="44.65919" lon="4.83478">
        <ele>247</ele>
        <time>2012-04-01T10:31:54Z</time>
      </trkpt>
      <trkpt lat="44.6593" lon="4.83473">
        <ele>247</ele>
        <time>2012-04-01T10:32:04Z</time>
      </trkpt>
      <trkpt lat="44.65941" lon="4.83466">
        <ele>252</ele>
        <time>2012-04-01T10:32:15Z</time>
      </trkpt>
      <trkpt lat="44.65954" lon="4.83461">
        <ele>255</ele>
        <time>2012-04-01T10:32:26Z</time>
      </trkpt>
      <trkpt lat="44.65966" lon="4.83457">
        <ele>257</ele>
        <time>2012-04-01T10:32:37Z</time>
      </trkpt>
      <trkpt lat="44.65979" lon="4.83453">
        <ele>262</ele>
        <time>2012-04-01T10:32:47Z</time>
      </trkpt>
      <trkpt lat="44.65992" lon="4.83449">
        <ele>263</ele>
        <time>2012-04-01T10:32:58Z</time>
      </trkpt>
      <trkpt lat="44.66004" lon="4.83445">
        <ele>264</ele>
        <time>2012-04-01T10:33:08Z</time>
      </trkpt>
      <trkpt lat="44.66016" lon="4.83442">
        <ele>266</ele>
        <time>2012-04-01T10:33:18Z</time>
      </trkpt>
      <trkpt lat="44.66012" lon="4.83458">
        <ele>270</ele>
        <time>2012-04-01T10:33:28Z</time>
      </trkpt>
      <trkpt lat="44.65998" lon="4.83476">
        <ele>276</ele>
        <time>2012-04-01T10:33:38Z</time>
      </trkpt>
      <trkpt lat="44.65993" lon="4.83499">
        <ele>281</ele>
        <time>2012-04-01T10:33:48Z</time>
      </trkpt>
      <trkpt lat="44.66001" lon="4.83493">
        <ele>281</ele>
        <time>2012-04-01T10:33:58Z</time>
      </trkpt>
      <trkpt lat="44.66014" lon="4.83492">
        <ele>281</ele>
        <time>2012-04-01T10:34:09Z</time>
      </trkpt>
      <trkpt lat="44.66026" lon="4.8349">
        <ele>281</ele>
        <time>2012-04-01T10:34:19Z</time>
      </trkpt>
      <trkpt lat="44.66037" lon="4.83486">
        <ele>282</ele>
        <time>2012-04-01T10:34:29Z</time>
      </trkpt>
      <trkpt lat="44.66048" lon="4.83484">
        <ele>288</ele>
        <time>2012-04-01T10:34:40Z</time>
      </trkpt>
      <trkpt lat="44.66058" lon="4.83483">
        <ele>290</ele>
        <time>2012-04-01T10:34:50Z</time>
      </trkpt>
      <trkpt lat="44.6607" lon="4.83479">
        <ele>290</ele>
        <time>2012-04-01T10:35:01Z</time>
      </trkpt>
      <trkpt lat="44.66082" lon="4.83478">
        <ele>291</ele>
        <time>2012-04-01T10:35:11Z</time>
      </trkpt>
      <trkpt lat="44.66098" lon="4.83481">
        <ele>296</ele>
        <time>2012-04-01T10:35:23Z</time>
      </trkpt>
      <trkpt lat="44.6611" lon="4.83478">
        <ele>296</ele>
        <time>2012-04-01T10:35:34Z</time>
      </trkpt>
      <trkpt lat="44.66122" lon="4.83473">
        <ele>299</ele>
        <time>2012-04-01T10:35:45Z</time>
      </trkpt>
      <trkpt lat="44.66134" lon="4.8347">
        <ele>303</ele>
        <time>2012-04-01T10:35:55Z</time>
      </trkpt>
      <trkpt lat="44.66145" lon="4.83468">
        <ele>305</ele>
        <time>2012-04-01T10:36:05Z</time>
      </trkpt>
      <trkpt lat="44.66157" lon="4.83463">
        <ele>308</ele>
        <time>2012-04-01T10:36:16Z</time>
      </trkpt>
      <trkpt lat="44.66168" lon="4.8346">
        <ele>311</ele>
        <time>2012-04-01T10:36:27Z</time>
      </trkpt>
      <trkpt lat="44.66179" lon="4.83455">
        <ele>314</ele>
        <time>2012-04-01T10:36:37Z</time>
      </trkpt>
      <trkpt lat="44.66187" lon="4.83446">
        <ele>314</ele>
        <time>2012-04-01T10:36:47Z</time>
      </trkpt>
      <trkpt lat="44.66194" lon="4.83432">
        <ele>318</ele>
        <time>2012-04-01T10:36:58Z</time>
      </trkpt>
      <trkpt lat="44.662" lon="4.83417">
        <ele>320</ele>
        <time>2012-04-01T10:37:08Z</time>
      </trkpt>
      <trkpt lat="44.66203" lon="4.834">
        <ele>323</ele>
        <time>2012-04-01T10:37:18Z</time>
      </trkpt>
      <trkpt lat="44.66207" lon="4.83374">
        <ele>327</ele>
        <time>2012-04-01T10:37:29Z</time>
      </trkpt>
      <trkpt lat="44.66205" lon="4.83344">
        <ele>329</ele>
        <time>2012-04-01T10:37:40Z</time>
      </trkpt>
      <trkpt lat="44.662" lon="4.8331">
        <ele>332</ele>
        <time>2012-04-01T10:37:51Z</time>
      </trkpt>
      <trkpt lat="44.66212" lon="4.8329">
        <ele>335</ele>
        <time>2012-04-01T10:38:01Z</time>
      </trkpt>
      <trkpt lat="44.66237" lon="4.83284">
        <ele>337</ele>
        <time>2012-04-01T10:38:11Z</time>
      </trkpt>
      <trkpt lat="44.66261" lon="4.83282">
        <ele>339</ele>
        <time>2012-04-01T10:38:21Z</time>
      </trkpt>
      <trkpt lat="44.66284" lon="4.83273">
        <ele>340</ele>
        <time>2012-04-01T10:38:31Z</time>
      </trkpt>
      <trkpt lat="44.66308" lon="4.83258">
        <ele>341</ele>
        <time>2012-04-01T10:38:42Z</time>
      </trkpt>
      <trkpt lat="44.66325" lon="4.83231">
        <ele>342</ele>
        <time>2012-04-01T10:38:53Z</time>
      </trkpt>
      <trkpt lat="44.66323" lon="4.83199">
        <ele>342</ele>
        <time>2012-04-01T10:39:03Z</time>
      </trkpt>
      <trkpt lat="44.66317" lon="4.83169">
        <ele>342</ele>
        <time>2012-04-01T10:39:13Z</time>
      </trkpt>
      <trkpt lat="44.66304" lon="4.83128">
        <ele>342</ele>
        <time>2012-04-01T10:39:24Z</time>
      </trkpt>
      <trkpt lat="44.66303" lon="4.83093">
        <ele>343</ele>
        <time>2012-04-01T10:39:34Z</time>
      </trkpt>
      <trkpt lat="44.6632" lon="4.83071">
        <ele>345</ele>
        <time>2012-04-01T10:39:44Z</time>
      </trkpt>
      <trkpt lat="44.66346" lon="4.83069">
        <ele>345</ele>
        <time>2012-04-01T10:39:54Z</time>
      </trkpt>
      <trkpt lat="44.6637" lon="4.83073">
        <ele>345</ele>
        <time>2012-04-01T10:40:04Z</time>
      </trkpt>
      <trkpt lat="44.66395" lon="4.83073">
        <ele>345</ele>
        <time>2012-04-01T10:40:14Z</time>
      </trkpt>
      <trkpt lat="44.66423" lon="4.83074">
        <ele>344</ele>
        <time>2012-04-01T10:40:25Z</time>
      </trkpt>
      <trkpt lat="44.66441" lon="4.83063">
        <ele>339</ele>
        <time>2012-04-01T10:40:35Z</time>
      </trkpt>
      <trkpt lat="44.66453" lon="4.83033">
        <ele>336</ele>
        <time>2012-04-01T10:40:46Z</time>
      </trkpt>
      <trkpt lat="44.66467" lon="4.83017">
        <ele>336</ele>
        <time>2012-04-01T10:40:56Z</time>
      </trkpt>
      <trkpt lat="44.66476" lon="4.83019">
        <ele>336</ele>
        <time>2012-04-01T10:41:06Z</time>
      </trkpt>
      <trkpt lat="44.66478" lon="4.83052">
        <ele>338</ele>
        <time>2012-04-01T10:41:16Z</time>
      </trkpt>
      <trkpt lat="44.66479" lon="4.83081">
        <ele>341</ele>
        <time>2012-04-01T10:41:26Z</time>
      </trkpt>
      <trkpt lat="44.66473" lon="4.83105">
        <ele>347</ele>
        <time>2012-04-01T10:41:38Z</time>
      </trkpt>
      <trkpt lat="44.66466" lon="4.8312">
        <ele>351</ele>
        <time>2012-04-01T10:41:49Z</time>
      </trkpt>
      <trkpt lat="44.66458" lon="4.83134">
        <ele>356</ele>
        <time>2012-04-01T10:42:00Z</time>
      </trkpt>
      <trkpt lat="44.66448" lon="4.83149">
        <ele>361</ele>
        <time>2012-04-01T10:42:11Z</time>
      </trkpt>
      <trkpt lat="44.66434" lon="4.83157">
        <ele>363</ele>
        <time>2012-04-01T10:42:22Z</time>
      </trkpt>
      <trkpt lat="44.66416" lon="4.8316">
        <ele>363</ele>
        <time>2012-04-01T10:42:32Z</time>
      </trkpt>
      <trkpt lat="44.66396" lon="4.83166">
        <ele>364</ele>
        <time>2012-04-01T10:42:43Z</time>
      </trkpt>
      <trkpt lat="44.66385" lon="4.83187">
        <ele>370</ele>
        <time>2012-04-01T10:42:53Z</time>
      </trkpt>
      <trkpt lat="44.66396" lon="4.83208">
        <ele>370</ele>
        <time>2012-04-01T10:43:03Z</time>
      </trkpt>
      <trkpt lat="44.66407" lon="4.83226">
        <ele>370</ele>
        <time>2012-04-01T10:43:13Z</time>
      </trkpt>
      <trkpt lat="44.66418" lon="4.83248">
        <ele>370</ele>
        <time>2012-04-01T10:43:23Z</time>
      </trkpt>
      <trkpt lat="44.66431" lon="4.83264">
        <ele>370</ele>
        <time>2012-04-01T10:43:33Z</time>
      </trkpt>
      <trkpt lat="44.66446" lon="4.8328">
        <ele>370</ele>
        <time>2012-04-01T10:43:43Z</time>
      </trkpt>
      <trkpt lat="44.66463" lon="4.83288">
        <ele>370</ele>
        <time>2012-04-01T10:43:53Z</time>
      </trkpt>
      <trkpt lat="44.66484" lon="4.83298">
        <ele>370</ele>
        <time>2012-04-01T10:44:04Z</time>
      </trkpt>
      <trkpt lat="44.66505" lon="4.83312">
        <ele>370</ele>
        <time>2012-04-01T10:44:14Z</time>
      </trkpt>
      <trkpt lat="44.6653" lon="4.83335">
        <ele>370</ele>
        <time>2012-04-01T10:44:25Z</time>
      </trkpt>
      <trkpt lat="44.66549" lon="4.83362">
        <ele>370</ele>
        <time>2012-04-01T10:44:35Z</time>
      </trkpt>
      <trkpt lat="44.66563" lon="4.83394">
        <ele>374</ele>
        <time>2012-04-01T10:44:46Z</time>
      </trkpt>
      <trkpt lat="44.66581" lon="4.83412">
        <ele>376</ele>
        <time>2012-04-01T10:44:57Z</time>
      </trkpt>
      <trkpt lat="44.66598" lon="4.83411">
        <ele>377</ele>
        <time>2012-04-01T10:45:07Z</time>
      </trkpt>
      <trkpt lat="44.66623" lon="4.83405">
        <ele>380</ele>
        <time>2012-04-01T10:45:18Z</time>
      </trkpt>
      <trkpt lat="44.66645" lon="4.834">
        <ele>384</ele>
        <time>2012-04-01T10:45:28Z</time>
      </trkpt>
      <trkpt lat="44.66659" lon="4.83413">
        <ele>387</ele>
        <time>2012-04-01T10:45:38Z</time>
      </trkpt>
      <trkpt lat="44.66668" lon="4.83424">
        <ele>389</ele>
        <time>2012-04-01T10:45:48Z</time>
      </trkpt>
      <trkpt lat="44.6668" lon="4.83405">
        <ele>389</ele>
        <time>2012-04-01T10:45:58Z</time>
      </trkpt>
      <trkpt lat="44.66695" lon="4.83381">
        <ele>387</ele>
        <time>2012-04-01T10:46:08Z</time>
      </trkpt>
      <trkpt lat="44.66717" lon="4.83371">
        <ele>384</ele>
        <time>2012-04-01T10:46:18Z</time>
      </trkpt>
      <trkpt lat="44.66739" lon="4.8336">
        <ele>384</ele>
        <time>2012-04-01T10:46:28Z</time>
      </trkpt>
      <trkpt lat="44.66754" lon="4.83358">
        <ele>384</ele>
        <time>2012-04-01T10:46:38Z</time>
      </trkpt>
      <trkpt lat="44.66765" lon="4.83352">
        <ele>382</ele>
        <time>2012-04-01T10:46:48Z</time>
      </trkpt>
      <trkpt lat="44.66784" lon="4.83348">
        <ele>380</ele>
        <time>2012-04-01T10:46:58Z</time>
      </trkpt>
      <trkpt lat="44.66805" lon="4.83337">
        <ele>377</ele>
        <time>2012-04-01T10:47:08Z</time>
      </trkpt>
      <trkpt lat="44.66829" lon="4.8332">
        <ele>374</ele>
        <time>2012-04-01T10:47:19Z</time>
      </trkpt>
      <trkpt lat="44.66854" lon="4.83301">
        <ele>373</ele>
        <time>2012-04-01T10:47:30Z</time>
      </trkpt>
      <trkpt lat="44.66873" lon="4.8328">
        <ele>370</ele>
        <time>2012-04-01T10:47:40Z</time>
      </trkpt>
      <trkpt lat="44.66894" lon="4.83267">
        <ele>366</ele>
        <time>2012-04-01T10:47:50Z</time>
      </trkpt>
      <trkpt lat="44.66908" lon="4.8324">
        <ele>359</ele>
        <time>2012-04-01T10:48:01Z</time>
      </trkpt>
      <trkpt lat="44.66919" lon="4.83217">
        <ele>350</ele>
        <time>2012-04-01T10:48:11Z</time>
      </trkpt>
      <trkpt lat="44.66933" lon="4.83187">
        <ele>344</ele>
        <time>2012-04-01T10:48:22Z</time>
      </trkpt>
      <trkpt lat="44.66952" lon="4.83158">
        <ele>343</ele>
        <time>2012-04-01T10:48:32Z</time>
      </trkpt>
      <trkpt lat="44.66975" lon="4.83143">
        <ele>343</ele>
        <time>2012-04-01T10:48:42Z</time>
      </trkpt>
      <trkpt lat="44.66998" lon="4.83138">
        <ele>343</ele>
        <time>2012-04-01T10:48:52Z</time>
      </trkpt>
      <trkpt lat="44.67022" lon="4.8313">
        <ele>342</ele>
        <time>2012-04-01T10:49:02Z</time>
      </trkpt>
      <trkpt lat="44.67043" lon="4.8312">
        <ele>339</ele>
        <time>2012-04-01T10:49:12Z</time>
      </trkpt>
      <trkpt lat="44.67063" lon="4.83106">
        <ele>334</ele>
        <time>2012-04-01T10:49:23Z</time>
      </trkpt>
      <trkpt lat="44.67078" lon="4.83095">
        <ele>329</ele>
        <time>2012-04-01T10:49:33Z</time>
      </trkpt>
      <trkpt lat="44.67098" lon="4.83074">
        <ele>322</ele>
        <time>2012-04-01T10:49:44Z</time>
      </trkpt>
      <trkpt lat="44.67118" lon="4.83055">
        <ele>315</ele>
        <time>2012-04-01T10:49:54Z</time>
      </trkpt>
      <trkpt lat="44.67138" lon="4.83037">
        <ele>312</ele>
        <time>2012-04-01T10:50:04Z</time>
      </trkpt>
      <trkpt lat="44.67165" lon="4.83025">
        <ele>308</ele>
        <time>2012-04-01T10:50:15Z</time>
      </trkpt>
      <trkpt lat="44.67189" lon="4.83012">
        <ele>307</ele>
        <time>2012-04-01T10:50:25Z</time>
      </trkpt>
      <trkpt lat="44.67213" lon="4.83006">
        <ele>306</ele>
        <time>2012-04-01T10:50:35Z</time>
      </trkpt>
      <trkpt lat="44.67232" lon="4.8299">
        <ele>306</ele>
        <time>2012-04-01T10:50:45Z</time>
      </trkpt>
      <trkpt lat="44.67257" lon="4.82991">
        <ele>303</ele>
        <time>2012-04-01T10:50:55Z</time>
      </trkpt>
      <trkpt lat="44.67279" lon="4.82995">
        <ele>301</ele>
        <time>2012-04-01T10:51:05Z</time>
      </trkpt>
      <trkpt lat="44.67306" lon="4.82995">
        <ele>296</ele>
        <time>2012-04-01T10:51:15Z</time>
      </trkpt>
      <trkpt lat="44.67331" lon="4.82984">
        <ele>292</ele>
        <time>2012-04-01T10:51:25Z</time>
      </trkpt>
      <trkpt lat="44.67347" lon="4.82968">
        <ele>291</ele>
        <time>2012-04-01T10:51:35Z</time>
      </trkpt>
      <trkpt lat="44.67366" lon="4.82942">
        <ele>287</ele>
        <time>2012-04-01T10:51:46Z</time>
      </trkpt>
      <trkpt lat="44.67384" lon="4.82921">
        <ele>287</ele>
        <time>2012-04-01T10:51:56Z</time>
      </trkpt>
      <trkpt lat="44.67407" lon="4.82909">
        <ele>287</ele>
        <time>2012-04-01T10:52:07Z</time>
      </trkpt>
      <trkpt lat="44.67424" lon="4.82886">
        <ele>287</ele>
        <time>2012-04-01T10:52:17Z</time>
      </trkpt>
      <trkpt lat="44.67448" lon="4.8287">
        <ele>287</ele>
        <time>2012-04-01T10:52:27Z</time>
      </trkpt>
      <trkpt lat="44.67469" lon="4.82844">
        <ele>287</ele>
        <time>2012-04-01T10:52:38Z</time>
      </trkpt>
      <trkpt lat="44.67485" lon="4.82818">
        <ele>287</ele>
        <time>2012-04-01T10:52:48Z</time>
      </trkpt>
      <trkpt lat="44.67501" lon="4.82792">
        <ele>287</ele>
        <time>2012-04-01T10:52:58Z</time>
      </trkpt>
      <trkpt lat="44.67516" lon="4.82763">
        <ele>282</ele>
        <time>2012-04-01T10:53:09Z</time>
      </trkpt>
      <trkpt lat="44.67524" lon="4.82736">
        <ele>275</ele>
        <time>2012-04-01T10:53:19Z</time>
      </trkpt>
      <trkpt lat="44.6753" lon="4.82703">
        <ele>273</ele>
        <time>2012-04-01T10:53:29Z</time>
      </trkpt>
      <trkpt lat="44.67529" lon="4.82664">
        <ele>273</ele>
        <time>2012-04-01T10:53:40Z</time>
      </trkpt>
      <trkpt lat="44.67528" lon="4.82631">
        <ele>269</ele>
        <time>2012-04-01T10:53:51Z</time>
      </trkpt>
      <trkpt lat="44.6753" lon="4.82593">
        <ele>264</ele>
        <time>2012-04-01T10:54:02Z</time>
      </trkpt>
      <trkpt lat="44.67532" lon="4.82557">
        <ele>264</ele>
        <time>2012-04-01T10:54:12Z</time>
      </trkpt>
      <trkpt lat="44.6754" lon="4.82534">
        <ele>264</ele>
        <time>2012-04-01T10:54:22Z</time>
      </trkpt>
      <trkpt lat="44.67535" lon="4.82502">
        <ele>264</ele>
        <time>2012-04-01T10:54:32Z</time>
      </trkpt>
      <trkpt lat="44.67531" lon="4.8247">
        <ele>263</ele>
        <time>2012-04-01T10:54:43Z</time>
      </trkpt>
      <trkpt lat="44.67528" lon="4.82442">
        <ele>260</ele>
        <time>2012-04-01T10:54:53Z</time>
      </trkpt>
      <trkpt lat="44.67527" lon="4.82414">
        <ele>253</ele>
        <time>2012-04-01T10:55:03Z</time>
      </trkpt>
      <trkpt lat="44.67527" lon="4.82383">
        <ele>246</ele>
        <time>2012-04-01T10:55:14Z</time>
      </trkpt>
      <trkpt lat="44.67529" lon="4.82356">
        <ele>241</ele>
        <time>2012-04-01T10:55:24Z</time>
      </trkpt>
      <trkpt lat="44.6753" lon="4.82329">
        <ele>237</ele>
        <time>2012-04-01T10:55:34Z</time>
      </trkpt>
      <trkpt lat="44.67532" lon="4.82305">
        <ele>231</ele>
        <time>2012-04-01T10:55:44Z</time>
      </trkpt>
      <trkpt lat="44.67551" lon="4.82313">
        <ele>223</ele>
        <time>2012-04-01T10:55:55Z</time>
      </trkpt>
      <trkpt lat="44.6757" lon="4.82329">
        <ele>214</ele>
        <time>2012-04-01T10:56:05Z</time>
      </trkpt>
      <trkpt lat="44.67589" lon="4.82342">
        <ele>204</ele>
        <time>2012-04-01T10:56:15Z</time>
      </trkpt>
      <trkpt lat="44.67613" lon="4.82345">
        <ele>195</ele>
        <time>2012-04-01T10:56:25Z</time>
      </trkpt>
      <trkpt lat="44.67639" lon="4.82353">
        <ele>190</ele>
        <time>2012-04-01T10:56:36Z</time>
      </trkpt>
      <trkpt lat="44.67662" lon="4.82359">
        <ele>185</ele>
        <time>2012-04-01T10:56:46Z</time>
      </trkpt>
      <trkpt lat="44.67685" lon="4.82356">
        <ele>181</ele>
        <time>2012-04-01T10:56:56Z</time>
      </trkpt>
      <trkpt lat="44.67705" lon="4.82364">
        <ele>179</ele>
        <time>2012-04-01T10:57:06Z</time>
      </trkpt>
      <trkpt lat="44.67727" lon="4.8238">
        <ele>173</ele>
        <time>2012-04-01T10:57:16Z</time>
      </trkpt>
      <trkpt lat="44.67747" lon="4.82402">
        <ele>170</ele>
        <time>2012-04-01T10:57:26Z</time>
      </trkpt>
      <trkpt lat="44.67763" lon="4.82424">
        <ele>167</ele>
        <time>2012-04-01T10:57:36Z</time>
      </trkpt>
      <trkpt lat="44.67772" lon="4.82458">
        <ele>165</ele>
        <time>2012-04-01T10:57:46Z</time>
      </trkpt>
      <trkpt lat="44.67769" lon="4.82492">
        <ele>165</ele>
        <time>2012-04-01T10:57:56Z</time>
      </trkpt>
      <trkpt lat="44.67768" lon="4.82534">
        <ele>165</ele>
        <time>2012-04-01T10:58:07Z</time>
      </trkpt>
      <trkpt lat="44.6777" lon="4.82566">
        <ele>168</ele>
        <time>2012-04-01T10:58:17Z</time>
      </trkpt>
      <trkpt lat="44.67776" lon="4.82589">
        <ele>168</ele>
        <time>2012-04-01T10:58:28Z</time>
      </trkpt>
      <trkpt lat="44.67775" lon="4.82601">
        <ele>167</ele>
        <time>2012-04-01T10:58:38Z</time>
      </trkpt>
      <trkpt lat="44.67773" lon="4.82618">
        <ele>167</ele>
        <time>2012-04-01T10:58:48Z</time>
      </trkpt>
      <trkpt lat="44.67774" lon="4.82637">
        <ele>167</ele>
        <time>2012-04-01T10:58:59Z</time>
      </trkpt>
      <trkpt lat="44.67776" lon="4.82656">
        <ele>167</ele>
        <time>2012-04-01T10:59:10Z</time>
      </trkpt>
      <trkpt lat="44.67774" lon="4.82673">
        <ele>169</ele>
        <time>2012-04-01T10:59:20Z</time>
      </trkpt>
      <trkpt lat="44.67771" lon="4.8269">
        <ele>172</ele>
        <time>2012-04-01T10:59:31Z</time>
      </trkpt>
      <trkpt lat="44.6777" lon="4.8271">
        <ele>174</ele>
        <time>2012-04-01T10:59:41Z</time>
      </trkpt>
      <trkpt lat="44.67762" lon="4.82728">
        <ele>175</ele>
        <time>2012-04-01T10:59:52Z</time>
      </trkpt>
      <trkpt lat="44.67756" lon="4.82746">
        <ele>177</ele>
        <time>2012-04-01T11:00:03Z</time>
      </trkpt>
      <trkpt lat="44.67751" lon="4.82765">
        <ele>179</ele>
        <time>2012-04-01T11:00:14Z</time>
      </trkpt>
      <trkpt lat="44.67751" lon="4.82786">
        <ele>180</ele>
        <time>2012-04-01T11:00:26Z</time>
      </trkpt>
      <trkpt lat="44.67751" lon="4.82811">
        <ele>180</ele>
        <time>2012-04-01T11:00:36Z</time>
      </trkpt>
      <trkpt lat="44.67751" lon="4.82845">
        <ele>180</ele>
        <time>2012-04-01T11:00:46Z</time>
      </trkpt>
      <trkpt lat="44.67749" lon="4.82866">
        <ele>180</ele>
        <time>2012-04-01T11:00:56Z</time>
      </trkpt>
      <trkpt lat="44.67746" lon="4.82885">
        <ele>180</ele>
        <time>2012-04-01T11:01:06Z</time>
      </trkpt>
      <trkpt lat="44.67742" lon="4.82901">
        <ele>180</ele>
        <time>2012-04-01T11:01:18Z</time>
      </trkpt>
      <trkpt lat="44.67738" lon="4.82912">
        <ele>184</ele>
        <time>2012-04-01T11:01:30Z</time>
      </trkpt>
      <trkpt lat="44.67741" lon="4.82891">
        <ele>186</ele>
        <time>2012-04-01T11:01:42Z</time>
      </trkpt>
      <trkpt lat="44.67757" lon="4.82873">
        <ele>186</ele>
        <time>2012-04-01T11:01:52Z</time>
      </trkpt>
      <trkpt lat="44.67764" lon="4.82846">
        <ele>185</ele>
        <time>2012-04-01T11:02:03Z</time>
      </trkpt>
      <trkpt lat="44.67773" lon="4.82827">
        <ele>179</ele>
        <time>2012-04-01T11:02:13Z</time>
      </trkpt>
      <trkpt lat="44.67783" lon="4.82802">
        <ele>176</ele>
        <time>2012-04-01T11:02:23Z</time>
      </trkpt>
      <trkpt lat="44.67784" lon="4.82774">
        <ele>176</ele>
        <time>2012-04-01T11:02:33Z</time>
      </trkpt>
      <trkpt lat="44.67789" lon="4.82733">
        <ele>176</ele>
        <time>2012-04-01T11:02:44Z</time>
      </trkpt>
      <trkpt lat="44.67802" lon="4.82703">
        <ele>176</ele>
        <time>2012-04-01T11:02:54Z</time>
      </trkpt>
      <trkpt lat="44.67812" lon="4.82672">
        <ele>177</ele>
        <time>2012-04-01T11:03:04Z</time>
      </trkpt>
      <trkpt lat="44.67823" lon="4.82641">
        <ele>178</ele>
        <time>2012-04-01T11:03:14Z</time>
      </trkpt>
      <trkpt lat="44.67836" lon="4.82608">
        <ele>178</ele>
        <time>2012-04-01T11:03:25Z</time>
      </trkpt>
      <trkpt lat="44.6785" lon="4.82577">
        <ele>178</ele>
        <time>2012-04-01T11:03:36Z</time>
      </trkpt>
      <trkpt lat="44.67859" lon="4.82541">
        <ele>178</ele>
        <time>2012-04-01T11:03:46Z</time>
      </trkpt>
      <trkpt lat="44.67869" lon="4.8251">
        <ele>180</ele>
        <time>2012-04-01T11:03:56Z</time>
      </trkpt>
      <trkpt lat="44.6788" lon="4.82478">
        <ele>180</ele>
        <time>2012-04-01T11:04:07Z</time>
      </trkpt>
      <trkpt lat="44.67896" lon="4.82453">
        <ele>181</ele>
        <time>2012-04-01T11:04:17Z</time>
      </trkpt>
      <trkpt lat="44.67921" lon="4.82463">
        <ele>181</ele>
        <time>2012-04-01T11:04:27Z</time>
      </trkpt>
      <trkpt lat="44.67939" lon="4.82481">
        <ele>175</ele>
        <time>2012-04-01T11:04:37Z</time>
      </trkpt>
      <trkpt lat="44.67941" lon="4.82453">
        <ele>175</ele>
        <time>2012-04-01T11:04:48Z</time>
      </trkpt>
      <trkpt lat="44.67933" lon="4.82423">
        <ele>178</ele>
        <time>2012-04-01T11:04:58Z</time>
      </trkpt>
      <trkpt lat="44.67926" lon="4.82395">
        <ele>182</ele>
        <time>2012-04-01T11:05:08Z</time>
      </trkpt>
      <trkpt lat="44.6792" lon="4.82365">
        <ele>185</ele>
        <time>2012-04-01T11:05:19Z</time>
      </trkpt>
      <trkpt lat="44.67918" lon="4.82349">
        <ele>187</ele>
        <time>2012-04-01T11:05:30Z</time>
      </trkpt>
      <trkpt lat="44.67919" lon="4.82352">
        <ele>190</ele>
        <time>2012-04-01T11:05:41Z</time>
      </trkpt>
      <trkpt lat="44.67916" lon="4.8235">
        <ele>190</ele>
        <time>2012-04-01T11:05:52Z</time>
      </trkpt>
      <trkpt lat="44.67916" lon="4.82334">
        <ele>190</ele>
        <time>2012-04-01T11:06:02Z</time>
      </trkpt>
      <trkpt lat="44.6792" lon="4.82302">
        <ele>190</ele>
        <time>2012-04-01T11:06:12Z</time>
      </trkpt>
      <trkpt lat="44.67929" lon="4.82284">
        <ele>190</ele>
        <time>2012-04-01T11:06:22Z</time>
      </trkpt>
      <trkpt lat="44.6794" lon="4.8226">
        <ele>190</ele>
        <time>2012-04-01T11:06:32Z</time>
      </trkpt>
      <trkpt lat="44.67952" lon="4.82228">
        <ele>191</ele>
        <time>2012-04-01T11:06:42Z</time>
      </trkpt>
      <trkpt lat="44.67974" lon="4.8221">
        <ele>193</ele>
        <time>2012-04-01T11:06:52Z</time>
      </trkpt>
      <trkpt lat="44.68002" lon="4.82204">
        <ele>193</ele>
        <time>2012-04-01T11:07:03Z</time>
      </trkpt>
      <trkpt lat="44.68028" lon="4.82206">
        <ele>193</ele>
        <time>2012-04-01T11:07:13Z</time>
      </trkpt>
      <trkpt lat="44.6806" lon="4.8221">
        <ele>193</ele>
        <time>2012-04-01T11:07:24Z</time>
      </trkpt>
      <trkpt lat="44.68084" lon="4.82226">
        <ele>190</ele>
        <time>2012-04-01T11:07:34Z</time>
      </trkpt>
      <trkpt lat="44.681" lon="4.82247">
        <ele>190</ele>
        <time>2012-04-01T11:07:44Z</time>
      </trkpt>
      <trkpt lat="44.68116" lon="4.82268">
        <ele>190</ele>
        <time>2012-04-01T11:07:54Z</time>
      </trkpt>
      <trkpt lat="44.68124" lon="4.82288">
        <ele>191</ele>
        <time>2012-04-01T11:08:04Z</time>
      </trkpt>
      <trkpt lat="44.68119" lon="4.82298">
        <ele>195</ele>
        <time>2012-04-01T11:08:24Z</time>
      </trkpt>
      <trkpt lat="44.68118" lon="4.82298">
        <ele>196</ele>
        <time>2012-04-01T11:08:34Z</time>
      </trkpt>
      <trkpt lat="44.6812" lon="4.82302">
        <ele>198</ele>
        <time>2012-04-01T11:08:47Z</time>
      </trkpt>
      <trkpt lat="44.68119" lon="4.82303">
        <ele>202</ele>
        <time>2012-04-01T11:09:01Z</time>
      </trkpt>
      <trkpt lat="44.68117" lon="4.82302">
        <ele>206</ele>
        <time>2012-04-01T11:09:18Z</time>
      </trkpt>
      <trkpt lat="44.68116" lon="4.82303">
        <ele>206</ele>
        <time>2012-04-01T11:09:46Z</time>
      </trkpt>
      <trkpt lat="44.68115" lon="4.82301">
        <ele>207</ele>
        <time>2012-04-01T11:10:21Z</time>
      </trkpt>
      <trkpt lat="44.68116" lon="4.82304">
        <ele>207</ele>
        <time>2012-04-01T11:10:35Z</time>
      </trkpt>
      <trkpt lat="44.68115" lon="4.82305">
        <ele>207</ele>
        <time>2012-04-01T11:10:50Z</time>
      </trkpt>
      <trkpt lat="44.68106" lon="4.82309">
        <ele>207</ele>
        <time>2012-04-01T11:11:01Z</time>
      </trkpt>
      <trkpt lat="44.68096" lon="4.82317">
        <ele>207</ele>
        <time>2012-04-01T11:11:11Z</time>
      </trkpt>
      <trkpt lat="44.68084" lon="4.82324">
        <ele>207</ele>
        <time>2012-04-01T11:11:21Z</time>
      </trkpt>
      <trkpt lat="44.6807" lon="4.82326">
        <ele>207</ele>
        <time>2012-04-01T11:11:32Z</time>
      </trkpt>
      <trkpt lat="44.68057" lon="4.82331">
        <ele>207</ele>
        <time>2012-04-01T11:11:43Z</time>
      </trkpt>
      <trkpt lat="44.68046" lon="4.82338">
        <ele>207</ele>
        <time>2012-04-01T11:11:53Z</time>
      </trkpt>
      <trkpt lat="44.68034" lon="4.82345">
        <ele>209</ele>
        <time>2012-04-01T11:12:04Z</time>
      </trkpt>
      <trkpt lat="44.68026" lon="4.82356">
        <ele>211</ele>
        <time>2012-04-01T11:12:15Z</time>
      </trkpt>
      <trkpt lat="44.68023" lon="4.82371">
        <ele>212</ele>
        <time>2012-04-01T11:12:25Z</time>
      </trkpt>
      <trkpt lat="44.68021" lon="4.82389">
        <ele>215</ele>
        <time>2012-04-01T11:12:35Z</time>
      </trkpt>
      <trkpt lat="44.68018" lon="4.82404">
        <ele>220</ele>
        <time>2012-04-01T11:12:45Z</time>
      </trkpt>
      <trkpt lat="44.6802" lon="4.82419">
        <ele>223</ele>
        <time>2012-04-01T11:12:56Z</time>
      </trkpt>
      <trkpt lat="44.68023" lon="4.82433">
        <ele>223</ele>
        <time>2012-04-01T11:13:06Z</time>
      </trkpt>
      <trkpt lat="44.6803" lon="4.82445">
        <ele>223</ele>
        <time>2012-04-01T11:13:17Z</time>
      </trkpt>
      <trkpt lat="44.68038" lon="4.82459">
        <ele>225</ele>
        <time>2012-04-01T11:13:28Z</time>
      </trkpt>
      <trkpt lat="44.68048" lon="4.82471">
        <ele>227</ele>
        <time>2012-04-01T11:13:38Z</time>
      </trkpt>
      <trkpt lat="44.68057" lon="4.82485">
        <ele>227</ele>
        <time>2012-04-01T11:13:48Z</time>
      </trkpt>
      <trkpt lat="44.68067" lon="4.82499">
        <ele>227</ele>
        <time>2012-04-01T11:13:58Z</time>
      </trkpt>
      <trkpt lat="44.68074" lon="4.82512">
        <ele>229</ele>
        <time>2012-04-01T11:14:09Z</time>
      </trkpt>
      <trkpt lat="44.6808" lon="4.82524">
        <ele>231</ele>
        <time>2012-04-01T11:14:19Z</time>
      </trkpt>
      <trkpt lat="44.68089" lon="4.82539">
        <ele>234</ele>
        <time>2012-04-01T11:14:30Z</time>
      </trkpt>
      <trkpt lat="44.68095" lon="4.82553">
        <ele>238</ele>
        <time>2012-04-01T11:14:40Z</time>
      </trkpt>
      <trkpt lat="44.68101" lon="4.82567">
        <ele>240</ele>
        <time>2012-04-01T11:14:52Z</time>
      </trkpt>
      <trkpt lat="44.68106" lon="4.82583">
        <ele>243</ele>
        <time>2012-04-01T11:15:03Z</time>
      </trkpt>
      <trkpt lat="44.6811" lon="4.82595">
        <ele>243</ele>
        <time>2012-04-01T11:15:13Z</time>
      </trkpt>
      <trkpt lat="44.68116" lon="4.82609">
        <ele>243</ele>
        <time>2012-04-01T11:15:24Z</time>
      </trkpt>
      <trkpt lat="44.68122" lon="4.82623">
        <ele>246</ele>
        <time>2012-04-01T11:15:34Z</time>
      </trkpt>
      <trkpt lat="44.68128" lon="4.82639">
        <ele>249</ele>
        <time>2012-04-01T11:15:45Z</time>
      </trkpt>
      <trkpt lat="44.68135" lon="4.82652">
        <ele>253</ele>
        <time>2012-04-01T11:15:55Z</time>
      </trkpt>
      <trkpt lat="44.68139" lon="4.82668">
        <ele>255</ele>
        <time>2012-04-01T11:16:06Z</time>
      </trkpt>
      <trkpt lat="44.68145" lon="4.82684">
        <ele>256</ele>
        <time>2012-04-01T11:16:16Z</time>
      </trkpt>
      <trkpt lat="44.68148" lon="4.82701">
        <ele>259</ele>
        <time>2012-04-01T11:16:26Z</time>
      </trkpt>
      <trkpt lat="44.68152" lon="4.82718">
        <ele>261</ele>
        <time>2012-04-01T11:16:36Z</time>
      </trkpt>
      <trkpt lat="44.68154" lon="4.82738">
        <ele>264</ele>
        <time>2012-04-01T11:16:46Z</time>
      </trkpt>
      <trkpt lat="44.68155" lon="4.82759">
        <ele>267</ele>
        <time>2012-04-01T11:16:57Z</time>
      </trkpt>
      <trkpt lat="44.68152" lon="4.82785">
        <ele>270</ele>
        <time>2012-04-01T11:17:08Z</time>
      </trkpt>
      <trkpt lat="44.68148" lon="4.82813">
        <ele>273</ele>
        <time>2012-04-01T11:17:18Z</time>
      </trkpt>
      <trkpt lat="44.68143" lon="4.82842">
        <ele>277</ele>
        <time>2012-04-01T11:17:28Z</time>
      </trkpt>
      <trkpt lat="44.6814" lon="4.82872">
        <ele>282</ele>
        <time>2012-04-01T11:17:38Z</time>
      </trkpt>
      <trkpt lat="44.68135" lon="4.82904">
        <ele>284</ele>
        <time>2012-04-01T11:17:49Z</time>
      </trkpt>
      <trkpt lat="44.68124" lon="4.8293">
        <ele>284</ele>
        <time>2012-04-01T11:17:59Z</time>
      </trkpt>
      <trkpt lat="44.68113" lon="4.82951">
        <ele>284</ele>
        <time>2012-04-01T11:18:09Z</time>
      </trkpt>
      <trkpt lat="44.68104" lon="4.82978">
        <ele>284</ele>
        <time>2012-04-01T11:18:19Z</time>
      </trkpt>
      <trkpt lat="44.68097" lon="4.8301">
        <ele>286</ele>
        <time>2012-04-01T11:18:30Z</time>
      </trkpt>
      <trkpt lat="44.68091" lon="4.83037">
        <ele>288</ele>
        <time>2012-04-01T11:18:40Z</time>
      </trkpt>
      <trkpt lat="44.68088" lon="4.83061">
        <ele>290</ele>
        <time>2012-04-01T11:18:50Z</time>
      </trkpt>
      <trkpt lat="44.68087" lon="4.83082">
        <ele>292</ele>
        <time>2012-04-01T11:19:00Z</time>
      </trkpt>
      <trkpt lat="44.68084" lon="4.83107">
        <ele>294</ele>
        <time>2012-04-01T11:19:10Z</time>
      </trkpt>
      <trkpt lat="44.68086" lon="4.83131">
        <ele>296</ele>
        <time>2012-04-01T11:19:20Z</time>
      </trkpt>
      <trkpt lat="44.68095" lon="4.83151">
        <ele>296</ele>
        <time>2012-04-01T11:19:31Z</time>
      </trkpt>
      <trkpt lat="44.68105" lon="4.8317">
        <ele>299</ele>
        <time>2012-04-01T11:19:41Z</time>
      </trkpt>
      <trkpt lat="44.68113" lon="4.83189">
        <ele>301</ele>
        <time>2012-04-01T11:19:51Z</time>
      </trkpt>
      <trkpt lat="44.68121" lon="4.8321">
        <ele>303</ele>
        <time>2012-04-01T11:20:01Z</time>
      </trkpt>
      <trkpt lat="44.68135" lon="4.83223">
        <ele>305</ele>
        <time>2012-04-01T11:20:11Z</time>
      </trkpt>
      <trkpt lat="44.68148" lon="4.83239">
        <ele>308</ele>
        <time>2012-04-01T11:20:21Z</time>
      </trkpt>
      <trkpt lat="44.68158" lon="4.83261">
        <ele>312</ele>
        <time>2012-04-01T11:20:31Z</time>
      </trkpt>
      <trkpt lat="44.68156" lon="4.83277">
        <ele>314</ele>
        <time>2012-04-01T11:20:41Z</time>
      </trkpt>
      <trkpt lat="44.68148" lon="4.83297">
        <ele>314</ele>
        <time>2012-04-01T11:20:53Z</time>
      </trkpt>
      <trkpt lat="44.6814" lon="4.83313">
        <ele>315</ele>
        <time>2012-04-01T11:21:04Z</time>
      </trkpt>
      <trkpt lat="44.68133" lon="4.8333">
        <ele>319</ele>
        <time>2012-04-01T11:21:16Z</time>
      </trkpt>
      <trkpt lat="44.68129" lon="4.83345">
        <ele>322</ele>
        <time>2012-04-01T11:21:26Z</time>
      </trkpt>
      <trkpt lat="44.68125" lon="4.8336">
        <ele>324</ele>
        <time>2012-04-01T11:21:37Z</time>
      </trkpt>
      <trkpt lat="44.68121" lon="4.83375">
        <ele>325</ele>
        <time>2012-04-01T11:21:48Z</time>
      </trkpt>
      <trkpt lat="44.68116" lon="4.83386">
        <ele>325</ele>
        <time>2012-04-01T11:21:58Z</time>
      </trkpt>
      <trkpt lat="44.68113" lon="4.83399">
        <ele>325</ele>
        <time>2012-04-01T11:22:08Z</time>
      </trkpt>
      <trkpt lat="44.68111" lon="4.83414">
        <ele>326</ele>
        <time>2012-04-01T11:22:18Z</time>
      </trkpt>
      <trkpt lat="44.68111" lon="4.83431">
        <ele>329</ele>
        <time>2012-04-01T11:22:28Z</time>
      </trkpt>
      <trkpt lat="44.68102" lon="4.83465">
        <ele>333</ele>
        <time>2012-04-01T11:22:39Z</time>
      </trkpt>
      <trkpt lat="44.6809" lon="4.83496">
        <ele>334</ele>
        <time>2012-04-01T11:22:49Z</time>
      </trkpt>
      <trkpt lat="44.68077" lon="4.83522">
        <ele>334</ele>
        <time>2012-04-01T11:22:59Z</time>
      </trkpt>
      <trkpt lat="44.68069" lon="4.83556">
        <ele>334</ele>
        <time>2012-04-01T11:23:09Z</time>
      </trkpt>
      <trkpt lat="44.68078" lon="4.83597">
        <ele>334</ele>
        <time>2012-04-01T11:23:20Z</time>
      </trkpt>
      <trkpt lat="44.6809" lon="4.83632">
        <ele>332</ele>
        <time>2012-04-01T11:23:31Z</time>
      </trkpt>
      <trkpt lat="44.681" lon="4.83669">
        <ele>332</ele>
        <time>2012-04-01T11:23:42Z</time>
      </trkpt>
      <trkpt lat="44.68109" lon="4.83704">
        <ele>332</ele>
        <time>2012-04-01T11:23:53Z</time>
      </trkpt>
      <trkpt lat="44.68122" lon="4.83734">
        <ele>333</ele>
        <time>2012-04-01T11:24:04Z</time>
      </trkpt>
      <trkpt lat="44.68133" lon="4.8376">
        <ele>333</ele>
        <time>2012-04-01T11:24:15Z</time>
      </trkpt>
      <trkpt lat="44.68142" lon="4.83785">
        <ele>335</ele>
        <time>2012-04-01T11:24:25Z</time>
      </trkpt>
      <trkpt lat="44.68144" lon="4.83813">
        <ele>337</ele>
        <time>2012-04-01T11:24:35Z</time>
      </trkpt>
      <trkpt lat="44.68147" lon="4.8383">
        <ele>338</ele>
        <time>2012-04-01T11:24:46Z</time>
      </trkpt>
      <trkpt lat="44.68148" lon="4.83845">
        <ele>338</ele>
        <time>2012-04-01T11:24:56Z</time>
      </trkpt>
      <trkpt lat="44.68152" lon="4.83858">
        <ele>338</ele>
        <time>2012-04-01T11:25:07Z</time>
      </trkpt>
      <trkpt lat="44.68162" lon="4.83867">
        <ele>341</ele>
        <time>2012-04-01T11:25:17Z</time>
      </trkpt>
      <trkpt lat="44.68187" lon="4.83871">
        <ele>343</ele>
        <time>2012-04-01T11:25:28Z</time>
      </trkpt>
      <trkpt lat="44.68212" lon="4.83877">
        <ele>343</ele>
        <time>2012-04-01T11:25:38Z</time>
      </trkpt>
      <trkpt lat="44.68231" lon="4.83901">
        <ele>343</ele>
        <time>2012-04-01T11:25:48Z</time>
      </trkpt>
      <trkpt lat="44.68256" lon="4.83908">
        <ele>343</ele>
        <time>2012-04-01T11:25:59Z</time>
      </trkpt>
      <trkpt lat="44.68281" lon="4.83907">
        <ele>343</ele>
        <time>2012-04-01T11:26:09Z</time>
      </trkpt>
      <trkpt lat="44.68298" lon="4.83937">
        <ele>343</ele>
        <time>2012-04-01T11:26:20Z</time>
      </trkpt>
      <trkpt lat="44.68324" lon="4.83941">
        <ele>341</ele>
        <time>2012-04-01T11:26:30Z</time>
      </trkpt>
      <trkpt lat="44.68356" lon="4.83939">
        <ele>341</ele>
        <time>2012-04-01T11:26:41Z</time>
      </trkpt>
      <trkpt lat="44.68383" lon="4.83949">
        <ele>341</ele>
        <time>2012-04-01T11:26:52Z</time>
      </trkpt>
      <trkpt lat="44.68395" lon="4.83984">
        <ele>341</ele>
        <time>2012-04-01T11:27:02Z</time>
      </trkpt>
      <trkpt lat="44.68406" lon="4.84016">
        <ele>341</ele>
        <time>2012-04-01T11:27:12Z</time>
      </trkpt>
      <trkpt lat="44.68418" lon="4.84049">
        <ele>341</ele>
        <time>2012-04-01T11:27:23Z</time>
      </trkpt>
      <trkpt lat="44.68443" lon="4.84064">
        <ele>341</ele>
        <time>2012-04-01T11:27:33Z</time>
      </trkpt>
      <trkpt lat="44.68467" lon="4.84061">
        <ele>341</ele>
        <time>2012-04-01T11:27:43Z</time>
      </trkpt>
      <trkpt lat="44.68477" lon="4.84057">
        <ele>341</ele>
        <time>2012-04-01T11:27:54Z</time>
      </trkpt>
      <trkpt lat="44.68486" lon="4.84044">
        <ele>341</ele>
        <time>2012-04-01T11:28:06Z</time>
      </trkpt>
      <trkpt lat="44.68491" lon="4.84031">
        <ele>338</ele>
        <time>2012-04-01T11:28:16Z</time>
      </trkpt>
      <trkpt lat="44.68494" lon="4.84018">
        <ele>337</ele>
        <time>2012-04-01T11:28:26Z</time>
      </trkpt>
      <trkpt lat="44.68502" lon="4.83999">
        <ele>335</ele>
        <time>2012-04-01T11:28:38Z</time>
      </trkpt>
      <trkpt lat="44.68515" lon="4.8397">
        <ele>333</ele>
        <time>2012-04-01T11:28:48Z</time>
      </trkpt>
      <trkpt lat="44.68535" lon="4.8396">
        <ele>326</ele>
        <time>2012-04-01T11:28:58Z</time>
      </trkpt>
      <trkpt lat="44.68557" lon="4.83948">
        <ele>318</ele>
        <time>2012-04-01T11:29:08Z</time>
      </trkpt>
      <trkpt lat="44.6857" lon="4.83919">
        <ele>311</ele>
        <time>2012-04-01T11:29:18Z</time>
      </trkpt>
      <trkpt lat="44.68584" lon="4.83894">
        <ele>307</ele>
        <time>2012-04-01T11:29:28Z</time>
      </trkpt>
      <trkpt lat="44.686" lon="4.83874">
        <ele>300</ele>
        <time>2012-04-01T11:29:38Z</time>
      </trkpt>
      <trkpt lat="44.68614" lon="4.83848">
        <ele>294</ele>
        <time>2012-04-01T11:29:48Z</time>
      </trkpt>
      <trkpt lat="44.6864" lon="4.83841">
        <ele>291</ele>
        <time>2012-04-01T11:29:59Z</time>
      </trkpt>
      <trkpt lat="44.68662" lon="4.83848">
        <ele>290</ele>
        <time>2012-04-01T11:30:09Z</time>
      </trkpt>
      <trkpt lat="44.68667" lon="4.83881">
        <ele>289</ele>
        <time>2012-04-01T11:30:20Z</time>
      </trkpt>
      <trkpt lat="44.68668" lon="4.83915">
        <ele>286</ele>
        <time>2012-04-01T11:30:30Z</time>
      </trkpt>
      <trkpt lat="44.68669" lon="4.83929">
        <ele>281</ele>
        <time>2012-04-01T11:30:40Z</time>
      </trkpt>
      <trkpt lat="44.68682" lon="4.8391">
        <ele>276</ele>
        <time>2012-04-01T11:30:51Z</time>
      </trkpt>
      <trkpt lat="44.687" lon="4.8389">
        <ele>268</ele>
        <time>2012-04-01T11:31:01Z</time>
      </trkpt>
      <trkpt lat="44.68714" lon="4.83876">
        <ele>265</ele>
        <time>2012-04-01T11:31:11Z</time>
      </trkpt>
      <trkpt lat="44.68724" lon="4.8385">
        <ele>261</ele>
        <time>2012-04-01T11:31:21Z</time>
      </trkpt>
      <trkpt lat="44.68733" lon="4.83818">
        <ele>255</ele>
        <time>2012-04-01T11:31:32Z</time>
      </trkpt>
      <trkpt lat="44.6874" lon="4.83786">
        <ele>253</ele>
        <time>2012-04-01T11:31:42Z</time>
      </trkpt>
      <trkpt lat="44.68743" lon="4.83759">
        <ele>250</ele>
        <time>2012-04-01T11:31:52Z</time>
      </trkpt>
      <trkpt lat="44.68747" lon="4.83726">
        <ele>245</ele>
        <time>2012-04-01T11:32:03Z</time>
      </trkpt>
      <trkpt lat="44.68755" lon="4.83702">
        <ele>243</ele>
        <time>2012-04-01T11:32:13Z</time>
      </trkpt>
      <trkpt lat="44.68752" lon="4.83668">
        <ele>241</ele>
        <time>2012-04-01T11:32:23Z</time>
      </trkpt>
      <trkpt lat="44.6873" lon="4.8365">
        <ele>236</ele>
        <time>2012-04-01T11:32:33Z</time>
      </trkpt>
      <trkpt lat="44.68745" lon="4.83636">
        <ele>232</ele>
        <time>2012-04-01T11:32:44Z</time>
      </trkpt>
      <trkpt lat="44.6876" lon="4.83631">
        <ele>229</ele>
        <time>2012-04-01T11:32:54Z</time>
      </trkpt>
      <trkpt lat="44.68777" lon="4.83626">
        <ele>228</ele>
        <time>2012-04-01T11:33:04Z</time>
      </trkpt>
      <trkpt lat="44.68786" lon="4.83604">
        <ele>228</ele>
        <time>2012-04-01T11:33:15Z</time>
      </trkpt>
      <trkpt lat="44.68795" lon="4.8359">
        <ele>228</ele>
        <time>2012-04-01T11:33:26Z</time>
      </trkpt>
      <trkpt lat="44.68804" lon="4.83577">
        <ele>228</ele>
        <time>2012-04-01T11:33:37Z</time>
      </trkpt>
      <trkpt lat="44.68812" lon="4.83559">
        <ele>230</ele>
        <time>2012-04-01T11:33:48Z</time>
      </trkpt>
      <trkpt lat="44.68819" lon="4.83544">
        <ele>232</ele>
        <time>2012-04-01T11:33:58Z</time>
      </trkpt>
      <trkpt lat="44.68826" lon="4.83526">
        <ele>233</ele>
        <time>2012-04-01T11:34:08Z</time>
      </trkpt>
      <trkpt lat="44.68832" lon="4.83491">
        <ele>235</ele>
        <time>2012-04-01T11:34:19Z</time>
      </trkpt>
      <trkpt lat="44.68842" lon="4.83453">
        <ele>240</ele>
        <time>2012-04-01T11:34:30Z</time>
      </trkpt>
      <trkpt lat="44.6885" lon="4.83419">
        <ele>242</ele>
        <time>2012-04-01T11:34:40Z</time>
      </trkpt>
      <trkpt lat="44.68864" lon="4.83397">
        <ele>243</ele>
        <time>2012-04-01T11:34:50Z</time>
      </trkpt>
      <trkpt lat="44.68885" lon="4.83381">
        <ele>244</ele>
        <time>2012-04-01T11:35:00Z</time>
      </trkpt>
      <trkpt lat="44.68909" lon="4.8337">
        <ele>245</ele>
        <time>2012-04-01T11:35:11Z</time>
      </trkpt>
      <trkpt lat="44.68937" lon="4.8336">
        <ele>245</ele>
        <time>2012-04-01T11:35:22Z</time>
      </trkpt>
      <trkpt lat="44.68967" lon="4.83353">
        <ele>245</ele>
        <time>2012-04-01T11:35:32Z</time>
      </trkpt>
      <trkpt lat="44.68994" lon="4.83342">
        <ele>245</ele>
        <time>2012-04-01T11:35:42Z</time>
      </trkpt>
      <trkpt lat="44.6902" lon="4.83331">
        <ele>245</ele>
        <time>2012-04-01T11:35:52Z</time>
      </trkpt>
      <trkpt lat="44.69039" lon="4.83341">
        <ele>246</ele>
        <time>2012-04-01T11:36:04Z</time>
      </trkpt>
      <trkpt lat="44.6904" lon="4.83357">
        <ele>246</ele>
        <time>2012-04-01T11:36:14Z</time>
      </trkpt>
      <trkpt lat="44.69045" lon="4.8337">
        <ele>250</ele>
        <time>2012-04-01T11:36:25Z</time>
      </trkpt>
      <trkpt lat="44.69048" lon="4.83383">
        <ele>258</ele>
        <time>2012-04-01T11:36:35Z</time>
      </trkpt>
      <trkpt lat="44.69047" lon="4.83397">
        <ele>258</ele>
        <time>2012-04-01T11:36:45Z</time>
      </trkpt>
      <trkpt lat="44.6904" lon="4.83406">
        <ele>258</ele>
        <time>2012-04-01T11:36:55Z</time>
      </trkpt>
      <trkpt lat="44.69039" lon="4.83422">
        <ele>260</ele>
        <time>2012-04-01T11:37:07Z</time>
      </trkpt>
      <trkpt lat="44.69039" lon="4.83434">
        <ele>263</ele>
        <time>2012-04-01T11:37:18Z</time>
      </trkpt>
      <trkpt lat="44.69041" lon="4.8345">
        <ele>263</ele>
        <time>2012-04-01T11:37:29Z</time>
      </trkpt>
      <trkpt lat="44.69043" lon="4.83465">
        <ele>268</ele>
        <time>2012-04-01T11:37:41Z</time>
      </trkpt>
      <trkpt lat="44.69046" lon="4.83477">
        <ele>273</ele>
        <time>2012-04-01T11:37:51Z</time>
      </trkpt>
      <trkpt lat="44.69043" lon="4.83492">
        <ele>275</ele>
        <time>2012-04-01T11:38:03Z</time>
      </trkpt>
      <trkpt lat="44.69038" lon="4.83506">
        <ele>276</ele>
        <time>2012-04-01T11:38:15Z</time>
      </trkpt>
      <trkpt lat="44.69035" lon="4.83522">
        <ele>280</ele>
        <time>2012-04-01T11:38:27Z</time>
      </trkpt>
      <trkpt lat="44.69035" lon="4.83536">
        <ele>282</ele>
        <time>2012-04-01T11:38:38Z</time>
      </trkpt>
      <trkpt lat="44.69026" lon="4.83547">
        <ele>285</ele>
        <time>2012-04-01T11:38:50Z</time>
      </trkpt>
      <trkpt lat="44.69016" lon="4.83557">
        <ele>285</ele>
        <time>2012-04-01T11:39:02Z</time>
      </trkpt>
      <trkpt lat="44.69011" lon="4.8357">
        <ele>285</ele>
        <time>2012-04-01T11:39:13Z</time>
      </trkpt>
      <trkpt lat="44.69" lon="4.83583">
        <ele>292</ele>
        <time>2012-04-01T11:39:25Z</time>
      </trkpt>
      <trkpt lat="44.68992" lon="4.83595">
        <ele>295</ele>
        <time>2012-04-01T11:39:36Z</time>
      </trkpt>
      <trkpt lat="44.68985" lon="4.83605">
        <ele>296</ele>
        <time>2012-04-01T11:39:46Z</time>
      </trkpt>
      <trkpt lat="44.68977" lon="4.83612">
        <ele>296</ele>
        <time>2012-04-01T11:39:56Z</time>
      </trkpt>
      <trkpt lat="44.68968" lon="4.83626">
        <ele>296</ele>
        <time>2012-04-01T11:40:06Z</time>
      </trkpt>
      <trkpt lat="44.68964" lon="4.83638">
        <ele>297</ele>
        <time>2012-04-01T11:40:16Z</time>
      </trkpt>
      <trkpt lat="44.68968" lon="4.83652">
        <ele>303</ele>
        <time>2012-04-01T11:40:27Z</time>
      </trkpt>
      <trkpt lat="44.68982" lon="4.83677">
        <ele>306</ele>
        <time>2012-04-01T11:40:37Z</time>
      </trkpt>
      <trkpt lat="44.68989" lon="4.8371">
        <ele>307</ele>
        <time>2012-04-01T11:40:47Z</time>
      </trkpt>
      <trkpt lat="44.69004" lon="4.83743">
        <ele>307</ele>
        <time>2012-04-01T11:40:58Z</time>
      </trkpt>
      <trkpt lat="44.69013" lon="4.83776">
        <ele>307</ele>
        <time>2012-04-01T11:41:08Z</time>
      </trkpt>
      <trkpt lat="44.69018" lon="4.83808">
        <ele>307</ele>
        <time>2012-04-01T11:41:19Z</time>
      </trkpt>
      <trkpt lat="44.69037" lon="4.83834">
        <ele>307</ele>
        <time>2012-04-01T11:41:30Z</time>
      </trkpt>
      <trkpt lat="44.69042" lon="4.83863">
        <ele>307</ele>
        <time>2012-04-01T11:41:40Z</time>
      </trkpt>
      <trkpt lat="44.69046" lon="4.83895">
        <ele>308</ele>
        <time>2012-04-01T11:41:51Z</time>
      </trkpt>
      <trkpt lat="44.6905" lon="4.83924">
        <ele>309</ele>
        <time>2012-04-01T11:42:02Z</time>
      </trkpt>
      <trkpt lat="44.69055" lon="4.83942">
        <ele>312</ele>
        <time>2012-04-01T11:42:13Z</time>
      </trkpt>
      <trkpt lat="44.69055" lon="4.83957">
        <ele>314</ele>
        <time>2012-04-01T11:42:25Z</time>
      </trkpt>
      <trkpt lat="44.69057" lon="4.83973">
        <ele>318</ele>
        <time>2012-04-01T11:42:35Z</time>
      </trkpt>
      <trkpt lat="44.69069" lon="4.83986">
        <ele>321</ele>
        <time>2012-04-01T11:42:47Z</time>
      </trkpt>
      <trkpt lat="44.69078" lon="4.83997">
        <ele>324</ele>
        <time>2012-04-01T11:42:58Z</time>
      </trkpt>
      <trkpt lat="44.69091" lon="4.83997">
        <ele>324</ele>
        <time>2012-04-01T11:43:08Z</time>
      </trkpt>
      <trkpt lat="44.69105" lon="4.84">
        <ele>324</ele>
        <time>2012-04-01T11:43:18Z</time>
      </trkpt>
      <trkpt lat="44.6912" lon="4.84014">
        <ele>324</ele>
        <time>2012-04-01T11:43:29Z</time>
      </trkpt>
      <trkpt lat="44.69114" lon="4.84024">
        <ele>324</ele>
        <time>2012-04-01T11:43:41Z</time>
      </trkpt>
      <trkpt lat="44.69109" lon="4.84032">
        <ele>324</ele>
        <time>2012-04-01T11:43:51Z</time>
      </trkpt>
      <trkpt lat="44.69104" lon="4.84044">
        <ele>327</ele>
        <time>2012-04-01T11:44:01Z</time>
      </trkpt>
      <trkpt lat="44.691" lon="4.84055">
        <ele>332</ele>
        <time>2012-04-01T11:44:12Z</time>
      </trkpt>
      <trkpt lat="44.69096" lon="4.84064">
        <ele>333</ele>
        <time>2012-04-01T11:44:22Z</time>
      </trkpt>
      <trkpt lat="44.69093" lon="4.84078">
        <ele>333</ele>
        <time>2012-04-01T11:44:34Z</time>
      </trkpt>
      <trkpt lat="44.69094" lon="4.84091">
        <ele>340</ele>
        <time>2012-04-01T11:44:45Z</time>
      </trkpt>
      <trkpt lat="44.69099" lon="4.84103">
        <ele>343</ele>
        <time>2012-04-01T11:44:55Z</time>
      </trkpt>
      <trkpt lat="44.69103" lon="4.84118">
        <ele>352</ele>
        <time>2012-04-01T11:45:06Z</time>
      </trkpt>
      <trkpt lat="44.69107" lon="4.84135">
        <ele>352</ele>
        <time>2012-04-01T11:45:17Z</time>
      </trkpt>
      <trkpt lat="44.69109" lon="4.84154">
        <ele>353</ele>
        <time>2012-04-01T11:45:27Z</time>
      </trkpt>
      <trkpt lat="44.69116" lon="4.84167">
        <ele>353</ele>
        <time>2012-04-01T11:45:37Z</time>
      </trkpt>
      <trkpt lat="44.69122" lon="4.84179">
        <ele>356</ele>
        <time>2012-04-01T11:45:47Z</time>
      </trkpt>
      <trkpt lat="44.69124" lon="4.84195">
        <ele>362</ele>
        <time>2012-04-01T11:45:59Z</time>
      </trkpt>
      <trkpt lat="44.69127" lon="4.84209">
        <ele>365</ele>
        <time>2012-04-01T11:46:10Z</time>
      </trkpt>
      <trkpt lat="44.69128" lon="4.84223">
        <ele>369</ele>
        <time>2012-04-01T11:46:20Z</time>
      </trkpt>
      <trkpt lat="44.6913" lon="4.84236">
        <ele>370</ele>
        <time>2012-04-01T11:46:30Z</time>
      </trkpt>
      <trkpt lat="44.69136" lon="4.84248">
        <ele>375</ele>
        <time>2012-04-01T11:46:40Z</time>
      </trkpt>
      <trkpt lat="44.69141" lon="4.84262">
        <ele>379</ele>
        <time>2012-04-01T11:46:51Z</time>
      </trkpt>
      <trkpt lat="44.69143" lon="4.84272">
        <ele>381</ele>
        <time>2012-04-01T11:47:01Z</time>
      </trkpt>
      <trkpt lat="44.69146" lon="4.84283">
        <ele>383</ele>
        <time>2012-04-01T11:47:11Z</time>
      </trkpt>
      <trkpt lat="44.69149" lon="4.84296">
        <ele>384</ele>
        <time>2012-04-01T11:47:22Z</time>
      </trkpt>
      <trkpt lat="44.69151" lon="4.84307">
        <ele>386</ele>
        <time>2012-04-01T11:47:33Z</time>
      </trkpt>
      <trkpt lat="44.69152" lon="4.8432">
        <ele>392</ele>
        <time>2012-04-01T11:47:45Z</time>
      </trkpt>
      <trkpt lat="44.69156" lon="4.8433">
        <ele>397</ele>
        <time>2012-04-01T11:47:56Z</time>
      </trkpt>
      <trkpt lat="44.6916" lon="4.84342">
        <ele>399</ele>
        <time>2012-04-01T11:48:08Z</time>
      </trkpt>
      <trkpt lat="44.69162" lon="4.84353">
        <ele>399</ele>
        <time>2012-04-01T11:48:18Z</time>
      </trkpt>
      <trkpt lat="44.69166" lon="4.84365">
        <ele>400</ele>
        <time>2012-04-01T11:48:28Z</time>
      </trkpt>
      <trkpt lat="44.6917" lon="4.84378">
        <ele>400</ele>
        <time>2012-04-01T11:48:39Z</time>
      </trkpt>
      <trkpt lat="44.69177" lon="4.84389">
        <ele>406</ele>
        <time>2012-04-01T11:48:50Z</time>
      </trkpt>
      <trkpt lat="44.69171" lon="4.84393">
        <ele>406</ele>
        <time>2012-04-01T11:49:00Z</time>
      </trkpt>
      <trkpt lat="44.69162" lon="4.84392">
        <ele>406</ele>
        <time>2012-04-01T11:49:10Z</time>
      </trkpt>
      <trkpt lat="44.69153" lon="4.84391">
        <ele>405</ele>
        <time>2012-04-01T11:49:21Z</time>
      </trkpt>
      <trkpt lat="44.69144" lon="4.84388">
        <ele>406</ele>
        <time>2012-04-01T11:49:31Z</time>
      </trkpt>
      <trkpt lat="44.69137" lon="4.84386">
        <ele>409</ele>
        <time>2012-04-01T11:49:42Z</time>
      </trkpt>
      <trkpt lat="44.69129" lon="4.8438">
        <ele>413</ele>
        <time>2012-04-01T11:49:53Z</time>
      </trkpt>
      <trkpt lat="44.69123" lon="4.84376">
        <ele>413</ele>
        <time>2012-04-01T11:50:04Z</time>
      </trkpt>
      <trkpt lat="44.69115" lon="4.84372">
        <ele>415</ele>
        <time>2012-04-01T11:50:15Z</time>
      </trkpt>
      <trkpt lat="44.69107" lon="4.84369">
        <ele>417</ele>
        <time>2012-04-01T11:50:25Z</time>
      </trkpt>
      <trkpt lat="44.69098" lon="4.84364">
        <ele>420</ele>
        <time>2012-04-01T11:50:36Z</time>
      </trkpt>
      <trkpt lat="44.6909" lon="4.84365">
        <ele>421</ele>
        <time>2012-04-01T11:50:47Z</time>
      </trkpt>
      <trkpt lat="44.69082" lon="4.8436">
        <ele>421</ele>
        <time>2012-04-01T11:50:57Z</time>
      </trkpt>
      <trkpt lat="44.69074" lon="4.84359">
        <ele>422</ele>
        <time>2012-04-01T11:51:07Z</time>
      </trkpt>
      <trkpt lat="44.69065" lon="4.84353">
        <ele>426</ele>
        <time>2012-04-01T11:51:17Z</time>
      </trkpt>
      <trkpt lat="44.69057" lon="4.84349">
        <ele>426</ele>
        <time>2012-04-01T11:51:27Z</time>
      </trkpt>
      <trkpt lat="44.69046" lon="4.84341">
        <ele>426</ele>
        <time>2012-04-01T11:51:38Z</time>
      </trkpt>
      <trkpt lat="44.69035" lon="4.84333">
        <ele>429</ele>
        <time>2012-04-01T11:51:49Z</time>
      </trkpt>
      <trkpt lat="44.69027" lon="4.8433">
        <ele>437</ele>
        <time>2012-04-01T11:52:00Z</time>
      </trkpt>
      <trkpt lat="44.69022" lon="4.84331">
        <ele>442</ele>
        <time>2012-04-01T11:52:11Z</time>
      </trkpt>
      <trkpt lat="44.69019" lon="4.84338">
        <ele>446</ele>
        <time>2012-04-01T11:52:23Z</time>
      </trkpt>
      <trkpt lat="44.69013" lon="4.84344">
        <ele>448</ele>
        <time>2012-04-01T11:52:36Z</time>
      </trkpt>
      <trkpt lat="44.69009" lon="4.84345">
        <ele>452</ele>
        <time>2012-04-01T11:52:46Z</time>
      </trkpt>
      <trkpt lat="44.69007" lon="4.84347">
        <ele>456</ele>
        <time>2012-04-01T11:52:56Z</time>
      </trkpt>
      <trkpt lat="44.6901" lon="4.84357">
        <ele>459</ele>
        <time>2012-04-01T11:53:08Z</time>
      </trkpt>
      <trkpt lat="44.69007" lon="4.8436">
        <ele>461</ele>
        <time>2012-04-01T11:53:18Z</time>
      </trkpt>
      <trkpt lat="44.69002" lon="4.84365">
        <ele>464</ele>
        <time>2012-04-01T11:53:32Z</time>
      </trkpt>
      <trkpt lat="44.68998" lon="4.84373">
        <ele>466</ele>
        <time>2012-04-01T11:53:44Z</time>
      </trkpt>
      <trkpt lat="44.68993" lon="4.84374">
        <ele>470</ele>
        <time>2012-04-01T11:53:54Z</time>
      </trkpt>
      <trkpt lat="44.68989" lon="4.8438">
        <ele>472</ele>
        <time>2012-04-01T11:54:06Z</time>
      </trkpt>
      <trkpt lat="44.68983" lon="4.84382">
        <ele>479</ele>
        <time>2012-04-01T11:54:19Z</time>
      </trkpt>
      <trkpt lat="44.68982" lon="4.84389">
        <ele>484</ele>
        <time>2012-04-01T11:54:30Z</time>
      </trkpt>
      <trkpt lat="44.68978" lon="4.84397">
        <ele>485</ele>
        <time>2012-04-01T11:54:41Z</time>
      </trkpt>
      <trkpt lat="44.68978" lon="4.84403">
        <ele>488</ele>
        <time>2012-04-01T11:54:51Z</time>
      </trkpt>
      <trkpt lat="44.68981" lon="4.84411">
        <ele>490</ele>
        <time>2012-04-01T11:55:02Z</time>
      </trkpt>
      <trkpt lat="44.68977" lon="4.84417">
        <ele>492</ele>
        <time>2012-04-01T11:55:14Z</time>
      </trkpt>
      <trkpt lat="44.68976" lon="4.84424">
        <ele>494</ele>
        <time>2012-04-01T11:55:24Z</time>
      </trkpt>
      <trkpt lat="44.68975" lon="4.84436">
        <ele>495</ele>
        <time>2012-04-01T11:55:36Z</time>
      </trkpt>
      <trkpt lat="44.68984" lon="4.8445">
        <ele>495</ele>
        <time>2012-04-01T11:55:46Z</time>
      </trkpt>
      <trkpt lat="44.68999" lon="4.84473">
        <ele>495</ele>
        <time>2012-04-01T11:55:57Z</time>
      </trkpt>
      <trkpt lat="44.68992" lon="4.84493">
        <ele>495</ele>
        <time>2012-04-01T11:56:07Z</time>
      </trkpt>
      <trkpt lat="44.68978" lon="4.84496">
        <ele>495</ele>
        <time>2012-04-01T11:56:19Z</time>
      </trkpt>
      <trkpt lat="44.68969" lon="4.8448">
        <ele>495</ele>
        <time>2012-04-01T11:56:29Z</time>
      </trkpt>
      <trkpt lat="44.68956" lon="4.84469">
        <ele>495</ele>
        <time>2012-04-01T11:56:39Z</time>
      </trkpt>
      <trkpt lat="44.68953" lon="4.84459">
        <ele>493</ele>
        <time>2012-04-01T11:56:50Z</time>
      </trkpt>
      <trkpt lat="44.68942" lon="4.84451">
        <ele>492</ele>
        <time>2012-04-01T11:57:01Z</time>
      </trkpt>
      <trkpt lat="44.68929" lon="4.84451">
        <ele>492</ele>
        <time>2012-04-01T11:57:11Z</time>
      </trkpt>
      <trkpt lat="44.68917" lon="4.84436">
        <ele>492</ele>
        <time>2012-04-01T11:57:22Z</time>
      </trkpt>
      <trkpt lat="44.68908" lon="4.84425">
        <ele>492</ele>
        <time>2012-04-01T11:57:34Z</time>
      </trkpt>
      <trkpt lat="44.68903" lon="4.84415">
        <ele>492</ele>
        <time>2012-04-01T11:57:46Z</time>
      </trkpt>
      <trkpt lat="44.68898" lon="4.84414">
        <ele>492</ele>
        <time>2012-04-01T11:57:56Z</time>
      </trkpt>
      <trkpt lat="44.6889" lon="4.84412">
        <ele>492</ele>
        <time>2012-04-01T11:58:07Z</time>
      </trkpt>
      <trkpt lat="44.6888" lon="4.84409">
        <ele>492</ele>
        <time>2012-04-01T11:58:17Z</time>
      </trkpt>
      <trkpt lat="44.68867" lon="4.84397">
        <ele>489</ele>
        <time>2012-04-01T11:58:28Z</time>
      </trkpt>
      <trkpt lat="44.68853" lon="4.84399">
        <ele>484</ele>
        <time>2012-04-01T11:58:38Z</time>
      </trkpt>
      <trkpt lat="44.6884" lon="4.84386">
        <ele>478</ele>
        <time>2012-04-01T11:58:48Z</time>
      </trkpt>
      <trkpt lat="44.68825" lon="4.84393">
        <ele>474</ele>
        <time>2012-04-01T11:58:58Z</time>
      </trkpt>
      <trkpt lat="44.68808" lon="4.84389">
        <ele>471</ele>
        <time>2012-04-01T11:59:08Z</time>
      </trkpt>
      <trkpt lat="44.68792" lon="4.8438">
        <ele>467</ele>
        <time>2012-04-01T11:59:19Z</time>
      </trkpt>
      <trkpt lat="44.68779" lon="4.8438">
        <ele>460</ele>
        <time>2012-04-01T11:59:29Z</time>
      </trkpt>
      <trkpt lat="44.68765" lon="4.84376">
        <ele>453</ele>
        <time>2012-04-01T11:59:39Z</time>
      </trkpt>
      <trkpt lat="44.68751" lon="4.84378">
        <ele>448</ele>
        <time>2012-04-01T11:59:49Z</time>
      </trkpt>
      <trkpt lat="44.68737" lon="4.84382">
        <ele>444</ele>
        <time>2012-04-01T11:59:59Z</time>
      </trkpt>
      <trkpt lat="44.68723" lon="4.84378">
        <ele>438</ele>
        <time>2012-04-01T12:00:09Z</time>
      </trkpt>
      <trkpt lat="44.68707" lon="4.84375">
        <ele>433</ele>
        <time>2012-04-01T12:00:20Z</time>
      </trkpt>
      <trkpt lat="44.6869" lon="4.84375">
        <ele>429</ele>
        <time>2012-04-01T12:00:30Z</time>
      </trkpt>
      <trkpt lat="44.68675" lon="4.84369">
        <ele>424</ele>
        <time>2012-04-01T12:00:41Z</time>
      </trkpt>
      <trkpt lat="44.68659" lon="4.84376">
        <ele>419</ele>
        <time>2012-04-01T12:00:51Z</time>
      </trkpt>
      <trkpt lat="44.68647" lon="4.84377">
        <ele>414</ele>
        <time>2012-04-01T12:01:01Z</time>
      </trkpt>
      <trkpt lat="44.68636" lon="4.84373">
        <ele>409</ele>
        <time>2012-04-01T12:01:11Z</time>
      </trkpt>
      <trkpt lat="44.68623" lon="4.84374">
        <ele>403</ele>
        <time>2012-04-01T12:01:21Z</time>
      </trkpt>
      <trkpt lat="44.68608" lon="4.84374">
        <ele>397</ele>
        <time>2012-04-01T12:01:31Z</time>
      </trkpt>
      <trkpt lat="44.68594" lon="4.84384">
        <ele>393</ele>
        <time>2012-04-01T12:01:41Z</time>
      </trkpt>
      <trkpt lat="44.68604" lon="4.84396">
        <ele>393</ele>
        <time>2012-04-01T12:01:51Z</time>
      </trkpt>
      <trkpt lat="44.68618" lon="4.84409">
        <ele>393</ele>
        <time>2012-04-01T12:02:01Z</time>
      </trkpt>
      <trkpt lat="44.68636" lon="4.84421">
        <ele>394</ele>
        <time>2012-04-01T12:02:11Z</time>
      </trkpt>
      <trkpt lat="44.68651" lon="4.84431">
        <ele>398</ele>
        <time>2012-04-01T12:02:21Z</time>
      </trkpt>
      <trkpt lat="44.68666" lon="4.84442">
        <ele>399</ele>
        <time>2012-04-01T12:02:31Z</time>
      </trkpt>
      <trkpt lat="44.6868" lon="4.84454">
        <ele>403</ele>
        <time>2012-04-01T12:02:41Z</time>
      </trkpt>
      <trkpt lat="44.68697" lon="4.84464">
        <ele>405</ele>
        <time>2012-04-01T12:02:51Z</time>
      </trkpt>
      <trkpt lat="44.68707" lon="4.8447">
        <ele>405</ele>
        <time>2012-04-01T12:03:01Z</time>
      </trkpt>
      <trkpt lat="44.68716" lon="4.84477">
        <ele>405</ele>
        <time>2012-04-01T12:03:11Z</time>
      </trkpt>
      <trkpt lat="44.68728" lon="4.84484">
        <ele>408</ele>
        <time>2012-04-01T12:03:22Z</time>
      </trkpt>
      <trkpt lat="44.6874" lon="4.84492">
        <ele>409</ele>
        <time>2012-04-01T12:03:32Z</time>
      </trkpt>
      <trkpt lat="44.68753" lon="4.84501">
        <ele>410</ele>
        <time>2012-04-01T12:03:42Z</time>
      </trkpt>
      <trkpt lat="44.68766" lon="4.84513">
        <ele>411</ele>
        <time>2012-04-01T12:03:52Z</time>
      </trkpt>
      <trkpt lat="44.6878" lon="4.84526">
        <ele>414</ele>
        <time>2012-04-01T12:04:02Z</time>
      </trkpt>
      <trkpt lat="44.6879" lon="4.84534">
        <ele>416</ele>
        <time>2012-04-01T12:04:12Z</time>
      </trkpt>
      <trkpt lat="44.68801" lon="4.84542">
        <ele>419</ele>
        <time>2012-04-01T12:04:23Z</time>
      </trkpt>
      <trkpt lat="44.6881" lon="4.8455">
        <ele>421</ele>
        <time>2012-04-01T12:04:33Z</time>
      </trkpt>
      <trkpt lat="44.68819" lon="4.84559">
        <ele>422</ele>
        <time>2012-04-01T12:04:43Z</time>
      </trkpt>
      <trkpt lat="44.68834" lon="4.84572">
        <ele>423</ele>
        <time>2012-04-01T12:04:53Z</time>
      </trkpt>
      <trkpt lat="44.68851" lon="4.84586">
        <ele>423</ele>
        <time>2012-04-01T12:05:03Z</time>
      </trkpt>
      <trkpt lat="44.68869" lon="4.84597">
        <ele>424</ele>
        <time>2012-04-01T12:05:13Z</time>
      </trkpt>
      <trkpt lat="44.68882" lon="4.84608">
        <ele>426</ele>
        <time>2012-04-01T12:05:23Z</time>
      </trkpt>
      <trkpt lat="44.68892" lon="4.84628">
        <ele>428</ele>
        <time>2012-04-01T12:05:33Z</time>
      </trkpt>
      <trkpt lat="44.68908" lon="4.84641">
        <ele>428</ele>
        <time>2012-04-01T12:05:43Z</time>
      </trkpt>
      <trkpt lat="44.68922" lon="4.84644">
        <ele>430</ele>
        <time>2012-04-01T12:05:53Z</time>
      </trkpt>
      <trkpt lat="44.68934" lon="4.84652">
        <ele>433</ele>
        <time>2012-04-01T12:06:04Z</time>
      </trkpt>
      <trkpt lat="44.68944" lon="4.84657">
        <ele>433</ele>
        <time>2012-04-01T12:06:15Z</time>
      </trkpt>
      <trkpt lat="44.68957" lon="4.84657">
        <ele>433</ele>
        <time>2012-04-01T12:06:25Z</time>
      </trkpt>
      <trkpt lat="44.68968" lon="4.84659">
        <ele>433</ele>
        <time>2012-04-01T12:06:35Z</time>
      </trkpt>
      <trkpt lat="44.68978" lon="4.84664">
        <ele>433</ele>
        <time>2012-04-01T12:06:45Z</time>
      </trkpt>
      <trkpt lat="44.68989" lon="4.84664">
        <ele>433</ele>
        <time>2012-04-01T12:06:56Z</time>
      </trkpt>
      <trkpt lat="44.69003" lon="4.84664">
        <ele>431</ele>
        <time>2012-04-01T12:07:07Z</time>
      </trkpt>
      <trkpt lat="44.69012" lon="4.84664">
        <ele>429</ele>
        <time>2012-04-01T12:07:17Z</time>
      </trkpt>
      <trkpt lat="44.69025" lon="4.84665">
        <ele>428</ele>
        <time>2012-04-01T12:07:28Z</time>
      </trkpt>
      <trkpt lat="44.69035" lon="4.84665">
        <ele>423</ele>
        <time>2012-04-01T12:07:38Z</time>
      </trkpt>
      <trkpt lat="44.69048" lon="4.84666">
        <ele>421</ele>
        <time>2012-04-01T12:07:48Z</time>
      </trkpt>
      <trkpt lat="44.69061" lon="4.84668">
        <ele>421</ele>
        <time>2012-04-01T12:07:58Z</time>
      </trkpt>
      <trkpt lat="44.69073" lon="4.84671">
        <ele>420</ele>
        <time>2012-04-01T12:08:08Z</time>
      </trkpt>
      <trkpt lat="44.69085" lon="4.84672">
        <ele>419</ele>
        <time>2012-04-01T12:08:18Z</time>
      </trkpt>
      <trkpt lat="44.69096" lon="4.84672">
        <ele>416</ele>
        <time>2012-04-01T12:08:30Z</time>
      </trkpt>
      <trkpt lat="44.69109" lon="4.84671">
        <ele>416</ele>
        <time>2012-04-01T12:08:40Z</time>
      </trkpt>
      <trkpt lat="44.69122" lon="4.8467">
        <ele>416</ele>
        <time>2012-04-01T12:08:50Z</time>
      </trkpt>
      <trkpt lat="44.69134" lon="4.84671">
        <ele>415</ele>
        <time>2012-04-01T12:09:00Z</time>
      </trkpt>
      <trkpt lat="44.69147" lon="4.84672">
        <ele>412</ele>
        <time>2012-04-01T12:09:11Z</time>
      </trkpt>
      <trkpt lat="44.69158" lon="4.84671">
        <ele>410</ele>
        <time>2012-04-01T12:09:21Z</time>
      </trkpt>
      <trkpt lat="44.69172" lon="4.8467">
        <ele>408</ele>
        <time>2012-04-01T12:09:31Z</time>
      </trkpt>
      <trkpt lat="44.69192" lon="4.84668">
        <ele>405</ele>
        <time>2012-04-01T12:09:41Z</time>
      </trkpt>
      <trkpt lat="44.69211" lon="4.84659">
        <ele>404</ele>
        <time>2012-04-01T12:09:52Z</time>
      </trkpt>
      <trkpt lat="44.69229" lon="4.84654">
        <ele>403</ele>
        <time>2012-04-01T12:10:02Z</time>
      </trkpt>
      <trkpt lat="44.69249" lon="4.84647">
        <ele>402</ele>
        <time>2012-04-01T12:10:12Z</time>
      </trkpt>
      <trkpt lat="44.69266" lon="4.84643">
        <ele>402</ele>
        <time>2012-04-01T12:10:22Z</time>
      </trkpt>
      <trkpt lat="44.69283" lon="4.84637">
        <ele>396</ele>
        <time>2012-04-01T12:10:32Z</time>
      </trkpt>
      <trkpt lat="44.69299" lon="4.84631">
        <ele>391</ele>
        <time>2012-04-01T12:10:42Z</time>
      </trkpt>
      <trkpt lat="44.69315" lon="4.84615">
        <ele>387</ele>
        <time>2012-04-01T12:10:52Z</time>
      </trkpt>
      <trkpt lat="44.69332" lon="4.84596">
        <ele>382</ele>
        <time>2012-04-01T12:11:02Z</time>
      </trkpt>
      <trkpt lat="44.69339" lon="4.84605">
        <ele>378</ele>
        <time>2012-04-01T12:11:12Z</time>
      </trkpt>
      <trkpt lat="44.69331" lon="4.84628">
        <ele>377</ele>
        <time>2012-04-01T12:11:22Z</time>
      </trkpt>
      <trkpt lat="44.69321" lon="4.84645">
        <ele>374</ele>
        <time>2012-04-01T12:11:33Z</time>
      </trkpt>
      <trkpt lat="44.69326" lon="4.84651">
        <ele>371</ele>
        <time>2012-04-01T12:11:43Z</time>
      </trkpt>
      <trkpt lat="44.6934" lon="4.84649">
        <ele>367</ele>
        <time>2012-04-01T12:11:53Z</time>
      </trkpt>
      <trkpt lat="44.69358" lon="4.84648">
        <ele>365</ele>
        <time>2012-04-01T12:12:03Z</time>
      </trkpt>
      <trkpt lat="44.69368" lon="4.84648">
        <ele>363</ele>
        <time>2012-04-01T12:12:13Z</time>
      </trkpt>
      <trkpt lat="44.69382" lon="4.84651">
        <ele>361</ele>
        <time>2012-04-01T12:12:23Z</time>
      </trkpt>
      <trkpt lat="44.69383" lon="4.84653">
        <ele>358</ele>
        <time>2012-04-01T12:12:34Z</time>
      </trkpt>
      <trkpt lat="44.69388" lon="4.84657">
        <ele>354</ele>
        <time>2012-04-01T12:12:44Z</time>
      </trkpt>
      <trkpt lat="44.69407" lon="4.84657">
        <ele>350</ele>
        <time>2012-04-01T12:12:54Z</time>
      </trkpt>
      <trkpt lat="44.69425" lon="4.84659">
        <ele>345</ele>
        <time>2012-04-01T12:13:04Z</time>
      </trkpt>
      <trkpt lat="44.69441" lon="4.84668">
        <ele>339</ele>
        <time>2012-04-01T12:13:14Z</time>
      </trkpt>
      <trkpt lat="44.69458" lon="4.84682">
        <ele>336</ele>
        <time>2012-04-01T12:13:24Z</time>
      </trkpt>
      <trkpt lat="44.69477" lon="4.84692">
        <ele>333</ele>
        <time>2012-04-01T12:13:34Z</time>
      </trkpt>
      <trkpt lat="44.6947" lon="4.84667">
        <ele>330</ele>
        <time>2012-04-01T12:13:44Z</time>
      </trkpt>
      <trkpt lat="44.69459" lon="4.84636">
        <ele>328</ele>
        <time>2012-04-01T12:13:54Z</time>
      </trkpt>
      <trkpt lat="44.69447" lon="4.84605">
        <ele>327</ele>
        <time>2012-04-01T12:14:04Z</time>
      </trkpt>
      <trkpt lat="44.69442" lon="4.84572">
        <ele>326</ele>
        <time>2012-04-01T12:14:14Z</time>
      </trkpt>
      <trkpt lat="44.69458" lon="4.84546">
        <ele>325</ele>
        <time>2012-04-01T12:14:24Z</time>
      </trkpt>
      <trkpt lat="44.69472" lon="4.84525">
        <ele>323</ele>
        <time>2012-04-01T12:14:34Z</time>
      </trkpt>
      <trkpt lat="44.69476" lon="4.84519">
        <ele>324</ele>
        <time>2012-04-01T12:14:50Z</time>
      </trkpt>
      <trkpt lat="44.69471" lon="4.84505">
        <ele>324</ele>
        <time>2012-04-01T12:15:00Z</time>
      </trkpt>
      <trkpt lat="44.69459" lon="4.84484">
        <ele>324</ele>
        <time>2012-04-01T12:15:10Z</time>
      </trkpt>
      <trkpt lat="44.69448" lon="4.84453">
        <ele>324</ele>
        <time>2012-04-01T12:15:20Z</time>
      </trkpt>
      <trkpt lat="44.69437" lon="4.84421">
        <ele>324</ele>
        <time>2012-04-01T12:15:30Z</time>
      </trkpt>
      <trkpt lat="44.69426" lon="4.84387">
        <ele>322</ele>
        <time>2012-04-01T12:15:40Z</time>
      </trkpt>
      <trkpt lat="44.69435" lon="4.84355">
        <ele>321</ele>
        <time>2012-04-01T12:15:50Z</time>
      </trkpt>
      <trkpt lat="44.69428" lon="4.84339">
        <ele>318</ele>
        <time>2012-04-01T12:16:00Z</time>
      </trkpt>
      <trkpt lat="44.69406" lon="4.84355">
        <ele>314</ele>
        <time>2012-04-01T12:16:10Z</time>
      </trkpt>
      <trkpt lat="44.69386" lon="4.84354">
        <ele>310</ele>
        <time>2012-04-01T12:16:20Z</time>
      </trkpt>
      <trkpt lat="44.69369" lon="4.84325">
        <ele>313</ele>
        <time>2012-04-01T12:16:30Z</time>
      </trkpt>
      <trkpt lat="44.69352" lon="4.84298">
        <ele>320</ele>
        <time>2012-04-01T12:16:40Z</time>
      </trkpt>
      <trkpt lat="44.69338" lon="4.84284">
        <ele>322</ele>
        <time>2012-04-01T12:16:50Z</time>
      </trkpt>
      <trkpt lat="44.69325" lon="4.8428">
        <ele>322</ele>
        <time>2012-04-01T12:17:00Z</time>
      </trkpt>
      <trkpt lat="44.69312" lon="4.84277">
        <ele>322</ele>
        <time>2012-04-01T12:17:10Z</time>
      </trkpt>
      <trkpt lat="44.69299" lon="4.84273">
        <ele>322</ele>
        <time>2012-04-01T12:17:20Z</time>
      </trkpt>
      <trkpt lat="44.69285" lon="4.8427">
        <ele>322</ele>
        <time>2012-04-01T12:17:30Z</time>
      </trkpt>
      <trkpt lat="44.69272" lon="4.84267">
        <ele>322</ele>
        <time>2012-04-01T12:17:40Z</time>
      </trkpt>
      <trkpt lat="44.69263" lon="4.84258">
        <ele>323</ele>
        <time>2012-04-01T12:17:50Z</time>
      </trkpt>
      <trkpt lat="44.69254" lon="4.84246">
        <ele>323</ele>
        <time>2012-04-01T12:18:01Z</time>
      </trkpt>
      <trkpt lat="44.69243" lon="4.84231">
        <ele>323</ele>
        <time>2012-04-01T12:18:11Z</time>
      </trkpt>
      <trkpt lat="44.6923" lon="4.84203">
        <ele>323</ele>
        <time>2012-04-01T12:18:21Z</time>
      </trkpt>
      <trkpt lat="44.69223" lon="4.8417">
        <ele>322</ele>
        <time>2012-04-01T12:18:31Z</time>
      </trkpt>
      <trkpt lat="44.69216" lon="4.84138">
        <ele>316</ele>
        <time>2012-04-01T12:18:41Z</time>
      </trkpt>
      <trkpt lat="44.6921" lon="4.84107">
        <ele>311</ele>
        <time>2012-04-01T12:18:51Z</time>
      </trkpt>
      <trkpt lat="44.69199" lon="4.84079">
        <ele>305</ele>
        <time>2012-04-01T12:19:01Z</time>
      </trkpt>
      <trkpt lat="44.69195" lon="4.84047">
        <ele>301</ele>
        <time>2012-04-01T12:19:11Z</time>
      </trkpt>
      <trkpt lat="44.69215" lon="4.84047">
        <ele>294</ele>
        <time>2012-04-01T12:19:21Z</time>
      </trkpt>
      <trkpt lat="44.69232" lon="4.84053">
        <ele>287</ele>
        <time>2012-04-01T12:19:31Z</time>
      </trkpt>
      <trkpt lat="44.69251" lon="4.84063">
        <ele>282</ele>
        <time>2012-04-01T12:19:41Z</time>
      </trkpt>
      <trkpt lat="44.6927" lon="4.84062">
        <ele>282</ele>
        <time>2012-04-01T12:19:51Z</time>
      </trkpt>
      <trkpt lat="44.69293" lon="4.84062">
        <ele>284</ele>
        <time>2012-04-01T12:20:01Z</time>
      </trkpt>
      <trkpt lat="44.69315" lon="4.84034">
        <ele>285</ele>
        <time>2012-04-01T12:20:12Z</time>
      </trkpt>
      <trkpt lat="44.69341" lon="4.84008">
        <ele>288</ele>
        <time>2012-04-01T12:20:23Z</time>
      </trkpt>
      <trkpt lat="44.6935" lon="4.8397">
        <ele>282</ele>
        <time>2012-04-01T12:20:34Z</time>
      </trkpt>
      <trkpt lat="44.69374" lon="4.8396">
        <ele>274</ele>
        <time>2012-04-01T12:20:44Z</time>
      </trkpt>
      <trkpt lat="44.69399" lon="4.8395">
        <ele>264</ele>
        <time>2012-04-01T12:20:54Z</time>
      </trkpt>
      <trkpt lat="44.69428" lon="4.83938">
        <ele>256</ele>
        <time>2012-04-01T12:21:04Z</time>
      </trkpt>
      <trkpt lat="44.69448" lon="4.83917">
        <ele>254</ele>
        <time>2012-04-01T12:21:14Z</time>
      </trkpt>
      <trkpt lat="44.69471" lon="4.83893">
        <ele>253</ele>
        <time>2012-04-01T12:21:24Z</time>
      </trkpt>
      <trkpt lat="44.69496" lon="4.83873">
        <ele>253</ele>
        <time>2012-04-01T12:21:34Z</time>
      </trkpt>
      <trkpt lat="44.6951" lon="4.83865">
        <ele>253</ele>
        <time>2012-04-01T12:21:45Z</time>
      </trkpt>
      <trkpt lat="44.69516" lon="4.83859">
        <ele>253</ele>
        <time>2012-04-01T12:21:55Z</time>
      </trkpt>
      <trkpt lat="44.69528" lon="4.83852">
        <ele>254</ele>
        <time>2012-04-01T12:22:05Z</time>
      </trkpt>
      <trkpt lat="44.69543" lon="4.83844">
        <ele>254</ele>
        <time>2012-04-01T12:22:15Z</time>
      </trkpt>
      <trkpt lat="44.69567" lon="4.83829">
        <ele>254</ele>
        <time>2012-04-01T12:22:25Z</time>
      </trkpt>
      <trkpt lat="44.69592" lon="4.83817">
        <ele>251</ele>
        <time>2012-04-01T12:22:35Z</time>
      </trkpt>
      <trkpt lat="44.69618" lon="4.83803">
        <ele>248</ele>
        <time>2012-04-01T12:22:46Z</time>
      </trkpt>
      <trkpt lat="44.69644" lon="4.83791">
        <ele>246</ele>
        <time>2012-04-01T12:22:56Z</time>
      </trkpt>
      <trkpt lat="44.69661" lon="4.83768">
        <ele>240</ele>
        <time>2012-04-01T12:23:07Z</time>
      </trkpt>
      <trkpt lat="44.6969" lon="4.83756">
        <ele>234</ele>
        <time>2012-04-01T12:23:18Z</time>
      </trkpt>
      <trkpt lat="44.69713" lon="4.83728">
        <ele>234</ele>
        <time>2012-04-01T12:23:28Z</time>
      </trkpt>
      <trkpt lat="44.69728" lon="4.83698">
        <ele>237</ele>
        <time>2012-04-01T12:23:38Z</time>
      </trkpt>
      <trkpt lat="44.69743" lon="4.83685">
        <ele>242</ele>
        <time>2012-04-01T12:23:48Z</time>
      </trkpt>
      <trkpt lat="44.69753" lon="4.83683">
        <ele>247</ele>
        <time>2012-04-01T12:24:00Z</time>
      </trkpt>
      <trkpt lat="44.69753" lon="4.83688">
        <ele>249</ele>
        <time>2012-04-01T12:24:17Z</time>
      </trkpt>
      <trkpt lat="44.69759" lon="4.83687">
        <ele>249</ele>
        <time>2012-04-01T12:24:29Z</time>
      </trkpt>
      <trkpt lat="44.69759" lon="4.83687">
        <ele>249</ele>
        <time>2012-04-01T12:24:29Z</time>
      </trkpt>
    </trkseg>
  </trk>
</gpx>